GEFSGL_prec_meanprecacc_006.txt.gz
Total_Precipitation_Accumulation
0.00 0.00 0.00 0.00 0.00 0.00 0.00 0.00 0.00 0.00 0.00 0.00 0.00 0.00 0.00 0.01 0.01 0.02 0.06 0.15 0.18 0.15 0.21 0.18 0.15 0.10 0.08 0.06 0.05 0.04 0.15 0.22 0.22 0.15 0.08 0.04 0.01 0.00 0.00 0.00 0.00 0.00 0.00
0.00 0.00 0.00 0.00 0.00 0.00 0.00 0.00 0.00 0.00 0.00 0.00 0.00 0.00 0.00 0.00 0.01 0.01 0.01 0.04 0.09 0.14 0.19 0.23 0.23 0.23 0.18 0.08 0.05 0.04 0.10 0.17 0.26 0.33 0.27 0.16 0.06 0.01 0.01 0.00 0.00 0.00 0.00
0.00 0.00 0.00 0.00 0.00 0.00 0.00 0.00 0.00 0.00 0.00 0.00 0.00 0.00 0.00 0.00 0.00 0.00 0.00 0.01 0.05 0.08 0.17 0.24 0.22 0.17 0.12 0.06 0.06 0.05 0.04 0.06 0.11 0.23 0.29 0.21 0.18 0.09 0.03 0.02 0.01 0.00 0.00
0.00 0.00 0.00 0.00 0.00 0.00 0.00 0.00 0.00 0.00 0.00 0.00 0.00 0.00 0.00 0.00 0.00 0.00 0.00 0.00 0.01 0.02 0.06 0.10 0.13 0.11 0.09 0.05 0.03 0.04 0.04 0.04 0.04 0.07 0.13 0.21 0.30 0.24 0.16 0.13 0.10 0.05 0.02
0.01 0.00 0.00 0.00 0.00 0.00 0.00 0.00 0.00 0.00 0.00 0.00 0.00 0.00 0.00 0.00 0.00 0.00 0.00 0.00 0.00 0.01 0.01 0.01 0.02 0.02 0.02 0.02 0.03 0.04 0.06 0.06 0.05 0.05 0.09 0.14 0.21 0.21 0.19 0.21 0.12 0.07 0.06
0.01 0.01 0.01 0.01 0.00 0.00 0.00 0.00 0.00 0.00 0.00 0.00 0.00 0.00 0.00 0.00 0.00 0.00 0.00 0.00 0.00 0.00 0.00 0.00 0.00 0.00 0.00 0.01 0.01 0.02 0.02 0.03 0.04 0.05 0.10 0.18 0.17 0.11 0.19 0.21 0.19 0.19 0.16
0.02 0.02 0.02 0.02 0.01 0.01 0.01 0.01 0.00 0.00 0.00 0.00 0.00 0.00 0.00 0.00 0.00 0.00 0.00 0.00 0.00 0.00 0.00 0.00 0.00 0.00 0.00 0.00 0.02 0.05 0.04 0.02 0.01 0.01 0.06 0.13 0.12 0.06 0.14 0.27 0.24 0.20 0.20
0.04 0.07 0.08 0.07 0.04 0.03 0.03 0.02 0.01 0.01 0.00 0.00 0.00 0.00 0.00 0.00 0.00 0.00 0.00 0.00 0.00 0.00 0.00 0.00 0.00 0.00 0.00 0.00 0.00 0.01 0.02 0.01 0.01 0.01 0.01 0.01 0.01 0.01 0.04 0.12 0.18 0.14 0.13
0.05 0.08 0.12 0.12 0.06 0.03 0.03 0.01 0.01 0.01 0.01 0.00 0.00 0.00 0.00 0.00 0.00 0.00 0.00 0.00 0.00 0.00 0.00 0.00 0.00 0.00 0.00 0.00 0.00 0.00 0.00 0.00 0.00 0.00 0.01 0.01 0.01 0.00 0.00 0.01 0.03 0.07 0.13
0.05 0.08 0.11 0.10 0.06 0.02 0.01 0.00 0.00 0.00 0.00 0.00 0.00 0.00 0.00 0.00 0.00 0.00 0.00 0.00 0.00 0.00 0.00 0.00 0.00 0.00 0.00 0.00 0.00 0.00 0.00 0.00 0.00 0.00 0.00 0.00 0.00 0.00 0.00 0.00 0.00 0.01 0.03
0.07 0.06 0.09 0.10 0.04 0.01 0.00 0.00 0.00 0.00 0.00 0.00 0.00 0.00 0.00 0.00 0.00 0.00 0.00 0.00 0.00 0.00 0.00 0.00 0.00 0.00 0.00 0.00 0.00 0.00 0.00 0.00 0.00 0.00 0.00 0.00 0.00 0.00 0.00 0.00 0.00 0.00 0.00
0.07 0.06 0.06 0.05 0.02 0.02 0.02 0.01 0.00 0.00 0.00 0.00 0.00 0.00 0.00 0.00 0.00 0.00 0.00 0.00 0.00 0.00 0.00 0.00 0.00 0.00 0.00 0.00 0.00 0.00 0.00 0.00 0.00 0.00 0.00 0.00 0.00 0.00 0.00 0.00 0.00 0.00 0.00
0.05 0.05 0.04 0.03 0.02 0.02 0.02 0.03 0.02 0.01 0.01 0.01 0.01 0.00 0.00 0.00 0.00 0.00 0.00 0.00 0.00 0.00 0.00 0.00 0.00 0.00 0.00 0.00 0.00 0.00 0.00 0.00 0.00 0.00 0.00 0.00 0.00 0.00 0.00 0.00 0.00 0.00 0.00
0.04 0.06 0.07 0.04 0.02 0.02 0.01 0.01 0.03 0.04 0.04 0.05 0.04 0.02 0.01 0.01 0.01 0.00 0.00 0.00 0.00 0.00 0.00 0.00 0.00 0.00 0.00 0.00 0.00 0.00 0.00 0.00 0.00 0.00 0.00 0.00 0.00 0.00 0.00 0.00 0.00 0.00 0.00
0.04 0.09 0.14 0.10 0.05 0.03 0.02 0.01 0.02 0.04 0.06 0.07 0.07 0.04 0.01 0.01 0.02 0.01 0.00 0.00 0.00 0.00 0.00 0.00 0.00 0.00 0.00 0.00 0.00 0.00 0.00 0.00 0.00 0.00 0.00 0.00 0.00 0.00 0.00 0.00 0.00 0.00 0.00
0.07 0.06 0.07 0.07 0.07 0.05 0.02 0.01 0.01 0.01 0.01 0.02 0.03 0.03 0.02 0.01 0.01 0.00 0.00 0.00 0.00 0.00 0.00 0.00 0.00 0.00 0.00 0.00 0.00 0.00 0.00 0.00 0.00 0.00 0.00 0.00 0.00 0.00 0.00 0.00 0.00 0.00 0.00
0.02 0.02 0.01 0.02 0.02 0.01 0.01 0.02 0.02 0.01 0.01 0.00 0.00 0.00 0.01 0.00 0.00 0.00 0.00 0.00 0.00 0.00 0.00 0.00 0.00 0.00 0.00 0.00 0.00 0.00 0.00 0.00 0.00 0.00 0.00 0.00 0.00 0.00 0.00 0.00 0.00 0.00 0.00
0.00 0.00 0.01 0.01 0.01 0.01 0.00 0.01 0.01 0.01 0.01 0.00 0.00 0.00 0.00 0.00 0.00 0.00 0.00 0.00 0.00 0.00 0.00 0.00 0.00 0.00 0.00 0.00 0.00 0.00 0.00 0.00 0.00 0.00 0.00 0.00 0.00 0.00 0.00 0.00 0.00 0.00 0.00
0.00 0.00 0.00 0.00 0.00 0.00 0.00 0.00 0.00 0.00 0.00 0.00 0.00 0.00 0.00 0.00 0.00 0.00 0.00 0.00 0.00 0.00 0.00 0.00 0.00 0.00 0.00 0.00 0.00 0.00 0.00 0.00 0.00 0.00 0.00 0.00 0.00 0.00 0.00 0.00 0.00 0.00 0.00
0.00 0.00 0.00 0.00 0.00 0.00 0.00 0.00 0.00 0.00 0.00 0.00 0.00 0.00 0.00 0.00 0.00 0.00 0.00 0.00 0.00 0.00 0.00 0.00 0.00 0.00 0.00 0.00 0.00 0.00 0.00 0.00 0.00 0.00 0.00 0.00 0.00 0.00 0.00 0.00 0.00 0.00 0.00
0.00 0.00 0.00 0.00 0.00 0.00 0.00 0.00 0.00 0.00 0.00 0.00 0.00 0.00 0.00 0.00 0.00 0.00 0.00 0.00 0.00 0.00 0.00 0.00 0.00 0.00 0.00 0.00 0.00 0.00 0.00 0.00 0.00 0.00 0.00 0.00 0.00 0.00 0.00 0.00 0.00 0.00 0.00
0.00 0.00 0.00 0.00 0.00 0.00 0.00 0.00 0.00 0.00 0.00 0.00 0.00 0.00 0.00 0.00 0.00 0.00 0.00 0.00 0.00 0.00 0.00 0.00 0.00 0.00 0.00 0.00 0.00 0.00 0.00 0.00 0.01 0.01 0.01 0.00 0.00 0.00 0.00 0.00 0.00 0.00 0.00
0.00 0.00 0.00 0.00 0.00 0.00 0.00 0.00 0.00 0.00 0.00 0.00 0.00 0.00 0.00 0.00 0.00 0.00 0.00 0.00 0.00 0.00 0.00 0.00 0.00 0.00 0.00 0.00 0.00 0.00 0.00 0.00 0.00 0.00 0.00 0.00 0.00 0.00 0.00 0.00 0.00 0.00 0.00
0.00 0.00 0.00 0.00 0.00 0.00 0.00 0.00 0.00 0.00 0.00 0.00 0.00 0.00 0.00 0.00 0.00 0.00 0.00 0.00 0.00 0.00 0.00 0.00 0.00 0.00 0.00 0.00 0.00 0.00 0.00 0.00 0.00 0.00 0.00 0.00 0.00 0.00 0.00 0.00 0.00 0.00 0.00
0.00 0.00 0.00 0.00 0.00 0.00 0.00 0.00 0.00 0.00 0.00 0.00 0.00 0.00 0.00 0.00 0.00 0.00 0.00 0.00 0.00 0.00 0.00 0.00 0.00 0.00 0.00 0.00 0.00 0.00 0.00 0.00 0.00 0.00 0.00 0.00 0.00 0.00 0.00 0.00 0.00 0.00 0.00
0.00 0.00 0.00 0.00 0.00 0.00 0.00 0.00 0.00 0.00 0.00 0.00 0.00 0.00 0.00 0.00 0.00 0.00 0.00 0.00 0.00 0.00 0.00 0.00 0.00 0.00 0.00 0.00 0.00 0.00 0.00 0.00 0.00 0.00 0.00 0.01 0.01 0.02 0.01 0.01 0.00 0.00 0.00

GEFSGL_prec_meanprecacc_012.txt.gz
Total_Precipitation_Accumulation
0.01 0.01 0.01 0.01 0.01 0.01 0.01 0.01 0.01 0.00 0.00 0.00 0.00 0.00 0.00 0.01 0.01 0.02 0.07 0.16 0.19 0.16 0.22 0.20 0.18 0.16 0.14 0.11 0.09 0.08 0.17 0.24 0.24 0.16 0.09 0.05 0.01 0.00 0.00 0.00 0.00 0.00 0.00
0.00 0.00 0.00 0.00 0.00 0.00 0.00 0.00 0.00 0.00 0.00 0.00 0.00 0.00 0.00 0.00 0.01 0.01 0.01 0.05 0.11 0.15 0.23 0.29 0.32 0.34 0.26 0.13 0.11 0.10 0.14 0.20 0.28 0.35 0.30 0.18 0.07 0.01 0.01 0.01 0.00 0.00 0.00
0.01 0.00 0.00 0.00 0.00 0.00 0.00 0.00 0.00 0.00 0.00 0.00 0.00 0.00 0.00 0.00 0.00 0.00 0.00 0.01 0.05 0.10 0.21 0.31 0.33 0.31 0.26 0.18 0.16 0.13 0.11 0.10 0.15 0.27 0.32 0.23 0.19 0.10 0.04 0.02 0.01 0.00 0.00
0.02 0.01 0.00 0.00 0.00 0.00 0.00 0.00 0.00 0.00 0.00 0.00 0.00 0.00 0.00 0.00 0.00 0.00 0.00 0.01 0.03 0.06 0.11 0.17 0.22 0.22 0.23 0.21 0.16 0.14 0.13 0.10 0.09 0.12 0.18 0.25 0.32 0.25 0.17 0.14 0.10 0.05 0.02
0.02 0.02 0.01 0.01 0.00 0.00 0.00 0.00 0.00 0.00 0.00 0.00 0.00 0.00 0.00 0.00 0.00 0.01 0.01 0.01 0.02 0.03 0.04 0.05 0.06 0.08 0.10 0.11 0.12 0.12 0.12 0.10 0.09 0.09 0.12 0.18 0.24 0.23 0.20 0.21 0.12 0.08 0.07
0.04 0.04 0.03 0.02 0.01 0.01 0.00 0.00 0.00 0.00 0.00 0.00 0.00 0.00 0.00 0.00 0.00 0.01 0.00 0.00 0.01 0.01 0.01 0.01 0.01 0.01 0.02 0.02 0.03 0.04 0.05 0.06 0.08 0.10 0.14 0.22 0.20 0.14 0.21 0.23 0.20 0.20 0.18
0.04 0.05 0.04 0.04 0.04 0.03 0.03 0.01 0.01 0.00 0.00 0.00 0.00 0.00 0.00 0.00 0.00 0.00 0.00 0.00 0.00 0.00 0.00 0.00 0.00 0.00 0.00 0.00 0.02 0.05 0.05 0.04 0.03 0.05 0.09 0.16 0.15 0.09 0.17 0.29 0.25 0.22 0.22
0.06 0.10 0.12 0.12 0.10 0.08 0.07 0.04 0.03 0.02 0.00 0.00 0.00 0.00 0.00 0.00 0.00 0.00 0.00 0.00 0.00 0.00 0.00 0.00 0.00 0.00 0.00 0.00 0.01 0.02 0.02 0.02 0.02 0.02 0.03 0.04 0.03 0.03 0.06 0.14 0.21 0.16 0.15
0.07 0.11 0.18 0.19 0.13 0.09 0.07 0.05 0.05 0.05 0.04 0.01 0.00 0.00 0.00 0.00 0.00 0.00 0.00 0.00 0.00 0.00 0.00 0.00 0.00 0.00 0.00 0.00 0.00 0.00 0.00 0.00 0.00 0.01 0.01 0.03 0.03 0.02 0.02 0.02 0.05 0.09 0.16
0.08 0.13 0.17 0.16 0.11 0.07 0.05 0.04 0.04 0.05 0.05 0.02 0.01 0.00 0.00 0.00 0.00 0.00 0.00 0.00 0.00 0.00 0.00 0.00 0.00 0.00 0.00 0.00 0.00 0.00 0.00 0.00 0.00 0.00 0.00 0.00 0.00 0.01 0.01 0.01 0.01 0.01 0.04
0.11 0.13 0.18 0.19 0.11 0.05 0.03 0.02 0.02 0.03 0.03 0.02 0.01 0.00 0.00 0.00 0.00 0.00 0.00 0.00 0.00 0.00 0.00 0.00 0.00 0.00 0.00 0.00 0.00 0.00 0.00 0.00 0.00 0.00 0.00 0.00 0.00 0.00 0.00 0.00 0.00 0.00 0.00
0.13 0.13 0.17 0.18 0.14 0.08 0.05 0.03 0.02 0.02 0.02 0.02 0.01 0.01 0.01 0.01 0.00 0.00 0.00 0.00 0.00 0.00 0.00 0.00 0.00 0.00 0.00 0.00 0.00 0.00 0.00 0.00 0.00 0.00 0.00 0.00 0.00 0.00 0.00 0.00 0.00 0.00 0.00
0.13 0.14 0.15 0.16 0.15 0.10 0.06 0.06 0.05 0.03 0.03 0.02 0.01 0.01 0.01 0.01 0.02 0.01 0.00 0.00 0.00 0.00 0.00 0.00 0.00 0.00 0.00 0.00 0.00 0.00 0.00 0.00 0.00 0.00 0.00 0.00 0.00 0.00 0.00 0.00 0.00 0.00 0.00
0.13 0.16 0.18 0.15 0.14 0.13 0.10 0.09 0.08 0.06 0.05 0.05 0.04 0.02 0.01 0.02 0.03 0.04 0.02 0.00 0.00 0.00 0.00 0.00 0.00 0.00 0.00 0.00 0.00 0.00 0.00 0.00 0.00 0.00 0.00 0.00 0.00 0.00 0.00 0.00 0.00 0.00 0.00
0.11 0.17 0.22 0.19 0.16 0.13 0.12 0.11 0.10 0.08 0.07 0.08 0.07 0.04 0.02 0.02 0.04 0.04 0.03 0.02 0.01 0.00 0.00 0.00 0.00 0.00 0.00 0.00 0.00 0.00 0.00 0.00 0.00 0.00 0.00 0.00 0.00 0.00 0.00 0.00 0.00 0.00 0.00
0.11 0.10 0.11 0.11 0.12 0.11 0.09 0.08 0.06 0.03 0.02 0.03 0.03 0.03 0.03 0.02 0.02 0.02 0.03 0.02 0.01 0.01 0.00 0.00 0.00 0.00 0.00 0.00 0.00 0.00 0.00 0.00 0.00 0.00 0.00 0.00 0.00 0.00 0.00 0.00 0.00 0.00 0.00
0.03 0.03 0.03 0.03 0.03 0.03 0.04 0.05 0.05 0.03 0.02 0.01 0.00 0.01 0.01 0.01 0.01 0.01 0.01 0.02 0.02 0.01 0.01 0.00 0.00 0.00 0.00 0.00 0.00 0.00 0.00 0.00 0.00 0.00 0.00 0.00 0.00 0.00 0.00 0.00 0.00 0.00 0.00
0.00 0.00 0.01 0.02 0.01 0.01 0.01 0.01 0.01 0.01 0.01 0.00 0.00 0.00 0.00 0.00 0.00 0.00 0.00 0.00 0.01 0.01 0.01 0.01 0.00 0.00 0.00 0.00 0.00 0.00 0.00 0.00 0.00 0.00 0.00 0.00 0.00 0.00 0.00 0.00 0.00 0.00 0.00
0.00 0.00 0.00 0.00 0.01 0.00 0.00 0.00 0.00 0.00 0.00 0.00 0.00 0.00 0.00 0.00 0.00 0.00 0.00 0.00 0.00 0.00 0.00 0.00 0.00 0.00 0.00 0.00 0.00 0.00 0.00 0.00 0.00 0.00 0.00 0.00 0.00 0.00 0.00 0.00 0.00 0.00 0.00
0.00 0.00 0.00 0.00 0.00 0.00 0.00 0.00 0.00 0.00 0.00 0.00 0.00 0.00 0.00 0.00 0.00 0.00 0.00 0.00 0.00 0.00 0.00 0.00 0.00 0.00 0.00 0.00 0.00 0.00 0.00 0.00 0.00 0.00 0.00 0.00 0.00 0.00 0.00 0.00 0.00 0.00 0.00
0.00 0.00 0.00 0.00 0.00 0.00 0.00 0.00 0.00 0.00 0.00 0.00 0.00 0.00 0.00 0.00 0.00 0.00 0.00 0.00 0.00 0.00 0.00 0.00 0.00 0.00 0.00 0.00 0.00 0.00 0.00 0.00 0.00 0.00 0.00 0.00 0.00 0.00 0.00 0.00 0.00 0.00 0.00
0.00 0.00 0.00 0.00 0.00 0.00 0.00 0.00 0.00 0.00 0.00 0.00 0.00 0.00 0.00 0.00 0.00 0.00 0.00 0.00 0.00 0.00 0.00 0.00 0.00 0.00 0.00 0.00 0.00 0.00 0.00 0.00 0.01 0.01 0.01 0.01 0.01 0.01 0.01 0.01 0.00 0.00 0.00
0.00 0.00 0.00 0.00 0.00 0.00 0.00 0.00 0.00 0.00 0.00 0.00 0.00 0.00 0.00 0.00 0.00 0.00 0.00 0.00 0.00 0.00 0.00 0.00 0.00 0.00 0.00 0.00 0.00 0.00 0.00 0.00 0.00 0.00 0.00 0.00 0.01 0.01 0.01 0.01 0.01 0.01 0.00
0.00 0.00 0.00 0.00 0.00 0.00 0.00 0.00 0.00 0.00 0.00 0.00 0.00 0.00 0.00 0.00 0.00 0.00 0.00 0.00 0.00 0.00 0.00 0.00 0.00 0.00 0.00 0.00 0.00 0.00 0.00 0.00 0.00 0.00 0.00 0.00 0.01 0.01 0.02 0.02 0.02 0.01 0.01
0.00 0.00 0.00 0.00 0.00 0.00 0.00 0.00 0.00 0.00 0.00 0.00 0.00 0.00 0.00 0.00 0.00 0.00 0.00 0.00 0.00 0.00 0.00 0.00 0.00 0.00 0.00 0.00 0.00 0.00 0.00 0.00 0.00 0.00 0.00 0.00 0.01 0.01 0.02 0.02 0.03 0.03 0.02
0.00 0.00 0.00 0.00 0.00 0.00 0.00 0.00 0.00 0.00 0.00 0.00 0.00 0.00 0.00 0.00 0.00 0.00 0.00 0.00 0.00 0.00 0.00 0.00 0.00 0.00 0.00 0.00 0.00 0.00 0.00 0.00 0.00 0.00 0.00 0.01 0.01 0.02 0.02 0.02 0.02 0.02 0.02

GEFSGL_prec_meanprecacc_018.txt.gz
Total_Precipitation_Accumulation
0.04 0.03 0.02 0.02 0.02 0.02 0.02 0.02 0.02 0.01 0.01 0.01 0.01 0.01 0.01 0.01 0.01 0.03 0.07 0.17 0.20 0.20 0.26 0.24 0.24 0.26 0.29 0.31 0.31 0.30 0.39 0.46 0.50 0.44 0.31 0.18 0.07 0.03 0.01 0.01 0.00 0.00 0.00
0.02 0.01 0.00 0.00 0.00 0.00 0.00 0.00 0.00 0.00 0.00 0.00 0.00 0.00 0.00 0.01 0.01 0.01 0.02 0.05 0.12 0.17 0.25 0.32 0.36 0.42 0.39 0.31 0.31 0.34 0.42 0.49 0.58 0.68 0.61 0.40 0.21 0.07 0.04 0.02 0.01 0.00 0.00
0.01 0.01 0.00 0.00 0.00 0.00 0.00 0.00 0.00 0.00 0.00 0.00 0.00 0.00 0.00 0.00 0.00 0.01 0.01 0.02 0.06 0.11 0.22 0.33 0.36 0.36 0.36 0.33 0.34 0.36 0.38 0.34 0.41 0.55 0.62 0.47 0.37 0.19 0.12 0.08 0.04 0.04 0.01
0.02 0.01 0.01 0.00 0.00 0.00 0.00 0.00 0.00 0.00 0.00 0.00 0.00 0.00 0.00 0.00 0.01 0.01 0.01 0.02 0.04 0.07 0.12 0.19 0.25 0.27 0.31 0.32 0.30 0.30 0.32 0.28 0.25 0.31 0.41 0.45 0.51 0.42 0.33 0.28 0.21 0.15 0.08
0.03 0.02 0.02 0.01 0.01 0.00 0.00 0.00 0.00 0.00 0.00 0.00 0.00 0.00 0.00 0.00 0.00 0.01 0.01 0.02 0.03 0.04 0.05 0.07 0.08 0.12 0.15 0.19 0.21 0.25 0.25 0.25 0.24 0.26 0.31 0.37 0.43 0.43 0.38 0.37 0.26 0.22 0.18
0.05 0.05 0.03 0.03 0.02 0.01 0.01 0.00 0.00 0.00 0.00 0.00 0.00 0.00 0.00 0.00 0.00 0.01 0.00 0.00 0.01 0.01 0.02 0.02 0.02 0.03 0.05 0.07 0.10 0.12 0.14 0.19 0.25 0.30 0.33 0.40 0.38 0.31 0.36 0.36 0.34 0.35 0.33
0.06 0.06 0.06 0.06 0.05 0.05 0.04 0.02 0.01 0.00 0.00 0.00 0.00 0.00 0.00 0.00 0.00 0.00 0.00 0.00 0.00 0.00 0.00 0.00 0.00 0.00 0.01 0.02 0.05 0.08 0.09 0.09 0.10 0.17 0.24 0.29 0.27 0.20 0.30 0.42 0.38 0.37 0.37
0.09 0.12 0.14 0.15 0.12 0.10 0.10 0.06 0.04 0.02 0.01 0.00 0.00 0.00 0.00 0.00 0.00 0.00 0.00 0.00 0.00 0.00 0.00 0.00 0.00 0.00 0.00 0.00 0.01 0.02 0.03 0.03 0.03 0.05 0.08 0.08 0.09 0.10 0.15 0.26 0.33 0.27 0.24
0.09 0.15 0.21 0.22 0.17 0.14 0.14 0.10 0.08 0.07 0.04 0.02 0.01 0.01 0.00 0.00 0.00 0.00 0.00 0.00 0.00 0.00 0.00 0.00 0.00 0.00 0.00 0.00 0.00 0.00 0.00 0.00 0.00 0.01 0.02 0.04 0.06 0.07 0.07 0.10 0.14 0.21 0.31
0.13 0.18 0.22 0.20 0.16 0.13 0.12 0.10 0.09 0.08 0.07 0.03 0.03 0.01 0.01 0.01 0.00 0.00 0.00 0.00 0.00 0.00 0.00 0.00 0.00 0.00 0.00 0.00 0.00 0.00 0.00 0.00 0.00 0.00 0.00 0.00 0.01 0.02 0.03 0.04 0.06 0.10 0.17
0.15 0.18 0.24 0.23 0.15 0.10 0.09 0.09 0.07 0.07 0.07 0.05 0.03 0.02 0.02 0.01 0.01 0.00 0.00 0.00 0.00 0.00 0.00 0.00 0.00 0.00 0.00 0.00 0.00 0.00 0.00 0.00 0.00 0.00 0.00 0.00 0.00 0.00 0.00 0.00 0.01 0.02 0.04
0.17 0.18 0.22 0.23 0.18 0.13 0.12 0.10 0.08 0.08 0.09 0.07 0.05 0.04 0.04 0.03 0.01 0.00 0.00 0.00 0.00 0.00 0.00 0.00 0.00 0.00 0.00 0.00 0.00 0.00 0.00 0.00 0.00 0.00 0.00 0.00 0.00 0.00 0.00 0.00 0.00 0.00 0.01
0.19 0.20 0.20 0.21 0.20 0.15 0.13 0.13 0.11 0.10 0.11 0.10 0.08 0.06 0.05 0.06 0.05 0.02 0.01 0.00 0.00 0.00 0.00 0.00 0.00 0.00 0.00 0.00 0.00 0.00 0.00 0.00 0.00 0.00 0.00 0.00 0.00 0.00 0.00 0.00 0.00 0.00 0.00
0.19 0.21 0.23 0.22 0.24 0.21 0.18 0.19 0.18 0.16 0.14 0.14 0.13 0.09 0.06 0.07 0.07 0.07 0.05 0.02 0.00 0.00 0.00 0.00 0.00 0.00 0.00 0.00 0.00 0.00 0.00 0.00 0.00 0.00 0.00 0.00 0.00 0.00 0.00 0.00 0.00 0.00 0.00
0.15 0.21 0.27 0.25 0.26 0.24 0.21 0.20 0.22 0.21 0.19 0.18 0.16 0.11 0.08 0.07 0.07 0.06 0.06 0.04 0.02 0.01 0.01 0.01 0.00 0.00 0.00 0.00 0.00 0.00 0.00 0.00 0.00 0.00 0.00 0.00 0.00 0.00 0.00 0.00 0.00 0.00 0.00
0.14 0.14 0.16 0.17 0.18 0.19 0.18 0.15 0.13 0.11 0.10 0.09 0.08 0.08 0.06 0.04 0.03 0.03 0.04 0.04 0.04 0.04 0.04 0.04 0.03 0.01 0.00 0.00 0.00 0.00 0.00 0.00 0.00 0.00 0.00 0.00 0.00 0.00 0.00 0.00 0.00 0.00 0.00
0.04 0.05 0.06 0.07 0.08 0.09 0.10 0.11 0.10 0.06 0.04 0.03 0.02 0.02 0.02 0.01 0.01 0.01 0.02 0.03 0.04 0.04 0.05 0.06 0.07 0.05 0.02 0.01 0.00 0.00 0.00 0.00 0.00 0.00 0.00 0.00 0.00 0.00 0.00 0.00 0.00 0.00 0.00
0.01 0.01 0.02 0.03 0.03 0.03 0.03 0.03 0.03 0.03 0.02 0.01 0.00 0.00 0.00 0.00 0.00 0.00 0.00 0.01 0.01 0.02 0.04 0.05 0.07 0.07 0.05 0.03 0.01 0.00 0.00 0.00 0.00 0.00 0.00 0.00 0.00 0.00 0.00 0.00 0.00 0.00 0.00
0.00 0.00 0.00 0.00 0.01 0.01 0.00 0.01 0.01 0.01 0.01 0.00 0.00 0.00 0.00 0.00 0.00 0.00 0.00 0.00 0.00 0.01 0.01 0.01 0.02 0.03 0.04 0.04 0.03 0.02 0.01 0.01 0.00 0.00 0.00 0.00 0.00 0.00 0.00 0.00 0.00 0.00 0.00
0.00 0.00 0.00 0.00 0.00 0.00 0.00 0.00 0.00 0.00 0.00 0.00 0.00 0.00 0.00 0.00 0.00 0.00 0.00 0.00 0.00 0.00 0.00 0.00 0.00 0.01 0.01 0.02 0.02 0.02 0.02 0.01 0.01 0.00 0.00 0.00 0.00 0.00 0.00 0.00 0.00 0.00 0.00
0.00 0.00 0.00 0.00 0.00 0.00 0.00 0.00 0.00 0.00 0.00 0.00 0.00 0.00 0.00 0.00 0.00 0.00 0.00 0.00 0.00 0.00 0.00 0.00 0.00 0.00 0.00 0.00 0.01 0.01 0.01 0.01 0.01 0.01 0.01 0.01 0.01 0.00 0.00 0.00 0.00 0.00 0.00
0.00 0.00 0.00 0.00 0.00 0.00 0.00 0.00 0.00 0.00 0.00 0.00 0.00 0.00 0.00 0.00 0.00 0.00 0.00 0.00 0.00 0.00 0.00 0.00 0.00 0.00 0.00 0.00 0.00 0.00 0.01 0.01 0.01 0.01 0.01 0.01 0.01 0.01 0.01 0.01 0.01 0.01 0.01
0.00 0.00 0.00 0.00 0.00 0.00 0.00 0.00 0.00 0.00 0.00 0.00 0.00 0.00 0.00 0.00 0.00 0.00 0.00 0.00 0.00 0.00 0.00 0.00 0.00 0.00 0.00 0.00 0.00 0.00 0.00 0.00 0.00 0.00 0.00 0.01 0.01 0.02 0.02 0.02 0.02 0.02 0.02
0.00 0.00 0.00 0.00 0.00 0.00 0.00 0.00 0.00 0.00 0.00 0.00 0.00 0.00 0.00 0.00 0.00 0.00 0.00 0.00 0.00 0.00 0.00 0.00 0.00 0.00 0.00 0.00 0.00 0.00 0.00 0.00 0.00 0.00 0.00 0.00 0.01 0.02 0.02 0.03 0.04 0.04 0.03
0.00 0.00 0.00 0.00 0.00 0.00 0.00 0.00 0.00 0.00 0.00 0.00 0.00 0.00 0.00 0.00 0.00 0.00 0.00 0.00 0.00 0.00 0.00 0.00 0.00 0.00 0.00 0.00 0.00 0.00 0.00 0.00 0.00 0.00 0.00 0.00 0.01 0.01 0.02 0.03 0.03 0.04 0.04
0.00 0.00 0.00 0.00 0.00 0.00 0.00 0.00 0.00 0.00 0.00 0.00 0.00 0.00 0.00 0.00 0.00 0.00 0.00 0.00 0.00 0.00 0.00 0.00 0.00 0.00 0.01 0.00 0.00 0.00 0.00 0.00 0.00 0.00 0.00 0.01 0.01 0.02 0.02 0.02 0.02 0.02 0.03

GEFSGL_prec_meanprecacc_024.txt.gz
Total_Precipitation_Accumulation
0.11 0.07 0.05 0.04 0.03 0.03 0.03 0.03 0.03 0.02 0.02 0.02 0.03 0.04 0.04 0.05 0.05 0.06 0.10 0.21 0.24 0.24 0.31 0.31 0.33 0.37 0.41 0.44 0.46 0.47 0.59 0.71 0.72 0.74 0.62 0.42 0.26 0.13 0.05 0.04 0.02 0.01 0.00
0.08 0.04 0.03 0.02 0.01 0.01 0.00 0.00 0.00 0.00 0.00 0.01 0.01 0.02 0.02 0.02 0.02 0.02 0.02 0.06 0.13 0.19 0.27 0.36 0.41 0.49 0.49 0.44 0.46 0.50 0.64 0.77 0.86 1.00 1.04 0.79 0.52 0.25 0.16 0.09 0.03 0.01 0.01
0.06 0.03 0.02 0.01 0.01 0.00 0.00 0.00 0.00 0.00 0.00 0.00 0.00 0.00 0.00 0.00 0.01 0.01 0.02 0.03 0.08 0.13 0.24 0.35 0.40 0.41 0.43 0.44 0.49 0.54 0.59 0.68 0.76 0.88 1.01 0.84 0.65 0.38 0.32 0.23 0.12 0.11 0.05
0.04 0.03 0.03 0.03 0.02 0.01 0.00 0.00 0.00 0.00 0.00 0.00 0.00 0.00 0.00 0.00 0.01 0.02 0.02 0.03 0.06 0.10 0.15 0.22 0.27 0.28 0.33 0.36 0.39 0.47 0.53 0.53 0.55 0.62 0.74 0.78 0.81 0.70 0.60 0.50 0.39 0.29 0.19
0.06 0.06 0.07 0.05 0.04 0.02 0.01 0.00 0.00 0.00 0.00 0.00 0.00 0.00 0.00 0.00 0.00 0.01 0.02 0.03 0.05 0.07 0.09 0.10 0.10 0.12 0.15 0.19 0.24 0.33 0.40 0.47 0.51 0.55 0.65 0.73 0.78 0.78 0.69 0.64 0.52 0.45 0.35
0.09 0.09 0.07 0.06 0.05 0.04 0.03 0.02 0.02 0.01 0.00 0.00 0.00 0.00 0.00 0.00 0.00 0.01 0.01 0.01 0.02 0.03 0.05 0.05 0.04 0.04 0.05 0.08 0.10 0.13 0.18 0.28 0.42 0.55 0.64 0.73 0.72 0.65 0.72 0.67 0.61 0.59 0.53
0.08 0.08 0.08 0.09 0.08 0.08 0.06 0.05 0.05 0.04 0.02 0.01 0.01 0.01 0.00 0.00 0.00 0.00 0.00 0.00 0.00 0.00 0.01 0.02 0.01 0.00 0.01 0.03 0.06 0.11 0.11 0.11 0.15 0.35 0.48 0.51 0.48 0.40 0.53 0.67 0.61 0.58 0.58
0.11 0.14 0.16 0.17 0.15 0.14 0.14 0.11 0.09 0.06 0.04 0.03 0.03 0.03 0.02 0.00 0.00 0.00 0.00 0.00 0.00 0.00 0.00 0.00 0.00 0.00 0.00 0.00 0.03 0.07 0.05 0.03 0.05 0.13 0.16 0.16 0.18 0.22 0.29 0.43 0.52 0.46 0.44
0.12 0.17 0.23 0.24 0.20 0.18 0.17 0.14 0.12 0.10 0.07 0.04 0.04 0.06 0.05 0.01 0.00 0.00 0.00 0.00 0.00 0.00 0.00 0.00 0.00 0.00 0.00 0.00 0.03 0.06 0.02 0.01 0.01 0.02 0.03 0.06 0.08 0.10 0.14 0.21 0.30 0.41 0.54
0.17 0.22 0.26 0.25 0.21 0.19 0.17 0.14 0.12 0.12 0.10 0.06 0.06 0.05 0.06 0.03 0.00 0.00 0.00 0.00 0.00 0.00 0.00 0.00 0.00 0.00 0.00 0.00 0.01 0.03 0.03 0.01 0.01 0.00 0.00 0.00 0.01 0.03 0.05 0.07 0.12 0.23 0.38
0.20 0.23 0.30 0.30 0.20 0.16 0.16 0.14 0.12 0.12 0.11 0.08 0.07 0.06 0.06 0.03 0.01 0.00 0.00 0.00 0.00 0.00 0.00 0.00 0.00 0.00 0.00 0.00 0.00 0.00 0.00 0.00 0.00 0.00 0.01 0.01 0.01 0.00 0.00 0.01 0.02 0.07 0.14
0.21 0.22 0.27 0.28 0.21 0.16 0.17 0.16 0.14 0.14 0.14 0.12 0.10 0.10 0.09 0.07 0.03 0.01 0.00 0.00 0.00 0.01 0.01 0.00 0.00 0.00 0.00 0.00 0.00 0.00 0.00 0.00 0.00 0.00 0.00 0.00 0.00 0.00 0.00 0.00 0.00 0.01 0.03
0.22 0.24 0.24 0.25 0.25 0.20 0.17 0.17 0.16 0.14 0.15 0.15 0.15 0.14 0.14 0.13 0.09 0.04 0.01 0.00 0.00 0.01 0.00 0.00 0.00 0.00 0.00 0.00 0.00 0.00 0.00 0.00 0.00 0.00 0.00 0.00 0.00 0.00 0.00 0.00 0.00 0.00 0.00
0.23 0.26 0.29 0.28 0.30 0.27 0.23 0.22 0.22 0.19 0.18 0.19 0.19 0.16 0.16 0.16 0.14 0.12 0.09 0.04 0.01 0.01 0.01 0.01 0.00 0.00 0.00 0.00 0.00 0.00 0.00 0.00 0.00 0.00 0.00 0.00 0.00 0.00 0.00 0.00 0.00 0.01 0.00
0.21 0.28 0.34 0.33 0.32 0.29 0.24 0.22 0.23 0.23 0.21 0.22 0.20 0.17 0.15 0.15 0.13 0.11 0.10 0.08 0.05 0.03 0.02 0.02 0.01 0.01 0.01 0.00 0.00 0.00 0.00 0.00 0.00 0.00 0.00 0.00 0.00 0.00 0.00 0.00 0.00 0.00 0.00
0.20 0.20 0.22 0.24 0.24 0.24 0.22 0.17 0.13 0.11 0.10 0.10 0.11 0.10 0.09 0.07 0.05 0.05 0.05 0.05 0.05 0.05 0.05 0.05 0.05 0.03 0.02 0.01 0.01 0.00 0.00 0.00 0.00 0.00 0.00 0.00 0.00 0.00 0.00 0.00 0.00 0.00 0.00
0.07 0.08 0.09 0.10 0.11 0.12 0.14 0.14 0.11 0.07 0.04 0.03 0.03 0.02 0.02 0.02 0.02 0.02 0.02 0.03 0.04 0.04 0.06 0.09 0.09 0.07 0.04 0.02 0.01 0.01 0.01 0.01 0.01 0.01 0.01 0.01 0.01 0.01 0.01 0.01 0.01 0.01 0.01
0.01 0.01 0.02 0.04 0.03 0.04 0.04 0.05 0.05 0.05 0.03 0.01 0.00 0.00 0.00 0.00 0.00 0.00 0.00 0.01 0.02 0.02 0.04 0.08 0.11 0.10 0.07 0.05 0.03 0.02 0.01 0.01 0.01 0.01 0.01 0.01 0.01 0.01 0.01 0.01 0.01 0.01 0.01
0.00 0.00 0.00 0.00 0.01 0.01 0.01 0.01 0.01 0.01 0.01 0.01 0.00 0.00 0.00 0.00 0.00 0.00 0.00 0.00 0.00 0.01 0.02 0.03 0.05 0.06 0.06 0.06 0.05 0.04 0.03 0.03 0.02 0.02 0.02 0.02 0.02 0.02 0.02 0.02 0.02 0.02 0.02
0.00 0.00 0.00 0.00 0.00 0.00 0.00 0.00 0.00 0.00 0.00 0.00 0.00 0.00 0.00 0.00 0.00 0.00 0.00 0.00 0.00 0.00 0.00 0.01 0.01 0.02 0.03 0.04 0.04 0.04 0.03 0.03 0.04 0.04 0.03 0.03 0.03 0.03 0.03 0.02 0.01 0.02 0.02
0.00 0.00 0.00 0.00 0.00 0.00 0.00 0.00 0.00 0.00 0.00 0.00 0.00 0.00 0.00 0.00 0.00 0.00 0.00 0.00 0.00 0.00 0.00 0.00 0.01 0.01 0.01 0.02 0.02 0.02 0.03 0.03 0.03 0.03 0.03 0.03 0.03 0.02 0.02 0.02 0.01 0.02 0.03
0.00 0.00 0.00 0.00 0.00 0.00 0.00 0.00 0.00 0.00 0.00 0.00 0.00 0.00 0.00 0.00 0.00 0.00 0.00 0.00 0.00 0.00 0.00 0.00 0.00 0.00 0.00 0.00 0.01 0.02 0.02 0.01 0.02 0.02 0.03 0.03 0.04 0.04 0.04 0.04 0.03 0.03 0.03
0.00 0.00 0.00 0.00 0.00 0.00 0.00 0.00 0.00 0.00 0.00 0.00 0.00 0.00 0.00 0.00 0.00 0.00 0.00 0.00 0.00 0.00 0.00 0.00 0.00 0.00 0.00 0.00 0.00 0.00 0.00 0.00 0.00 0.00 0.01 0.01 0.02 0.03 0.04 0.04 0.05 0.06 0.06
0.00 0.00 0.00 0.00 0.00 0.00 0.00 0.00 0.00 0.00 0.00 0.00 0.00 0.00 0.00 0.00 0.00 0.00 0.00 0.00 0.00 0.00 0.00 0.00 0.00 0.00 0.00 0.00 0.00 0.00 0.00 0.00 0.00 0.00 0.00 0.00 0.01 0.02 0.02 0.03 0.04 0.05 0.06
0.00 0.00 0.00 0.00 0.00 0.00 0.00 0.00 0.00 0.00 0.00 0.00 0.00 0.00 0.00 0.00 0.00 0.00 0.00 0.00 0.00 0.00 0.00 0.00 0.00 0.00 0.00 0.00 0.01 0.01 0.00 0.00 0.00 0.00 0.00 0.00 0.01 0.01 0.02 0.03 0.04 0.04 0.05
0.00 0.00 0.00 0.00 0.00 0.00 0.00 0.00 0.00 0.00 0.00 0.00 0.00 0.00 0.00 0.00 0.00 0.00 0.00 0.00 0.00 0.00 0.00 0.00 0.00 0.00 0.01 0.01 0.01 0.00 0.00 0.00 0.00 0.00 0.00 0.01 0.01 0.02 0.02 0.02 0.02 0.02 0.03

GEFSGL_prec_meanprecacc_030.txt.gz
Total_Precipitation_Accumulation
0.24 0.17 0.13 0.10 0.08 0.06 0.05 0.05 0.04 0.03 0.02 0.02 0.03 0.04 0.05 0.05 0.05 0.06 0.11 0.21 0.25 0.25 0.33 0.33 0.35 0.40 0.44 0.47 0.50 0.53 0.67 0.80 0.77 0.83 0.73 0.54 0.36 0.23 0.14 0.08 0.04 0.01 0.00
0.20 0.14 0.08 0.06 0.04 0.03 0.02 0.01 0.00 0.00 0.00 0.01 0.01 0.02 0.02 0.02 0.02 0.02 0.03 0.06 0.13 0.19 0.28 0.36 0.42 0.49 0.50 0.45 0.47 0.53 0.68 0.85 0.93 1.08 1.17 0.91 0.62 0.37 0.27 0.15 0.07 0.03 0.01
0.13 0.09 0.06 0.04 0.02 0.01 0.00 0.00 0.00 0.00 0.00 0.00 0.00 0.00 0.00 0.00 0.01 0.01 0.02 0.03 0.08 0.13 0.24 0.36 0.40 0.41 0.44 0.44 0.49 0.54 0.61 0.72 0.82 0.96 1.14 0.97 0.76 0.51 0.48 0.34 0.18 0.14 0.07
0.08 0.06 0.05 0.04 0.03 0.02 0.01 0.00 0.00 0.00 0.00 0.00 0.00 0.00 0.00 0.00 0.01 0.02 0.02 0.04 0.06 0.10 0.16 0.23 0.27 0.28 0.33 0.36 0.39 0.47 0.53 0.56 0.61 0.70 0.85 0.93 0.95 0.86 0.77 0.62 0.48 0.35 0.23
0.10 0.10 0.09 0.07 0.05 0.03 0.01 0.01 0.01 0.00 0.00 0.00 0.00 0.00 0.00 0.00 0.00 0.01 0.02 0.03 0.05 0.07 0.09 0.11 0.10 0.12 0.15 0.19 0.24 0.33 0.41 0.48 0.54 0.62 0.76 0.90 0.99 1.00 0.89 0.84 0.69 0.58 0.41
0.12 0.12 0.11 0.09 0.06 0.04 0.04 0.03 0.02 0.01 0.01 0.00 0.00 0.00 0.00 0.00 0.00 0.01 0.01 0.01 0.02 0.03 0.05 0.05 0.04 0.04 0.05 0.08 0.10 0.13 0.19 0.29 0.44 0.60 0.74 0.90 0.95 0.92 1.01 0.95 0.85 0.77 0.64
0.11 0.10 0.10 0.10 0.09 0.08 0.06 0.06 0.06 0.04 0.03 0.02 0.01 0.01 0.01 0.00 0.00 0.00 0.00 0.00 0.00 0.00 0.01 0.02 0.01 0.00 0.01 0.03 0.06 0.11 0.11 0.11 0.16 0.38 0.54 0.61 0.62 0.59 0.77 0.95 0.87 0.79 0.75
0.15 0.17 0.17 0.18 0.16 0.14 0.14 0.11 0.09 0.06 0.04 0.04 0.03 0.03 0.02 0.00 0.00 0.00 0.00 0.00 0.00 0.00 0.00 0.00 0.00 0.00 0.00 0.01 0.03 0.08 0.05 0.03 0.06 0.14 0.18 0.19 0.24 0.33 0.45 0.66 0.79 0.71 0.65
0.15 0.19 0.24 0.25 0.21 0.18 0.18 0.14 0.12 0.10 0.07 0.04 0.04 0.06 0.05 0.01 0.00 0.00 0.00 0.00 0.00 0.00 0.00 0.00 0.00 0.00 0.00 0.00 0.04 0.07 0.03 0.01 0.01 0.02 0.03 0.06 0.10 0.13 0.19 0.30 0.44 0.61 0.74
0.22 0.25 0.28 0.26 0.22 0.19 0.18 0.15 0.12 0.12 0.10 0.06 0.06 0.05 0.06 0.03 0.00 0.00 0.00 0.00 0.00 0.00 0.00 0.00 0.00 0.00 0.00 0.00 0.02 0.04 0.03 0.02 0.01 0.01 0.01 0.01 0.02 0.03 0.06 0.10 0.18 0.32 0.50
0.23 0.25 0.32 0.31 0.21 0.16 0.16 0.15 0.13 0.12 0.12 0.09 0.07 0.06 0.06 0.03 0.01 0.00 0.00 0.00 0.00 0.00 0.00 0.00 0.00 0.00 0.00 0.00 0.00 0.00 0.00 0.00 0.00 0.01 0.01 0.02 0.01 0.01 0.01 0.01 0.03 0.10 0.19
0.23 0.23 0.28 0.29 0.21 0.17 0.18 0.17 0.14 0.14 0.15 0.12 0.11 0.10 0.09 0.07 0.03 0.01 0.00 0.00 0.00 0.01 0.01 0.00 0.00 0.00 0.00 0.00 0.00 0.00 0.00 0.00 0.00 0.00 0.00 0.01 0.01 0.01 0.01 0.00 0.01 0.02 0.04
0.23 0.25 0.25 0.26 0.26 0.21 0.18 0.18 0.16 0.14 0.16 0.15 0.15 0.14 0.14 0.13 0.10 0.04 0.01 0.00 0.00 0.01 0.01 0.00 0.00 0.00 0.00 0.00 0.00 0.00 0.00 0.00 0.00 0.00 0.01 0.00 0.00 0.00 0.00 0.00 0.00 0.01 0.01
0.24 0.27 0.30 0.29 0.30 0.27 0.23 0.22 0.22 0.20 0.19 0.19 0.19 0.16 0.16 0.17 0.14 0.12 0.09 0.04 0.02 0.01 0.01 0.01 0.00 0.00 0.00 0.00 0.00 0.00 0.00 0.00 0.00 0.01 0.02 0.02 0.01 0.00 0.00 0.01 0.01 0.01 0.01
0.21 0.29 0.35 0.34 0.33 0.29 0.25 0.22 0.23 0.23 0.21 0.22 0.20 0.17 0.15 0.15 0.14 0.11 0.11 0.08 0.05 0.03 0.03 0.02 0.02 0.02 0.02 0.01 0.01 0.00 0.00 0.01 0.00 0.00 0.01 0.01 0.02 0.01 0.01 0.01 0.01 0.01 0.01
0.21 0.20 0.23 0.24 0.25 0.25 0.22 0.17 0.13 0.11 0.10 0.10 0.11 0.10 0.09 0.07 0.05 0.05 0.06 0.06 0.05 0.05 0.05 0.06 0.06 0.04 0.03 0.03 0.02 0.02 0.02 0.01 0.01 0.01 0.02 0.02 0.02 0.03 0.02 0.02 0.01 0.02 0.02
0.08 0.08 0.09 0.10 0.11 0.12 0.14 0.14 0.11 0.07 0.04 0.03 0.03 0.02 0.02 0.02 0.02 0.02 0.02 0.03 0.04 0.04 0.06 0.09 0.10 0.08 0.06 0.04 0.03 0.02 0.03 0.03 0.03 0.03 0.03 0.04 0.04 0.04 0.04 0.04 0.03 0.04 0.04
0.01 0.01 0.02 0.04 0.03 0.04 0.04 0.05 0.05 0.05 0.03 0.01 0.00 0.00 0.00 0.00 0.00 0.00 0.00 0.01 0.02 0.02 0.04 0.08 0.11 0.11 0.08 0.06 0.04 0.02 0.02 0.02 0.02 0.03 0.04 0.04 0.05 0.05 0.06 0.05 0.04 0.04 0.05
0.00 0.00 0.00 0.00 0.01 0.01 0.01 0.01 0.01 0.01 0.01 0.01 0.00 0.00 0.00 0.00 0.00 0.00 0.00 0.00 0.00 0.01 0.02 0.03 0.05 0.06 0.07 0.07 0.06 0.04 0.04 0.03 0.03 0.03 0.04 0.05 0.06 0.07 0.08 0.09 0.08 0.07 0.06
0.00 0.00 0.00 0.00 0.00 0.00 0.00 0.00 0.00 0.00 0.00 0.00 0.00 0.00 0.00 0.00 0.00 0.00 0.00 0.00 0.00 0.00 0.01 0.01 0.02 0.02 0.03 0.04 0.05 0.04 0.04 0.04 0.04 0.04 0.04 0.05 0.06 0.07 0.09 0.10 0.11 0.10 0.09
0.00 0.00 0.00 0.00 0.00 0.00 0.00 0.00 0.00 0.00 0.00 0.00 0.00 0.00 0.00 0.00 0.00 0.00 0.00 0.00 0.00 0.00 0.00 0.00 0.01 0.01 0.01 0.02 0.02 0.03 0.03 0.03 0.03 0.03 0.03 0.04 0.05 0.05 0.06 0.07 0.09 0.09 0.09
0.00 0.00 0.00 0.00 0.00 0.00 0.00 0.00 0.00 0.00 0.00 0.00 0.00 0.00 0.00 0.00 0.00 0.00 0.00 0.00 0.00 0.00 0.00 0.00 0.00 0.00 0.00 0.00 0.01 0.02 0.02 0.02 0.02 0.03 0.03 0.03 0.04 0.05 0.05 0.06 0.07 0.08 0.08
0.00 0.00 0.00 0.00 0.00 0.00 0.00 0.00 0.00 0.00 0.00 0.00 0.00 0.00 0.00 0.00 0.00 0.00 0.00 0.00 0.00 0.00 0.00 0.00 0.00 0.00 0.00 0.00 0.00 0.00 0.00 0.00 0.00 0.00 0.01 0.01 0.02 0.03 0.04 0.05 0.06 0.07 0.08
0.00 0.00 0.00 0.00 0.00 0.00 0.00 0.00 0.00 0.00 0.00 0.00 0.00 0.00 0.00 0.00 0.00 0.00 0.00 0.00 0.00 0.00 0.00 0.00 0.00 0.00 0.00 0.00 0.00 0.00 0.00 0.00 0.00 0.00 0.00 0.00 0.01 0.02 0.02 0.03 0.04 0.05 0.06
0.00 0.00 0.00 0.00 0.00 0.00 0.00 0.00 0.00 0.00 0.00 0.00 0.00 0.00 0.00 0.00 0.00 0.00 0.00 0.00 0.00 0.00 0.00 0.00 0.00 0.00 0.00 0.00 0.01 0.01 0.00 0.00 0.00 0.00 0.00 0.00 0.01 0.01 0.02 0.03 0.04 0.04 0.05
0.00 0.00 0.00 0.00 0.00 0.00 0.00 0.00 0.00 0.00 0.00 0.00 0.00 0.00 0.01 0.01 0.01 0.00 0.00 0.00 0.00 0.00 0.00 0.00 0.00 0.00 0.01 0.01 0.01 0.00 0.00 0.00 0.00 0.00 0.00 0.01 0.01 0.02 0.02 0.02 0.02 0.02 0.03

GEFSGL_prec_meanprecacc_036.txt.gz
Total_Precipitation_Accumulation
0.56 0.50 0.48 0.42 0.38 0.32 0.26 0.19 0.14 0.11 0.08 0.05 0.05 0.05 0.05 0.05 0.05 0.06 0.11 0.21 0.25 0.25 0.33 0.33 0.35 0.40 0.44 0.47 0.51 0.54 0.69 0.82 0.79 0.84 0.74 0.55 0.37 0.25 0.17 0.12 0.07 0.02 0.00
0.56 0.46 0.38 0.32 0.24 0.17 0.12 0.07 0.04 0.03 0.02 0.02 0.02 0.02 0.02 0.02 0.02 0.02 0.03 0.06 0.13 0.19 0.28 0.36 0.42 0.50 0.50 0.45 0.47 0.53 0.69 0.85 0.94 1.09 1.18 0.92 0.64 0.40 0.31 0.20 0.11 0.05 0.02
0.46 0.40 0.32 0.24 0.16 0.09 0.04 0.02 0.01 0.01 0.00 0.00 0.00 0.00 0.00 0.00 0.01 0.01 0.02 0.03 0.08 0.13 0.24 0.36 0.40 0.41 0.44 0.44 0.49 0.54 0.61 0.72 0.83 0.97 1.14 0.98 0.78 0.54 0.52 0.39 0.24 0.18 0.09
0.32 0.32 0.28 0.21 0.15 0.08 0.03 0.01 0.00 0.00 0.00 0.00 0.00 0.00 0.00 0.00 0.01 0.02 0.02 0.04 0.06 0.10 0.16 0.23 0.27 0.28 0.33 0.36 0.39 0.47 0.53 0.56 0.61 0.70 0.86 0.94 0.96 0.89 0.82 0.70 0.57 0.42 0.28
0.28 0.30 0.27 0.20 0.13 0.08 0.03 0.01 0.01 0.00 0.00 0.00 0.00 0.00 0.00 0.00 0.00 0.01 0.02 0.03 0.05 0.07 0.09 0.11 0.10 0.12 0.15 0.19 0.24 0.33 0.41 0.49 0.55 0.62 0.76 0.90 1.00 1.04 0.96 0.94 0.82 0.69 0.50
0.24 0.26 0.24 0.18 0.11 0.07 0.05 0.03 0.02 0.01 0.01 0.00 0.00 0.00 0.00 0.00 0.00 0.01 0.01 0.01 0.02 0.03 0.05 0.05 0.04 0.04 0.05 0.08 0.10 0.13 0.19 0.29 0.44 0.61 0.74 0.91 0.96 0.95 1.07 1.05 0.98 0.91 0.78
0.18 0.18 0.20 0.21 0.17 0.12 0.08 0.06 0.06 0.04 0.03 0.02 0.01 0.01 0.01 0.00 0.00 0.00 0.00 0.00 0.00 0.00 0.01 0.02 0.01 0.00 0.01 0.03 0.06 0.11 0.11 0.11 0.16 0.38 0.54 0.62 0.63 0.62 0.82 1.02 0.97 0.93 0.95
0.18 0.21 0.22 0.23 0.20 0.17 0.16 0.13 0.09 0.06 0.04 0.04 0.03 0.03 0.02 0.00 0.00 0.00 0.00 0.00 0.00 0.00 0.00 0.00 0.00 0.00 0.00 0.01 0.03 0.08 0.05 0.03 0.06 0.14 0.18 0.19 0.24 0.34 0.49 0.74 0.92 0.86 0.86
0.17 0.22 0.27 0.28 0.22 0.19 0.18 0.15 0.12 0.11 0.07 0.04 0.04 0.06 0.05 0.01 0.00 0.00 0.00 0.00 0.00 0.00 0.00 0.00 0.00 0.00 0.00 0.00 0.04 0.07 0.03 0.01 0.01 0.02 0.04 0.06 0.10 0.13 0.21 0.35 0.55 0.81 1.01
0.24 0.28 0.30 0.28 0.24 0.20 0.18 0.15 0.12 0.12 0.10 0.06 0.06 0.05 0.06 0.03 0.00 0.00 0.00 0.00 0.00 0.00 0.00 0.00 0.00 0.00 0.00 0.00 0.02 0.04 0.03 0.02 0.01 0.01 0.01 0.01 0.02 0.04 0.07 0.12 0.24 0.45 0.71
0.25 0.28 0.33 0.33 0.22 0.17 0.16 0.15 0.13 0.12 0.12 0.09 0.07 0.06 0.06 0.03 0.01 0.00 0.00 0.00 0.00 0.00 0.00 0.00 0.00 0.00 0.00 0.00 0.00 0.00 0.00 0.00 0.01 0.01 0.02 0.02 0.02 0.01 0.01 0.02 0.04 0.13 0.25
0.24 0.24 0.29 0.30 0.22 0.17 0.18 0.17 0.14 0.14 0.15 0.12 0.11 0.10 0.09 0.07 0.03 0.01 0.00 0.00 0.00 0.01 0.01 0.00 0.00 0.00 0.00 0.00 0.00 0.00 0.00 0.00 0.00 0.01 0.01 0.01 0.02 0.01 0.01 0.01 0.02 0.03 0.06
0.24 0.25 0.25 0.26 0.26 0.21 0.18 0.18 0.16 0.14 0.16 0.15 0.15 0.14 0.14 0.13 0.10 0.04 0.01 0.00 0.00 0.01 0.01 0.01 0.01 0.01 0.00 0.00 0.00 0.00 0.00 0.00 0.00 0.01 0.01 0.01 0.01 0.01 0.01 0.01 0.01 0.01 0.02
0.24 0.27 0.30 0.29 0.30 0.27 0.23 0.22 0.22 0.20 0.19 0.19 0.19 0.16 0.16 0.17 0.14 0.12 0.09 0.04 0.02 0.01 0.01 0.01 0.01 0.01 0.01 0.01 0.01 0.01 0.00 0.00 0.00 0.01 0.02 0.03 0.02 0.01 0.01 0.01 0.01 0.02 0.02
0.21 0.29 0.35 0.34 0.33 0.29 0.25 0.22 0.23 0.23 0.21 0.22 0.20 0.17 0.15 0.15 0.14 0.11 0.11 0.08 0.05 0.03 0.03 0.02 0.02 0.02 0.02 0.02 0.02 0.01 0.01 0.01 0.01 0.01 0.02 0.02 0.03 0.03 0.03 0.02 0.02 0.02 0.02
0.21 0.20 0.23 0.24 0.25 0.25 0.22 0.17 0.13 0.11 0.11 0.10 0.11 0.10 0.09 0.07 0.05 0.05 0.06 0.06 0.05 0.05 0.05 0.06 0.06 0.05 0.03 0.03 0.02 0.02 0.02 0.02 0.02 0.02 0.03 0.03 0.03 0.03 0.03 0.03 0.03 0.03 0.02
0.08 0.08 0.09 0.10 0.11 0.12 0.14 0.14 0.11 0.07 0.04 0.03 0.03 0.02 0.02 0.02 0.02 0.02 0.02 0.03 0.04 0.04 0.06 0.09 0.10 0.08 0.06 0.04 0.03 0.03 0.03 0.03 0.03 0.03 0.04 0.05 0.05 0.05 0.05 0.04 0.05 0.05 0.06
0.01 0.01 0.02 0.04 0.03 0.04 0.04 0.05 0.05 0.05 0.03 0.01 0.00 0.00 0.00 0.00 0.00 0.00 0.00 0.01 0.02 0.02 0.04 0.08 0.11 0.11 0.08 0.06 0.04 0.03 0.03 0.03 0.03 0.03 0.05 0.05 0.05 0.06 0.07 0.06 0.05 0.05 0.07
0.00 0.00 0.00 0.00 0.01 0.01 0.01 0.01 0.01 0.01 0.01 0.01 0.00 0.00 0.00 0.00 0.00 0.00 0.00 0.00 0.00 0.01 0.02 0.03 0.05 0.06 0.07 0.07 0.06 0.05 0.04 0.04 0.03 0.03 0.04 0.05 0.06 0.07 0.09 0.10 0.10 0.08 0.07
0.00 0.00 0.00 0.00 0.00 0.00 0.00 0.00 0.00 0.00 0.00 0.00 0.00 0.00 0.00 0.00 0.00 0.00 0.00 0.00 0.00 0.00 0.01 0.01 0.02 0.02 0.03 0.04 0.05 0.04 0.04 0.04 0.04 0.04 0.04 0.05 0.06 0.07 0.09 0.11 0.12 0.12 0.11
0.00 0.00 0.00 0.00 0.00 0.00 0.00 0.00 0.00 0.00 0.00 0.00 0.00 0.00 0.00 0.00 0.00 0.00 0.00 0.00 0.00 0.00 0.00 0.00 0.01 0.01 0.01 0.02 0.02 0.03 0.03 0.03 0.03 0.03 0.03 0.04 0.05 0.05 0.06 0.07 0.09 0.09 0.10
0.00 0.00 0.00 0.00 0.00 0.00 0.00 0.00 0.00 0.00 0.00 0.00 0.00 0.00 0.00 0.00 0.00 0.00 0.00 0.00 0.00 0.00 0.00 0.00 0.00 0.00 0.00 0.00 0.01 0.02 0.02 0.02 0.02 0.03 0.03 0.03 0.04 0.05 0.05 0.06 0.07 0.08 0.08
0.00 0.00 0.00 0.00 0.00 0.00 0.00 0.00 0.00 0.00 0.00 0.00 0.00 0.00 0.00 0.00 0.00 0.00 0.00 0.00 0.00 0.00 0.00 0.00 0.00 0.00 0.00 0.00 0.00 0.00 0.00 0.00 0.00 0.00 0.01 0.01 0.02 0.03 0.04 0.05 0.06 0.07 0.08
0.00 0.00 0.00 0.00 0.00 0.00 0.00 0.00 0.00 0.00 0.00 0.00 0.00 0.00 0.00 0.00 0.00 0.00 0.00 0.00 0.00 0.00 0.00 0.00 0.00 0.00 0.00 0.00 0.00 0.00 0.00 0.00 0.00 0.00 0.00 0.00 0.01 0.02 0.02 0.03 0.04 0.05 0.06
0.00 0.00 0.00 0.00 0.00 0.00 0.00 0.00 0.00 0.00 0.00 0.00 0.00 0.00 0.00 0.00 0.00 0.00 0.00 0.00 0.00 0.00 0.00 0.00 0.00 0.00 0.00 0.00 0.01 0.01 0.00 0.00 0.00 0.00 0.00 0.00 0.01 0.01 0.02 0.03 0.04 0.04 0.05
0.00 0.00 0.00 0.00 0.00 0.00 0.00 0.00 0.00 0.00 0.00 0.00 0.00 0.00 0.01 0.01 0.01 0.01 0.01 0.01 0.01 0.01 0.01 0.01 0.01 0.01 0.01 0.01 0.01 0.01 0.00 0.00 0.00 0.00 0.00 0.01 0.01 0.02 0.02 0.02 0.02 0.02 0.03

GEFSGL_prec_meanprecacc_042.txt.gz
Total_Precipitation_Accumulation
0.67 0.66 0.67 0.66 0.66 0.65 0.65 0.61 0.59 0.61 0.60 0.53 0.43 0.32 0.22 0.15 0.12 0.11 0.14 0.23 0.26 0.26 0.34 0.34 0.36 0.41 0.45 0.48 0.52 0.54 0.70 0.85 0.81 0.84 0.74 0.56 0.39 0.28 0.21 0.16 0.10 0.05 0.04
0.67 0.66 0.66 0.66 0.63 0.58 0.54 0.47 0.40 0.40 0.38 0.31 0.25 0.19 0.14 0.09 0.07 0.04 0.04 0.07 0.14 0.20 0.28 0.37 0.42 0.50 0.51 0.46 0.48 0.54 0.70 0.87 0.95 1.10 1.19 0.94 0.67 0.45 0.37 0.25 0.14 0.08 0.06
0.62 0.66 0.68 0.64 0.57 0.51 0.47 0.42 0.36 0.30 0.25 0.20 0.15 0.10 0.07 0.05 0.04 0.03 0.03 0.04 0.08 0.14 0.24 0.36 0.41 0.42 0.44 0.45 0.50 0.55 0.62 0.73 0.84 0.98 1.16 1.00 0.82 0.60 0.58 0.45 0.29 0.24 0.13
0.53 0.64 0.72 0.74 0.68 0.59 0.46 0.38 0.31 0.22 0.16 0.12 0.09 0.06 0.04 0.03 0.03 0.03 0.03 0.04 0.07 0.10 0.16 0.23 0.28 0.28 0.33 0.37 0.39 0.47 0.54 0.56 0.61 0.71 0.87 0.95 0.99 0.93 0.87 0.75 0.63 0.50 0.37
0.51 0.69 0.77 0.71 0.61 0.54 0.44 0.33 0.25 0.16 0.11 0.07 0.04 0.03 0.02 0.01 0.01 0.02 0.02 0.03 0.05 0.08 0.10 0.11 0.10 0.12 0.15 0.19 0.24 0.33 0.41 0.49 0.55 0.63 0.77 0.91 1.01 1.06 0.99 0.98 0.87 0.78 0.62
0.42 0.51 0.54 0.54 0.52 0.43 0.37 0.27 0.18 0.13 0.09 0.05 0.03 0.01 0.01 0.00 0.00 0.01 0.01 0.01 0.02 0.03 0.05 0.05 0.04 0.04 0.05 0.08 0.10 0.13 0.19 0.29 0.44 0.61 0.75 0.92 0.98 0.96 1.09 1.07 1.03 0.99 0.91
0.31 0.33 0.39 0.46 0.46 0.36 0.26 0.21 0.17 0.12 0.07 0.04 0.02 0.01 0.01 0.00 0.00 0.00 0.00 0.00 0.00 0.00 0.01 0.02 0.01 0.00 0.01 0.03 0.06 0.11 0.11 0.11 0.16 0.38 0.55 0.63 0.64 0.63 0.83 1.03 1.01 1.00 1.07
0.28 0.33 0.36 0.42 0.41 0.34 0.28 0.23 0.17 0.11 0.08 0.06 0.05 0.04 0.02 0.00 0.00 0.00 0.00 0.00 0.00 0.00 0.00 0.00 0.00 0.00 0.00 0.01 0.03 0.08 0.05 0.04 0.06 0.14 0.18 0.20 0.25 0.34 0.49 0.75 0.95 0.93 0.99
0.25 0.32 0.39 0.41 0.35 0.29 0.26 0.21 0.17 0.14 0.09 0.05 0.05 0.06 0.05 0.01 0.00 0.00 0.00 0.00 0.00 0.00 0.00 0.00 0.00 0.00 0.00 0.00 0.04 0.07 0.04 0.01 0.01 0.02 0.04 0.06 0.10 0.13 0.21 0.36 0.58 0.87 1.13
0.29 0.35 0.40 0.38 0.32 0.27 0.23 0.19 0.16 0.15 0.12 0.07 0.06 0.06 0.06 0.03 0.00 0.00 0.00 0.00 0.01 0.00 0.00 0.00 0.00 0.00 0.00 0.00 0.02 0.04 0.03 0.02 0.02 0.02 0.02 0.02 0.04 0.05 0.07 0.14 0.26 0.49 0.79
0.29 0.33 0.39 0.40 0.29 0.23 0.20 0.19 0.16 0.14 0.14 0.10 0.07 0.06 0.07 0.04 0.01 0.00 0.00 0.00 0.00 0.00 0.00 0.00 0.00 0.00 0.00 0.00 0.00 0.00 0.00 0.00 0.01 0.02 0.03 0.03 0.03 0.03 0.03 0.04 0.07 0.16 0.32
0.28 0.29 0.34 0.35 0.25 0.20 0.21 0.20 0.17 0.17 0.16 0.13 0.11 0.10 0.09 0.07 0.03 0.01 0.00 0.00 0.00 0.01 0.01 0.00 0.00 0.00 0.00 0.00 0.00 0.00 0.00 0.00 0.01 0.02 0.02 0.02 0.03 0.02 0.02 0.02 0.04 0.06 0.12
0.28 0.31 0.31 0.30 0.29 0.24 0.22 0.21 0.18 0.16 0.17 0.16 0.16 0.15 0.14 0.13 0.10 0.04 0.01 0.00 0.00 0.01 0.01 0.01 0.01 0.01 0.00 0.00 0.00 0.00 0.00 0.00 0.01 0.01 0.02 0.02 0.02 0.01 0.02 0.03 0.04 0.05 0.06
0.28 0.32 0.34 0.33 0.33 0.30 0.27 0.26 0.24 0.21 0.19 0.20 0.19 0.17 0.16 0.17 0.14 0.12 0.09 0.04 0.02 0.01 0.02 0.01 0.01 0.01 0.01 0.01 0.01 0.01 0.00 0.01 0.01 0.01 0.03 0.03 0.03 0.02 0.02 0.03 0.04 0.06 0.07
0.26 0.33 0.38 0.37 0.35 0.32 0.27 0.25 0.25 0.24 0.22 0.23 0.21 0.17 0.15 0.16 0.14 0.11 0.11 0.08 0.05 0.03 0.03 0.02 0.02 0.02 0.02 0.02 0.02 0.01 0.01 0.01 0.01 0.02 0.02 0.03 0.04 0.04 0.04 0.04 0.04 0.07 0.09
0.24 0.24 0.26 0.27 0.27 0.26 0.23 0.18 0.13 0.12 0.11 0.10 0.11 0.11 0.09 0.07 0.06 0.05 0.06 0.06 0.05 0.05 0.05 0.06 0.06 0.05 0.04 0.03 0.03 0.02 0.03 0.02 0.02 0.03 0.04 0.04 0.04 0.04 0.04 0.04 0.04 0.05 0.07
0.10 0.11 0.11 0.12 0.13 0.13 0.14 0.15 0.12 0.07 0.04 0.03 0.03 0.02 0.02 0.02 0.02 0.02 0.02 0.03 0.04 0.04 0.06 0.09 0.10 0.08 0.06 0.04 0.03 0.03 0.04 0.04 0.04 0.04 0.06 0.07 0.06 0.06 0.07 0.06 0.06 0.07 0.08
0.03 0.02 0.04 0.05 0.05 0.05 0.05 0.05 0.06 0.05 0.03 0.01 0.00 0.00 0.00 0.00 0.00 0.00 0.00 0.01 0.02 0.02 0.04 0.08 0.11 0.11 0.08 0.06 0.04 0.03 0.03 0.03 0.03 0.04 0.06 0.06 0.06 0.07 0.08 0.08 0.06 0.06 0.08
0.01 0.02 0.01 0.01 0.02 0.01 0.01 0.01 0.02 0.02 0.02 0.01 0.00 0.00 0.00 0.00 0.00 0.00 0.00 0.00 0.00 0.01 0.02 0.03 0.05 0.06 0.07 0.07 0.06 0.05 0.04 0.04 0.03 0.03 0.04 0.06 0.06 0.08 0.09 0.11 0.10 0.09 0.08
0.00 0.01 0.01 0.01 0.01 0.00 0.00 0.00 0.00 0.00 0.00 0.00 0.00 0.00 0.00 0.00 0.00 0.00 0.00 0.00 0.00 0.00 0.01 0.01 0.02 0.02 0.03 0.04 0.05 0.04 0.04 0.04 0.04 0.04 0.04 0.05 0.06 0.08 0.10 0.11 0.12 0.12 0.11
0.00 0.00 0.00 0.00 0.01 0.01 0.00 0.00 0.00 0.00 0.00 0.00 0.00 0.00 0.00 0.00 0.00 0.00 0.00 0.00 0.00 0.00 0.00 0.00 0.01 0.01 0.01 0.02 0.02 0.03 0.03 0.03 0.03 0.03 0.03 0.04 0.05 0.06 0.06 0.08 0.09 0.10 0.11
0.00 0.00 0.00 0.00 0.00 0.00 0.00 0.00 0.00 0.00 0.00 0.00 0.00 0.00 0.00 0.00 0.00 0.00 0.00 0.00 0.00 0.00 0.00 0.00 0.00 0.00 0.00 0.00 0.01 0.02 0.02 0.02 0.02 0.03 0.03 0.03 0.04 0.05 0.06 0.06 0.07 0.08 0.08
0.00 0.00 0.00 0.00 0.00 0.00 0.00 0.00 0.00 0.00 0.00 0.00 0.00 0.00 0.00 0.00 0.00 0.00 0.00 0.00 0.00 0.00 0.00 0.00 0.00 0.00 0.00 0.00 0.00 0.00 0.00 0.00 0.00 0.00 0.01 0.01 0.02 0.03 0.04 0.05 0.06 0.07 0.08
0.00 0.00 0.00 0.00 0.00 0.00 0.00 0.00 0.00 0.00 0.00 0.00 0.00 0.00 0.00 0.00 0.00 0.00 0.00 0.00 0.00 0.00 0.00 0.00 0.00 0.00 0.00 0.00 0.00 0.00 0.00 0.00 0.00 0.00 0.00 0.00 0.01 0.02 0.02 0.03 0.04 0.05 0.06
0.00 0.00 0.00 0.00 0.00 0.00 0.00 0.00 0.00 0.00 0.00 0.00 0.00 0.00 0.00 0.00 0.00 0.00 0.00 0.00 0.00 0.00 0.00 0.00 0.00 0.00 0.00 0.00 0.01 0.01 0.00 0.00 0.00 0.00 0.00 0.01 0.01 0.01 0.02 0.03 0.04 0.04 0.05
0.01 0.00 0.00 0.00 0.00 0.00 0.00 0.00 0.00 0.00 0.00 0.00 0.00 0.00 0.01 0.01 0.01 0.01 0.01 0.01 0.01 0.01 0.01 0.01 0.01 0.01 0.01 0.01 0.01 0.01 0.00 0.00 0.00 0.00 0.01 0.01 0.01 0.02 0.02 0.02 0.02 0.02 0.03

GEFSGL_prec_meanprecacc_048.txt.gz
Total_Precipitation_Accumulation
0.71 0.70 0.74 0.75 0.78 0.80 0.84 0.82 0.84 0.87 0.89 0.85 0.79 0.69 0.59 0.53 0.49 0.47 0.51 0.59 0.58 0.53 0.55 0.52 0.49 0.50 0.52 0.53 0.54 0.56 0.72 0.86 0.82 0.85 0.76 0.58 0.41 0.31 0.24 0.20 0.15 0.10 0.08
0.71 0.70 0.73 0.75 0.74 0.71 0.70 0.67 0.65 0.65 0.65 0.63 0.60 0.59 0.59 0.53 0.46 0.40 0.36 0.36 0.40 0.41 0.45 0.48 0.50 0.56 0.56 0.49 0.50 0.55 0.71 0.88 0.97 1.11 1.21 0.96 0.69 0.48 0.41 0.30 0.18 0.12 0.13
0.65 0.70 0.74 0.73 0.69 0.69 0.70 0.69 0.65 0.60 0.56 0.52 0.47 0.45 0.45 0.48 0.47 0.44 0.39 0.34 0.31 0.29 0.34 0.43 0.45 0.45 0.47 0.46 0.50 0.56 0.63 0.73 0.86 1.00 1.18 1.01 0.84 0.62 0.60 0.48 0.33 0.31 0.19
0.56 0.69 0.80 0.85 0.84 0.82 0.74 0.72 0.68 0.61 0.56 0.48 0.42 0.37 0.34 0.34 0.33 0.31 0.30 0.27 0.22 0.19 0.21 0.26 0.29 0.29 0.33 0.37 0.39 0.47 0.54 0.57 0.62 0.72 0.88 0.97 1.01 0.95 0.89 0.78 0.66 0.56 0.43
0.55 0.75 0.85 0.82 0.75 0.71 0.67 0.68 0.64 0.55 0.48 0.40 0.33 0.31 0.30 0.26 0.22 0.18 0.16 0.14 0.13 0.13 0.12 0.12 0.10 0.12 0.15 0.19 0.24 0.33 0.41 0.49 0.55 0.64 0.77 0.92 1.02 1.07 1.00 0.99 0.90 0.83 0.69
0.49 0.59 0.62 0.65 0.65 0.59 0.54 0.50 0.47 0.44 0.38 0.32 0.27 0.25 0.21 0.16 0.12 0.08 0.06 0.06 0.07 0.07 0.07 0.06 0.04 0.04 0.05 0.08 0.10 0.13 0.19 0.29 0.44 0.62 0.76 0.93 0.99 0.97 1.10 1.09 1.06 1.02 0.95
0.39 0.43 0.49 0.57 0.58 0.49 0.41 0.42 0.42 0.35 0.29 0.24 0.20 0.16 0.11 0.07 0.05 0.03 0.03 0.04 0.03 0.02 0.02 0.02 0.01 0.00 0.01 0.03 0.06 0.11 0.11 0.11 0.16 0.38 0.57 0.64 0.65 0.64 0.84 1.04 1.03 1.04 1.13
0.38 0.43 0.46 0.54 0.53 0.45 0.41 0.39 0.35 0.29 0.23 0.18 0.16 0.12 0.08 0.04 0.03 0.02 0.02 0.03 0.02 0.01 0.01 0.00 0.00 0.00 0.00 0.01 0.04 0.09 0.06 0.04 0.06 0.14 0.19 0.20 0.25 0.34 0.50 0.76 0.98 0.98 1.07
0.35 0.42 0.48 0.53 0.48 0.42 0.38 0.32 0.27 0.25 0.19 0.13 0.13 0.11 0.07 0.03 0.01 0.01 0.01 0.04 0.03 0.01 0.00 0.00 0.00 0.00 0.00 0.00 0.05 0.08 0.06 0.03 0.01 0.02 0.04 0.06 0.10 0.13 0.21 0.37 0.60 0.90 1.18
0.40 0.45 0.49 0.49 0.46 0.41 0.36 0.29 0.23 0.22 0.19 0.13 0.11 0.10 0.07 0.03 0.00 0.00 0.01 0.03 0.04 0.02 0.01 0.00 0.00 0.00 0.00 0.00 0.02 0.05 0.04 0.03 0.02 0.03 0.04 0.04 0.06 0.08 0.08 0.16 0.29 0.53 0.83
0.37 0.43 0.49 0.51 0.42 0.37 0.33 0.28 0.23 0.20 0.20 0.17 0.12 0.10 0.09 0.04 0.01 0.00 0.00 0.02 0.02 0.01 0.01 0.00 0.00 0.00 0.00 0.00 0.00 0.00 0.00 0.00 0.02 0.03 0.04 0.05 0.05 0.05 0.04 0.06 0.11 0.21 0.37
0.34 0.39 0.46 0.49 0.36 0.29 0.31 0.28 0.24 0.23 0.23 0.20 0.17 0.13 0.10 0.07 0.03 0.01 0.00 0.00 0.00 0.02 0.01 0.00 0.00 0.00 0.00 0.00 0.00 0.00 0.00 0.00 0.02 0.03 0.03 0.03 0.04 0.04 0.04 0.03 0.07 0.11 0.19
0.34 0.42 0.43 0.44 0.44 0.40 0.32 0.28 0.25 0.23 0.24 0.22 0.20 0.18 0.15 0.13 0.10 0.04 0.01 0.00 0.00 0.02 0.01 0.01 0.01 0.01 0.00 0.00 0.00 0.00 0.00 0.01 0.01 0.02 0.03 0.03 0.03 0.03 0.03 0.05 0.06 0.08 0.11
0.35 0.43 0.46 0.47 0.47 0.44 0.40 0.36 0.32 0.28 0.27 0.26 0.24 0.21 0.18 0.17 0.15 0.12 0.09 0.04 0.02 0.01 0.02 0.01 0.01 0.01 0.01 0.01 0.01 0.01 0.00 0.01 0.01 0.02 0.03 0.04 0.03 0.03 0.03 0.04 0.06 0.08 0.10
0.32 0.42 0.49 0.50 0.49 0.46 0.39 0.36 0.35 0.34 0.29 0.29 0.27 0.22 0.18 0.17 0.15 0.12 0.11 0.08 0.05 0.03 0.03 0.03 0.02 0.02 0.02 0.03 0.02 0.01 0.01 0.01 0.02 0.02 0.02 0.04 0.05 0.05 0.04 0.04 0.05 0.08 0.11
0.28 0.31 0.35 0.37 0.38 0.38 0.32 0.21 0.15 0.13 0.11 0.11 0.12 0.12 0.11 0.08 0.06 0.05 0.06 0.06 0.05 0.05 0.05 0.06 0.06 0.05 0.04 0.03 0.03 0.02 0.03 0.02 0.03 0.03 0.04 0.04 0.05 0.05 0.05 0.05 0.05 0.06 0.08
0.15 0.16 0.18 0.19 0.21 0.22 0.23 0.19 0.12 0.07 0.04 0.03 0.03 0.02 0.02 0.02 0.02 0.02 0.02 0.03 0.04 0.04 0.06 0.09 0.10 0.08 0.06 0.04 0.03 0.03 0.04 0.04 0.04 0.04 0.06 0.07 0.07 0.06 0.07 0.06 0.06 0.07 0.09
0.12 0.07 0.08 0.11 0.11 0.11 0.11 0.11 0.08 0.06 0.03 0.01 0.00 0.00 0.00 0.00 0.00 0.00 0.00 0.01 0.02 0.02 0.04 0.08 0.11 0.11 0.08 0.06 0.04 0.03 0.03 0.03 0.03 0.04 0.06 0.06 0.06 0.07 0.08 0.08 0.06 0.06 0.08
0.15 0.07 0.03 0.04 0.05 0.04 0.04 0.05 0.04 0.03 0.02 0.01 0.01 0.00 0.00 0.00 0.00 0.00 0.00 0.00 0.00 0.01 0.02 0.03 0.05 0.06 0.07 0.07 0.06 0.05 0.04 0.04 0.03 0.03 0.04 0.06 0.06 0.08 0.09 0.11 0.10 0.09 0.08
0.22 0.09 0.05 0.04 0.03 0.02 0.01 0.01 0.01 0.01 0.01 0.00 0.01 0.00 0.00 0.00 0.00 0.00 0.00 0.00 0.00 0.00 0.01 0.01 0.02 0.02 0.03 0.04 0.05 0.04 0.04 0.04 0.04 0.04 0.04 0.05 0.06 0.08 0.10 0.11 0.12 0.12 0.11
0.24 0.14 0.06 0.03 0.03 0.02 0.01 0.00 0.00 0.00 0.00 0.00 0.00 0.00 0.00 0.00 0.00 0.00 0.00 0.00 0.00 0.00 0.00 0.00 0.01 0.01 0.01 0.02 0.02 0.03 0.03 0.03 0.03 0.03 0.03 0.04 0.05 0.06 0.06 0.08 0.09 0.10 0.11
0.29 0.18 0.08 0.03 0.01 0.01 0.00 0.00 0.00 0.00 0.00 0.00 0.00 0.00 0.00 0.00 0.00 0.00 0.00 0.00 0.00 0.00 0.00 0.00 0.00 0.00 0.00 0.00 0.01 0.02 0.02 0.02 0.02 0.03 0.03 0.03 0.04 0.05 0.06 0.06 0.07 0.08 0.08
0.29 0.21 0.11 0.05 0.01 0.01 0.00 0.00 0.00 0.00 0.00 0.00 0.00 0.00 0.00 0.00 0.00 0.00 0.00 0.00 0.00 0.00 0.00 0.00 0.00 0.00 0.00 0.00 0.00 0.00 0.00 0.00 0.00 0.00 0.01 0.01 0.02 0.03 0.04 0.05 0.06 0.07 0.08
0.28 0.22 0.14 0.07 0.03 0.01 0.00 0.00 0.00 0.00 0.00 0.00 0.00 0.00 0.00 0.00 0.00 0.00 0.00 0.00 0.00 0.00 0.00 0.00 0.00 0.00 0.00 0.00 0.00 0.00 0.00 0.00 0.00 0.00 0.00 0.01 0.01 0.02 0.02 0.03 0.04 0.05 0.06
0.27 0.21 0.15 0.08 0.04 0.01 0.00 0.00 0.00 0.00 0.00 0.00 0.00 0.00 0.00 0.00 0.00 0.00 0.00 0.00 0.00 0.00 0.00 0.00 0.00 0.00 0.00 0.00 0.01 0.01 0.00 0.00 0.00 0.00 0.00 0.01 0.01 0.02 0.02 0.03 0.04 0.04 0.05
0.25 0.19 0.13 0.08 0.05 0.02 0.00 0.00 0.00 0.00 0.00 0.00 0.00 0.00 0.01 0.01 0.01 0.01 0.01 0.01 0.01 0.01 0.01 0.01 0.01 0.01 0.01 0.01 0.02 0.01 0.00 0.00 0.00 0.00 0.01 0.01 0.02 0.02 0.02 0.02 0.02 0.02 0.03

GEFSGL_prec_meanprecacc_054.txt.gz
Total_Precipitation_Accumulation
0.71 0.70 0.74 0.75 0.78 0.81 0.84 0.84 0.86 0.92 0.96 0.97 0.95 0.89 0.79 0.72 0.68 0.68 0.73 0.81 0.80 0.75 0.76 0.72 0.70 0.69 0.70 0.68 0.66 0.66 0.78 0.90 0.84 0.87 0.78 0.60 0.43 0.32 0.25 0.20 0.15 0.11 0.08
0.71 0.70 0.73 0.76 0.74 0.72 0.72 0.69 0.69 0.71 0.73 0.73 0.73 0.76 0.78 0.74 0.66 0.63 0.63 0.63 0.65 0.66 0.68 0.68 0.67 0.72 0.70 0.60 0.59 0.61 0.74 0.90 0.98 1.12 1.22 0.97 0.69 0.48 0.41 0.30 0.18 0.12 0.14
0.65 0.70 0.75 0.73 0.70 0.70 0.71 0.71 0.67 0.64 0.63 0.62 0.61 0.61 0.63 0.70 0.73 0.71 0.68 0.69 0.68 0.61 0.64 0.66 0.63 0.60 0.57 0.53 0.55 0.59 0.65 0.74 0.86 1.00 1.18 1.02 0.84 0.62 0.60 0.48 0.33 0.31 0.19
0.56 0.69 0.81 0.85 0.84 0.83 0.76 0.75 0.71 0.66 0.65 0.61 0.55 0.56 0.58 0.57 0.61 0.66 0.65 0.65 0.58 0.50 0.48 0.47 0.45 0.39 0.40 0.41 0.42 0.48 0.55 0.57 0.63 0.72 0.88 0.97 1.01 0.95 0.89 0.78 0.66 0.56 0.43
0.56 0.76 0.85 0.82 0.76 0.73 0.70 0.75 0.69 0.60 0.59 0.59 0.49 0.46 0.50 0.51 0.50 0.48 0.48 0.45 0.40 0.36 0.31 0.25 0.19 0.19 0.19 0.21 0.25 0.34 0.41 0.49 0.55 0.64 0.78 0.92 1.02 1.07 1.00 0.99 0.90 0.83 0.69
0.49 0.60 0.63 0.65 0.67 0.61 0.56 0.52 0.49 0.48 0.47 0.45 0.39 0.35 0.34 0.34 0.34 0.29 0.25 0.23 0.21 0.19 0.18 0.14 0.09 0.07 0.07 0.08 0.10 0.13 0.19 0.29 0.44 0.62 0.76 0.93 0.99 0.97 1.10 1.09 1.06 1.02 0.95
0.40 0.44 0.50 0.59 0.60 0.52 0.42 0.43 0.44 0.40 0.37 0.35 0.30 0.26 0.23 0.20 0.18 0.18 0.18 0.16 0.13 0.09 0.07 0.06 0.04 0.02 0.02 0.03 0.06 0.11 0.11 0.11 0.16 0.38 0.57 0.64 0.65 0.64 0.84 1.04 1.03 1.04 1.13
0.40 0.45 0.47 0.56 0.55 0.47 0.42 0.39 0.37 0.32 0.31 0.30 0.25 0.21 0.17 0.13 0.11 0.10 0.10 0.10 0.08 0.05 0.03 0.02 0.02 0.01 0.01 0.01 0.04 0.09 0.06 0.04 0.06 0.14 0.19 0.20 0.25 0.34 0.50 0.76 0.98 0.98 1.07
0.38 0.46 0.52 0.56 0.51 0.43 0.39 0.33 0.28 0.26 0.23 0.21 0.20 0.18 0.16 0.11 0.08 0.06 0.06 0.09 0.07 0.04 0.01 0.01 0.01 0.00 0.00 0.00 0.05 0.09 0.06 0.03 0.01 0.02 0.04 0.06 0.10 0.13 0.21 0.37 0.60 0.90 1.18
0.45 0.50 0.54 0.52 0.49 0.43 0.38 0.31 0.25 0.23 0.21 0.16 0.16 0.15 0.13 0.10 0.06 0.03 0.03 0.06 0.06 0.03 0.01 0.00 0.00 0.00 0.00 0.00 0.02 0.05 0.04 0.03 0.02 0.03 0.04 0.04 0.06 0.08 0.08 0.17 0.29 0.53 0.83
0.47 0.52 0.56 0.56 0.46 0.41 0.36 0.31 0.25 0.22 0.21 0.18 0.14 0.12 0.11 0.08 0.04 0.02 0.01 0.03 0.04 0.03 0.01 0.00 0.00 0.00 0.00 0.00 0.00 0.00 0.00 0.00 0.02 0.03 0.04 0.05 0.05 0.06 0.05 0.06 0.11 0.21 0.37
0.49 0.54 0.59 0.58 0.42 0.34 0.34 0.31 0.27 0.25 0.24 0.20 0.17 0.13 0.11 0.09 0.04 0.02 0.01 0.01 0.01 0.02 0.01 0.00 0.00 0.00 0.00 0.00 0.00 0.00 0.00 0.00 0.02 0.03 0.03 0.03 0.04 0.04 0.04 0.04 0.07 0.11 0.19
0.54 0.60 0.59 0.57 0.54 0.48 0.37 0.32 0.28 0.24 0.24 0.22 0.21 0.18 0.15 0.14 0.10 0.05 0.02 0.01 0.00 0.02 0.01 0.01 0.01 0.01 0.00 0.00 0.00 0.00 0.00 0.01 0.01 0.02 0.03 0.03 0.03 0.03 0.03 0.05 0.06 0.08 0.11
0.60 0.64 0.65 0.63 0.60 0.54 0.47 0.42 0.35 0.29 0.28 0.27 0.25 0.21 0.18 0.17 0.15 0.12 0.09 0.04 0.02 0.01 0.02 0.01 0.01 0.01 0.01 0.01 0.01 0.01 0.00 0.01 0.01 0.02 0.03 0.04 0.03 0.03 0.03 0.04 0.06 0.08 0.10
0.67 0.70 0.71 0.68 0.63 0.57 0.49 0.45 0.41 0.36 0.30 0.30 0.28 0.22 0.18 0.17 0.15 0.12 0.11 0.08 0.05 0.03 0.03 0.03 0.02 0.02 0.02 0.03 0.02 0.01 0.01 0.01 0.02 0.02 0.02 0.04 0.05 0.05 0.04 0.04 0.05 0.08 0.11
0.72 0.68 0.64 0.59 0.54 0.50 0.42 0.28 0.20 0.17 0.12 0.11 0.13 0.13 0.11 0.08 0.06 0.05 0.06 0.06 0.05 0.05 0.05 0.06 0.06 0.05 0.04 0.03 0.03 0.02 0.03 0.02 0.03 0.03 0.04 0.04 0.05 0.05 0.05 0.05 0.05 0.06 0.09
0.68 0.64 0.56 0.47 0.40 0.35 0.31 0.24 0.15 0.09 0.06 0.04 0.03 0.02 0.02 0.02 0.02 0.02 0.02 0.03 0.04 0.04 0.06 0.09 0.10 0.08 0.06 0.04 0.03 0.03 0.04 0.04 0.04 0.04 0.06 0.07 0.07 0.06 0.07 0.06 0.06 0.07 0.09
0.64 0.56 0.49 0.42 0.34 0.28 0.21 0.16 0.11 0.08 0.05 0.02 0.01 0.00 0.00 0.00 0.00 0.00 0.00 0.01 0.02 0.02 0.04 0.08 0.11 0.11 0.08 0.06 0.04 0.03 0.03 0.03 0.03 0.04 0.06 0.06 0.06 0.07 0.08 0.08 0.06 0.06 0.08
0.70 0.57 0.47 0.36 0.30 0.25 0.18 0.12 0.08 0.05 0.04 0.02 0.01 0.00 0.00 0.00 0.00 0.00 0.00 0.00 0.00 0.01 0.02 0.03 0.05 0.06 0.07 0.07 0.06 0.05 0.04 0.04 0.03 0.03 0.04 0.06 0.06 0.08 0.09 0.11 0.10 0.09 0.08
0.71 0.60 0.50 0.38 0.27 0.22 0.18 0.10 0.05 0.04 0.02 0.01 0.01 0.00 0.00 0.00 0.00 0.00 0.00 0.00 0.00 0.00 0.01 0.01 0.02 0.02 0.03 0.04 0.05 0.04 0.04 0.04 0.04 0.04 0.04 0.05 0.06 0.08 0.10 0.11 0.12 0.12 0.11
0.65 0.59 0.49 0.37 0.27 0.20 0.15 0.10 0.05 0.02 0.01 0.00 0.00 0.00 0.00 0.00 0.00 0.00 0.00 0.00 0.00 0.00 0.00 0.00 0.01 0.01 0.01 0.02 0.02 0.03 0.03 0.03 0.03 0.03 0.03 0.04 0.05 0.06 0.06 0.08 0.09 0.10 0.11
0.62 0.58 0.47 0.35 0.25 0.19 0.13 0.09 0.05 0.03 0.01 0.01 0.00 0.00 0.00 0.00 0.00 0.00 0.00 0.00 0.00 0.00 0.00 0.00 0.00 0.00 0.00 0.00 0.01 0.02 0.02 0.02 0.02 0.03 0.03 0.03 0.04 0.05 0.06 0.06 0.07 0.08 0.08
0.58 0.54 0.45 0.32 0.22 0.18 0.13 0.09 0.06 0.04 0.02 0.01 0.01 0.00 0.00 0.00 0.00 0.00 0.00 0.00 0.00 0.00 0.00 0.00 0.00 0.00 0.00 0.00 0.00 0.00 0.00 0.00 0.00 0.00 0.01 0.01 0.02 0.03 0.04 0.05 0.06 0.07 0.08
0.55 0.51 0.43 0.32 0.22 0.15 0.11 0.08 0.05 0.03 0.02 0.01 0.01 0.00 0.00 0.00 0.00 0.00 0.00 0.00 0.00 0.00 0.00 0.00 0.00 0.00 0.00 0.00 0.00 0.00 0.00 0.00 0.00 0.00 0.00 0.01 0.01 0.02 0.02 0.03 0.04 0.05 0.06
0.51 0.47 0.43 0.33 0.23 0.14 0.09 0.07 0.05 0.02 0.01 0.01 0.01 0.01 0.01 0.01 0.00 0.00 0.00 0.00 0.00 0.00 0.00 0.00 0.00 0.00 0.00 0.00 0.01 0.01 0.00 0.00 0.00 0.00 0.00 0.01 0.01 0.02 0.02 0.03 0.04 0.04 0.05
0.45 0.41 0.39 0.32 0.22 0.13 0.07 0.05 0.04 0.02 0.01 0.01 0.01 0.01 0.01 0.01 0.01 0.01 0.01 0.01 0.01 0.01 0.01 0.01 0.01 0.01 0.01 0.01 0.02 0.01 0.01 0.01 0.01 0.01 0.01 0.01 0.02 0.02 0.02 0.02 0.02 0.02 0.03

GEFSGL_prec_meanprecacc_060.txt.gz
Total_Precipitation_Accumulation
0.71 0.70 0.74 0.76 0.78 0.81 0.84 0.84 0.86 0.92 0.96 0.97 0.95 0.90 0.79 0.73 0.70 0.71 0.76 0.86 0.86 0.82 0.86 0.84 0.82 0.82 0.84 0.83 0.82 0.82 0.94 1.04 0.97 0.99 0.86 0.67 0.49 0.37 0.29 0.24 0.19 0.14 0.10
0.71 0.71 0.74 0.76 0.74 0.72 0.72 0.69 0.69 0.71 0.73 0.73 0.73 0.77 0.80 0.77 0.70 0.69 0.70 0.70 0.73 0.75 0.79 0.82 0.83 0.86 0.84 0.75 0.74 0.78 0.91 1.05 1.11 1.23 1.30 1.03 0.73 0.50 0.43 0.32 0.20 0.13 0.14
0.65 0.70 0.75 0.74 0.70 0.70 0.72 0.71 0.68 0.65 0.63 0.62 0.61 0.62 0.65 0.74 0.82 0.82 0.79 0.80 0.83 0.76 0.78 0.82 0.80 0.76 0.73 0.67 0.69 0.75 0.82 0.92 1.00 1.09 1.24 1.05 0.86 0.63 0.61 0.48 0.34 0.32 0.20
0.56 0.70 0.82 0.86 0.85 0.83 0.76 0.75 0.71 0.66 0.65 0.61 0.56 0.57 0.59 0.60 0.68 0.80 0.84 0.80 0.75 0.70 0.69 0.67 0.62 0.59 0.58 0.55 0.55 0.61 0.67 0.71 0.76 0.82 0.94 0.99 1.02 0.95 0.89 0.78 0.67 0.56 0.43
0.56 0.77 0.86 0.83 0.76 0.74 0.70 0.75 0.69 0.60 0.60 0.59 0.51 0.48 0.54 0.58 0.59 0.60 0.65 0.64 0.58 0.57 0.58 0.53 0.42 0.43 0.43 0.39 0.38 0.47 0.52 0.58 0.63 0.69 0.82 0.95 1.03 1.07 1.01 0.99 0.90 0.83 0.69
0.50 0.61 0.64 0.67 0.68 0.62 0.56 0.52 0.49 0.49 0.47 0.46 0.41 0.39 0.39 0.41 0.45 0.43 0.41 0.41 0.38 0.36 0.38 0.39 0.35 0.30 0.27 0.27 0.23 0.24 0.28 0.36 0.49 0.65 0.79 0.95 1.00 0.98 1.10 1.09 1.06 1.02 0.95
0.42 0.45 0.52 0.60 0.62 0.53 0.44 0.44 0.45 0.41 0.38 0.35 0.33 0.30 0.27 0.25 0.23 0.24 0.27 0.30 0.30 0.25 0.23 0.25 0.24 0.21 0.16 0.13 0.14 0.18 0.18 0.16 0.20 0.41 0.58 0.65 0.66 0.64 0.84 1.04 1.03 1.04 1.13
0.41 0.47 0.50 0.58 0.58 0.50 0.45 0.42 0.39 0.34 0.32 0.31 0.28 0.25 0.23 0.21 0.19 0.18 0.18 0.18 0.20 0.19 0.15 0.14 0.16 0.16 0.11 0.07 0.08 0.12 0.08 0.06 0.07 0.15 0.20 0.21 0.25 0.34 0.50 0.76 0.98 0.98 1.07
0.40 0.49 0.56 0.60 0.56 0.49 0.45 0.38 0.33 0.30 0.24 0.23 0.24 0.24 0.20 0.17 0.14 0.12 0.14 0.17 0.15 0.12 0.09 0.10 0.10 0.08 0.07 0.04 0.06 0.10 0.07 0.03 0.01 0.02 0.04 0.06 0.10 0.13 0.21 0.37 0.60 0.90 1.18
0.47 0.53 0.58 0.58 0.56 0.52 0.47 0.40 0.33 0.29 0.24 0.18 0.20 0.22 0.17 0.15 0.11 0.07 0.07 0.11 0.13 0.10 0.06 0.05 0.05 0.03 0.03 0.02 0.03 0.05 0.05 0.03 0.02 0.03 0.04 0.04 0.06 0.08 0.08 0.17 0.29 0.53 0.83
0.49 0.55 0.61 0.65 0.57 0.53 0.49 0.44 0.38 0.32 0.28 0.22 0.17 0.18 0.16 0.11 0.08 0.05 0.03 0.05 0.07 0.07 0.05 0.03 0.02 0.01 0.01 0.01 0.00 0.01 0.00 0.01 0.02 0.03 0.04 0.05 0.05 0.06 0.05 0.06 0.11 0.21 0.37
0.51 0.58 0.66 0.69 0.56 0.51 0.53 0.50 0.45 0.40 0.35 0.27 0.21 0.17 0.15 0.12 0.06 0.03 0.02 0.02 0.02 0.03 0.02 0.01 0.01 0.00 0.00 0.00 0.00 0.00 0.00 0.00 0.02 0.03 0.03 0.03 0.04 0.04 0.04 0.04 0.07 0.11 0.19
0.56 0.64 0.65 0.66 0.68 0.67 0.58 0.53 0.51 0.45 0.40 0.32 0.26 0.21 0.18 0.16 0.12 0.06 0.03 0.01 0.01 0.03 0.02 0.01 0.01 0.01 0.00 0.00 0.00 0.00 0.00 0.01 0.01 0.02 0.03 0.03 0.03 0.03 0.03 0.05 0.06 0.08 0.11
0.61 0.66 0.69 0.70 0.72 0.72 0.69 0.64 0.59 0.52 0.46 0.39 0.31 0.25 0.20 0.18 0.16 0.13 0.10 0.05 0.02 0.01 0.02 0.01 0.01 0.01 0.01 0.01 0.01 0.01 0.00 0.01 0.01 0.02 0.03 0.04 0.03 0.03 0.03 0.04 0.06 0.08 0.10
0.68 0.72 0.75 0.75 0.75 0.75 0.71 0.67 0.64 0.58 0.48 0.44 0.35 0.26 0.20 0.18 0.15 0.12 0.11 0.08 0.05 0.04 0.03 0.03 0.02 0.02 0.02 0.03 0.02 0.01 0.01 0.01 0.02 0.02 0.02 0.04 0.05 0.05 0.04 0.04 0.05 0.08 0.11
0.74 0.70 0.68 0.67 0.67 0.67 0.62 0.51 0.45 0.42 0.37 0.29 0.22 0.18 0.13 0.09 0.06 0.05 0.06 0.06 0.05 0.05 0.05 0.06 0.06 0.05 0.04 0.03 0.03 0.02 0.03 0.02 0.03 0.03 0.04 0.04 0.05 0.05 0.05 0.05 0.05 0.06 0.09
0.69 0.67 0.61 0.56 0.53 0.52 0.52 0.47 0.41 0.36 0.34 0.26 0.16 0.09 0.05 0.03 0.02 0.02 0.02 0.03 0.04 0.04 0.06 0.09 0.10 0.08 0.06 0.04 0.03 0.03 0.04 0.04 0.04 0.04 0.06 0.07 0.07 0.06 0.07 0.06 0.06 0.07 0.09
0.66 0.59 0.55 0.52 0.49 0.46 0.42 0.39 0.36 0.35 0.31 0.23 0.14 0.08 0.04 0.02 0.02 0.01 0.01 0.01 0.02 0.02 0.04 0.08 0.11 0.11 0.08 0.06 0.04 0.03 0.03 0.03 0.03 0.04 0.06 0.06 0.06 0.07 0.08 0.08 0.06 0.06 0.08
0.72 0.61 0.52 0.45 0.44 0.44 0.40 0.36 0.33 0.31 0.28 0.23 0.14 0.07 0.04 0.03 0.02 0.01 0.00 0.00 0.00 0.01 0.02 0.03 0.05 0.06 0.07 0.07 0.06 0.05 0.04 0.04 0.03 0.03 0.04 0.06 0.06 0.08 0.09 0.11 0.10 0.09 0.08
0.72 0.63 0.56 0.46 0.40 0.40 0.39 0.34 0.29 0.27 0.24 0.20 0.14 0.06 0.03 0.02 0.01 0.00 0.00 0.00 0.00 0.00 0.01 0.01 0.02 0.02 0.03 0.04 0.05 0.04 0.04 0.04 0.04 0.04 0.04 0.05 0.06 0.08 0.10 0.11 0.12 0.12 0.11
0.67 0.62 0.55 0.45 0.38 0.35 0.34 0.33 0.26 0.22 0.18 0.16 0.11 0.06 0.03 0.01 0.00 0.00 0.00 0.00 0.00 0.00 0.00 0.00 0.01 0.01 0.01 0.02 0.02 0.03 0.03 0.03 0.03 0.03 0.03 0.04 0.05 0.06 0.06 0.08 0.09 0.10 0.11
0.65 0.62 0.53 0.43 0.36 0.33 0.30 0.28 0.24 0.19 0.15 0.12 0.09 0.05 0.04 0.02 0.01 0.00 0.00 0.00 0.00 0.00 0.00 0.00 0.00 0.00 0.00 0.00 0.01 0.02 0.02 0.02 0.02 0.03 0.03 0.03 0.04 0.05 0.06 0.06 0.07 0.08 0.08
0.62 0.60 0.53 0.43 0.34 0.31 0.28 0.23 0.20 0.16 0.12 0.09 0.07 0.04 0.02 0.01 0.01 0.00 0.00 0.00 0.00 0.00 0.00 0.00 0.00 0.00 0.00 0.00 0.00 0.00 0.00 0.00 0.00 0.00 0.01 0.01 0.02 0.03 0.04 0.05 0.06 0.07 0.08
0.60 0.58 0.52 0.43 0.34 0.27 0.23 0.20 0.16 0.12 0.09 0.06 0.04 0.03 0.02 0.01 0.00 0.00 0.00 0.00 0.00 0.00 0.00 0.00 0.00 0.00 0.00 0.00 0.00 0.00 0.00 0.00 0.00 0.00 0.00 0.01 0.01 0.02 0.02 0.04 0.04 0.05 0.06
0.55 0.53 0.50 0.42 0.33 0.24 0.19 0.17 0.14 0.09 0.06 0.04 0.03 0.02 0.02 0.01 0.01 0.01 0.00 0.00 0.00 0.01 0.00 0.00 0.00 0.00 0.00 0.00 0.01 0.01 0.00 0.00 0.00 0.00 0.00 0.01 0.01 0.02 0.02 0.03 0.04 0.04 0.05
0.49 0.46 0.44 0.39 0.30 0.21 0.18 0.16 0.12 0.07 0.04 0.03 0.02 0.02 0.02 0.01 0.01 0.01 0.01 0.01 0.01 0.01 0.01 0.01 0.01 0.01 0.01 0.01 0.02 0.01 0.01 0.01 0.01 0.01 0.01 0.01 0.02 0.02 0.03 0.03 0.02 0.03 0.03

GEFSGL_prec_meanprecacc_066.txt.gz
Total_Precipitation_Accumulation
0.71 0.70 0.74 0.76 0.78 0.81 0.85 0.85 0.87 0.93 0.97 0.97 0.96 0.90 0.80 0.73 0.71 0.73 0.79 0.88 0.88 0.86 0.89 0.87 0.86 0.87 0.91 0.91 0.91 0.93 1.09 1.20 1.12 1.11 0.98 0.79 0.62 0.52 0.41 0.34 0.28 0.21 0.16
0.71 0.71 0.74 0.76 0.74 0.72 0.73 0.70 0.70 0.72 0.73 0.73 0.74 0.78 0.81 0.78 0.71 0.71 0.72 0.73 0.77 0.79 0.83 0.86 0.87 0.91 0.91 0.82 0.83 0.90 1.05 1.20 1.27 1.39 1.45 1.18 0.87 0.64 0.54 0.40 0.26 0.19 0.20
0.65 0.70 0.75 0.74 0.70 0.71 0.73 0.72 0.70 0.66 0.64 0.63 0.62 0.63 0.66 0.75 0.84 0.84 0.80 0.83 0.88 0.81 0.85 0.90 0.86 0.83 0.81 0.76 0.79 0.86 0.95 1.06 1.18 1.27 1.40 1.20 0.98 0.74 0.69 0.55 0.40 0.36 0.24
0.56 0.70 0.82 0.86 0.85 0.84 0.78 0.77 0.74 0.68 0.67 0.63 0.57 0.58 0.60 0.61 0.69 0.82 0.86 0.85 0.82 0.77 0.77 0.76 0.71 0.68 0.67 0.65 0.65 0.72 0.79 0.85 0.94 1.00 1.11 1.14 1.14 1.06 0.99 0.85 0.72 0.61 0.47
0.56 0.77 0.86 0.83 0.76 0.74 0.71 0.76 0.72 0.63 0.62 0.61 0.52 0.50 0.55 0.59 0.60 0.61 0.69 0.73 0.69 0.66 0.67 0.61 0.52 0.53 0.54 0.49 0.48 0.58 0.64 0.73 0.80 0.87 0.99 1.11 1.19 1.20 1.11 1.06 0.94 0.86 0.71
0.50 0.61 0.64 0.67 0.68 0.63 0.58 0.54 0.52 0.52 0.50 0.49 0.44 0.41 0.41 0.42 0.47 0.45 0.45 0.50 0.49 0.47 0.50 0.52 0.47 0.42 0.41 0.40 0.37 0.39 0.43 0.49 0.63 0.82 0.96 1.12 1.15 1.09 1.17 1.14 1.10 1.04 0.97
0.42 0.45 0.52 0.61 0.62 0.54 0.45 0.46 0.47 0.44 0.42 0.39 0.36 0.32 0.30 0.27 0.27 0.28 0.29 0.35 0.37 0.34 0.33 0.37 0.36 0.36 0.32 0.27 0.31 0.37 0.36 0.34 0.35 0.55 0.73 0.79 0.78 0.73 0.90 1.08 1.06 1.05 1.14
0.41 0.47 0.50 0.59 0.59 0.52 0.47 0.44 0.42 0.38 0.37 0.37 0.33 0.30 0.27 0.25 0.23 0.21 0.21 0.21 0.25 0.26 0.24 0.24 0.27 0.32 0.29 0.24 0.24 0.29 0.25 0.23 0.22 0.26 0.28 0.28 0.32 0.40 0.54 0.80 1.00 0.99 1.08
0.40 0.49 0.57 0.61 0.57 0.51 0.47 0.41 0.37 0.36 0.32 0.30 0.32 0.31 0.27 0.23 0.19 0.17 0.17 0.20 0.20 0.17 0.15 0.17 0.19 0.22 0.26 0.23 0.21 0.22 0.18 0.15 0.12 0.10 0.09 0.11 0.14 0.16 0.23 0.39 0.62 0.91 1.19
0.47 0.54 0.59 0.59 0.57 0.54 0.51 0.46 0.40 0.38 0.35 0.30 0.31 0.31 0.26 0.23 0.17 0.12 0.10 0.15 0.18 0.16 0.14 0.13 0.14 0.14 0.16 0.13 0.14 0.14 0.12 0.09 0.07 0.06 0.07 0.06 0.08 0.08 0.08 0.17 0.30 0.53 0.83
0.49 0.56 0.62 0.66 0.59 0.55 0.53 0.51 0.47 0.45 0.44 0.38 0.32 0.31 0.28 0.23 0.17 0.10 0.07 0.10 0.14 0.15 0.14 0.12 0.11 0.10 0.08 0.07 0.07 0.07 0.06 0.04 0.04 0.04 0.05 0.06 0.06 0.06 0.05 0.06 0.11 0.21 0.37
0.52 0.59 0.68 0.71 0.58 0.53 0.57 0.57 0.55 0.54 0.55 0.50 0.43 0.36 0.31 0.26 0.17 0.10 0.06 0.06 0.09 0.13 0.12 0.09 0.07 0.06 0.05 0.05 0.04 0.04 0.03 0.02 0.03 0.03 0.03 0.03 0.04 0.04 0.04 0.04 0.07 0.11 0.19
0.58 0.66 0.67 0.68 0.70 0.70 0.64 0.62 0.60 0.58 0.60 0.58 0.54 0.47 0.39 0.33 0.25 0.16 0.09 0.05 0.06 0.09 0.08 0.07 0.05 0.04 0.03 0.03 0.03 0.01 0.01 0.01 0.01 0.02 0.03 0.03 0.03 0.03 0.03 0.05 0.06 0.08 0.11
0.63 0.68 0.71 0.73 0.75 0.76 0.75 0.73 0.69 0.65 0.66 0.66 0.61 0.54 0.47 0.41 0.33 0.24 0.16 0.08 0.05 0.05 0.06 0.05 0.04 0.03 0.02 0.02 0.02 0.01 0.01 0.01 0.01 0.02 0.03 0.04 0.03 0.03 0.03 0.04 0.06 0.08 0.10
0.70 0.74 0.77 0.77 0.79 0.79 0.78 0.77 0.75 0.70 0.65 0.69 0.67 0.56 0.50 0.44 0.33 0.24 0.19 0.12 0.08 0.06 0.05 0.04 0.04 0.04 0.03 0.03 0.02 0.01 0.01 0.01 0.02 0.02 0.02 0.04 0.05 0.05 0.04 0.04 0.05 0.08 0.11
0.77 0.73 0.71 0.70 0.71 0.73 0.72 0.61 0.54 0.54 0.51 0.50 0.50 0.48 0.44 0.34 0.26 0.20 0.16 0.11 0.07 0.07 0.06 0.07 0.07 0.05 0.04 0.03 0.03 0.02 0.03 0.02 0.03 0.03 0.04 0.04 0.05 0.05 0.05 0.05 0.05 0.06 0.09
0.73 0.71 0.64 0.60 0.58 0.59 0.63 0.60 0.54 0.50 0.52 0.48 0.39 0.34 0.35 0.28 0.22 0.17 0.14 0.11 0.07 0.06 0.07 0.10 0.10 0.08 0.06 0.04 0.03 0.03 0.04 0.04 0.04 0.04 0.06 0.07 0.07 0.06 0.07 0.06 0.06 0.07 0.09
0.70 0.63 0.59 0.57 0.55 0.53 0.54 0.53 0.51 0.54 0.57 0.52 0.41 0.36 0.31 0.22 0.18 0.14 0.12 0.11 0.06 0.04 0.05 0.09 0.12 0.11 0.08 0.06 0.04 0.03 0.03 0.03 0.03 0.04 0.06 0.06 0.06 0.07 0.08 0.08 0.06 0.06 0.08
0.76 0.65 0.57 0.51 0.51 0.52 0.52 0.50 0.49 0.53 0.57 0.56 0.45 0.39 0.34 0.22 0.17 0.13 0.11 0.08 0.04 0.02 0.03 0.03 0.05 0.06 0.07 0.07 0.06 0.05 0.04 0.04 0.03 0.03 0.04 0.06 0.06 0.08 0.09 0.11 0.10 0.09 0.08
0.77 0.67 0.60 0.52 0.47 0.50 0.53 0.48 0.47 0.52 0.55 0.53 0.46 0.34 0.27 0.19 0.14 0.12 0.09 0.05 0.03 0.01 0.01 0.01 0.02 0.02 0.03 0.04 0.05 0.04 0.04 0.04 0.04 0.04 0.04 0.05 0.06 0.08 0.10 0.11 0.12 0.12 0.11
0.72 0.66 0.59 0.50 0.44 0.44 0.47 0.47 0.44 0.48 0.49 0.46 0.38 0.28 0.19 0.12 0.09 0.07 0.05 0.04 0.02 0.01 0.01 0.00 0.01 0.01 0.01 0.02 0.02 0.03 0.03 0.03 0.03 0.03 0.03 0.04 0.05 0.06 0.06 0.08 0.09 0.10 0.11
0.70 0.67 0.58 0.48 0.42 0.41 0.41 0.43 0.44 0.43 0.42 0.41 0.33 0.23 0.17 0.12 0.07 0.05 0.03 0.02 0.02 0.01 0.00 0.00 0.00 0.00 0.00 0.00 0.01 0.02 0.02 0.02 0.02 0.03 0.03 0.03 0.04 0.05 0.06 0.06 0.07 0.08 0.08
0.68 0.66 0.59 0.48 0.41 0.40 0.39 0.39 0.40 0.38 0.34 0.34 0.26 0.16 0.12 0.11 0.06 0.04 0.02 0.02 0.01 0.00 0.00 0.00 0.00 0.00 0.00 0.00 0.00 0.00 0.00 0.00 0.00 0.00 0.01 0.01 0.02 0.03 0.04 0.05 0.06 0.07 0.08
0.65 0.64 0.58 0.49 0.42 0.37 0.36 0.36 0.35 0.31 0.25 0.22 0.19 0.12 0.09 0.08 0.05 0.03 0.02 0.01 0.01 0.00 0.00 0.00 0.00 0.00 0.00 0.00 0.00 0.00 0.00 0.00 0.00 0.00 0.00 0.01 0.01 0.02 0.02 0.04 0.04 0.05 0.06
0.59 0.58 0.56 0.49 0.42 0.35 0.31 0.31 0.29 0.23 0.16 0.13 0.13 0.10 0.07 0.05 0.04 0.02 0.01 0.01 0.01 0.01 0.00 0.00 0.00 0.00 0.00 0.00 0.01 0.01 0.00 0.00 0.00 0.00 0.00 0.01 0.01 0.02 0.02 0.03 0.04 0.04 0.05
0.53 0.51 0.50 0.45 0.38 0.31 0.28 0.27 0.24 0.17 0.11 0.09 0.09 0.08 0.06 0.04 0.03 0.02 0.01 0.01 0.01 0.01 0.01 0.01 0.01 0.01 0.01 0.01 0.02 0.01 0.01 0.01 0.01 0.01 0.01 0.01 0.02 0.02 0.03 0.03 0.02 0.03 0.03

GEFSGL_prec_meanprecacc_072.txt.gz
Total_Precipitation_Accumulation
0.73 0.72 0.76 0.78 0.81 0.86 0.92 0.94 0.98 1.03 1.09 1.08 1.05 0.99 0.88 0.79 0.75 0.77 0.82 0.91 0.91 0.88 0.91 0.90 0.89 0.91 0.96 0.97 0.98 1.02 1.20 1.35 1.26 1.22 1.10 0.95 0.82 0.71 0.57 0.49 0.41 0.33 0.27
0.71 0.71 0.74 0.77 0.76 0.75 0.77 0.76 0.78 0.81 0.84 0.84 0.85 0.88 0.90 0.86 0.78 0.75 0.74 0.75 0.79 0.81 0.85 0.90 0.91 0.96 0.97 0.89 0.91 0.98 1.15 1.33 1.39 1.49 1.55 1.29 1.01 0.80 0.71 0.57 0.38 0.27 0.26
0.66 0.70 0.76 0.74 0.71 0.73 0.75 0.75 0.74 0.72 0.73 0.72 0.72 0.73 0.75 0.83 0.91 0.89 0.84 0.85 0.90 0.83 0.87 0.93 0.91 0.89 0.87 0.83 0.87 0.96 1.06 1.19 1.31 1.37 1.49 1.30 1.10 0.86 0.83 0.67 0.49 0.42 0.27
0.57 0.71 0.82 0.87 0.86 0.85 0.80 0.79 0.77 0.73 0.73 0.71 0.67 0.67 0.69 0.69 0.76 0.87 0.90 0.87 0.83 0.79 0.79 0.79 0.75 0.74 0.74 0.73 0.74 0.83 0.91 0.97 1.05 1.10 1.20 1.24 1.25 1.19 1.11 0.94 0.79 0.66 0.52
0.56 0.77 0.87 0.84 0.77 0.75 0.73 0.79 0.75 0.67 0.67 0.68 0.61 0.59 0.63 0.67 0.66 0.66 0.73 0.76 0.72 0.68 0.70 0.64 0.55 0.57 0.60 0.56 0.57 0.68 0.76 0.84 0.90 0.96 1.09 1.21 1.29 1.32 1.23 1.16 1.01 0.91 0.77
0.50 0.62 0.65 0.68 0.69 0.64 0.59 0.56 0.55 0.57 0.56 0.56 0.51 0.50 0.50 0.49 0.54 0.49 0.48 0.54 0.53 0.50 0.53 0.55 0.49 0.45 0.44 0.45 0.43 0.46 0.52 0.59 0.72 0.89 1.03 1.21 1.26 1.20 1.28 1.24 1.17 1.09 1.03
0.42 0.46 0.52 0.61 0.63 0.55 0.47 0.48 0.51 0.49 0.47 0.45 0.43 0.40 0.38 0.37 0.34 0.32 0.32 0.38 0.40 0.38 0.37 0.40 0.39 0.38 0.35 0.31 0.36 0.41 0.42 0.43 0.45 0.64 0.81 0.87 0.87 0.83 1.00 1.18 1.14 1.12 1.19
0.41 0.47 0.50 0.59 0.60 0.53 0.50 0.48 0.46 0.44 0.43 0.42 0.39 0.37 0.36 0.36 0.33 0.28 0.25 0.23 0.28 0.30 0.29 0.29 0.30 0.34 0.33 0.29 0.29 0.34 0.32 0.31 0.32 0.35 0.38 0.38 0.41 0.48 0.63 0.90 1.09 1.07 1.14
0.40 0.49 0.57 0.62 0.59 0.54 0.51 0.47 0.44 0.43 0.38 0.37 0.38 0.38 0.36 0.34 0.29 0.26 0.25 0.26 0.25 0.23 0.21 0.22 0.23 0.26 0.31 0.29 0.27 0.29 0.26 0.25 0.26 0.25 0.23 0.25 0.27 0.27 0.32 0.48 0.71 0.99 1.27
0.48 0.54 0.59 0.60 0.61 0.58 0.56 0.52 0.47 0.47 0.42 0.37 0.38 0.39 0.36 0.35 0.28 0.21 0.19 0.24 0.29 0.26 0.23 0.19 0.19 0.19 0.21 0.19 0.19 0.21 0.20 0.18 0.17 0.20 0.21 0.19 0.21 0.21 0.18 0.25 0.37 0.60 0.91
0.50 0.57 0.64 0.68 0.63 0.60 0.60 0.59 0.57 0.54 0.54 0.47 0.40 0.39 0.38 0.36 0.29 0.20 0.17 0.22 0.28 0.30 0.26 0.20 0.17 0.15 0.13 0.12 0.12 0.12 0.13 0.12 0.12 0.14 0.17 0.17 0.16 0.16 0.13 0.13 0.17 0.27 0.42
0.54 0.62 0.71 0.75 0.61 0.55 0.64 0.65 0.64 0.65 0.65 0.61 0.54 0.46 0.42 0.41 0.31 0.21 0.18 0.20 0.24 0.28 0.28 0.21 0.14 0.12 0.10 0.09 0.09 0.09 0.08 0.08 0.10 0.12 0.13 0.13 0.12 0.11 0.10 0.08 0.10 0.14 0.22
0.61 0.70 0.72 0.73 0.76 0.75 0.70 0.70 0.70 0.69 0.71 0.69 0.68 0.62 0.54 0.49 0.44 0.32 0.24 0.22 0.23 0.26 0.25 0.23 0.15 0.09 0.08 0.08 0.07 0.06 0.05 0.05 0.07 0.08 0.09 0.09 0.08 0.06 0.06 0.07 0.08 0.09 0.12
0.70 0.74 0.78 0.80 0.81 0.83 0.85 0.83 0.79 0.75 0.77 0.78 0.73 0.70 0.65 0.60 0.54 0.44 0.36 0.29 0.26 0.24 0.23 0.19 0.14 0.08 0.06 0.06 0.06 0.05 0.04 0.04 0.05 0.05 0.06 0.07 0.06 0.05 0.05 0.05 0.07 0.09 0.11
0.78 0.81 0.84 0.85 0.87 0.88 0.88 0.87 0.84 0.80 0.74 0.77 0.76 0.70 0.68 0.65 0.58 0.51 0.45 0.37 0.30 0.25 0.20 0.17 0.13 0.09 0.06 0.06 0.05 0.04 0.04 0.04 0.04 0.04 0.04 0.05 0.06 0.06 0.06 0.05 0.06 0.08 0.12
0.86 0.81 0.79 0.78 0.79 0.82 0.81 0.70 0.59 0.57 0.54 0.52 0.54 0.55 0.55 0.50 0.44 0.43 0.44 0.39 0.34 0.27 0.21 0.19 0.17 0.11 0.07 0.06 0.04 0.04 0.04 0.04 0.04 0.04 0.05 0.05 0.05 0.06 0.06 0.05 0.05 0.07 0.09
0.82 0.79 0.73 0.68 0.67 0.68 0.72 0.71 0.64 0.57 0.56 0.51 0.41 0.38 0.42 0.38 0.34 0.34 0.38 0.37 0.31 0.25 0.21 0.20 0.19 0.13 0.08 0.06 0.04 0.03 0.04 0.04 0.04 0.05 0.06 0.07 0.07 0.07 0.07 0.06 0.06 0.07 0.09
0.78 0.70 0.66 0.64 0.63 0.61 0.62 0.64 0.63 0.66 0.68 0.60 0.48 0.41 0.38 0.31 0.27 0.27 0.32 0.33 0.27 0.21 0.19 0.19 0.18 0.14 0.10 0.07 0.05 0.03 0.03 0.03 0.03 0.04 0.06 0.06 0.06 0.07 0.08 0.08 0.06 0.06 0.08
0.84 0.72 0.65 0.58 0.58 0.61 0.61 0.61 0.61 0.65 0.70 0.69 0.58 0.51 0.44 0.31 0.26 0.25 0.26 0.23 0.17 0.14 0.13 0.12 0.11 0.09 0.07 0.07 0.06 0.05 0.04 0.04 0.04 0.03 0.04 0.06 0.06 0.08 0.09 0.11 0.10 0.09 0.08
0.84 0.73 0.66 0.58 0.55 0.60 0.65 0.62 0.60 0.65 0.68 0.67 0.61 0.50 0.38 0.29 0.24 0.22 0.21 0.16 0.11 0.09 0.08 0.07 0.06 0.04 0.04 0.04 0.05 0.04 0.04 0.04 0.04 0.04 0.04 0.05 0.06 0.08 0.10 0.11 0.12 0.12 0.11
0.80 0.73 0.63 0.54 0.51 0.52 0.58 0.60 0.57 0.60 0.63 0.60 0.53 0.43 0.28 0.20 0.17 0.14 0.13 0.10 0.07 0.06 0.05 0.04 0.04 0.02 0.02 0.02 0.02 0.03 0.03 0.03 0.03 0.03 0.03 0.04 0.05 0.06 0.06 0.08 0.09 0.10 0.11
0.78 0.75 0.67 0.57 0.52 0.52 0.53 0.55 0.57 0.56 0.56 0.56 0.47 0.34 0.24 0.20 0.15 0.11 0.08 0.06 0.04 0.03 0.03 0.04 0.03 0.01 0.00 0.00 0.01 0.02 0.02 0.02 0.02 0.03 0.03 0.03 0.04 0.05 0.06 0.06 0.07 0.08 0.08
0.76 0.74 0.68 0.58 0.52 0.52 0.50 0.53 0.55 0.52 0.47 0.47 0.38 0.27 0.19 0.18 0.13 0.08 0.06 0.04 0.03 0.02 0.03 0.04 0.02 0.01 0.00 0.00 0.00 0.00 0.00 0.00 0.00 0.00 0.01 0.01 0.02 0.03 0.04 0.05 0.06 0.07 0.08
0.73 0.72 0.66 0.58 0.52 0.50 0.49 0.50 0.48 0.42 0.36 0.34 0.30 0.21 0.17 0.15 0.09 0.07 0.04 0.03 0.02 0.02 0.02 0.02 0.02 0.01 0.00 0.00 0.00 0.00 0.00 0.00 0.00 0.00 0.00 0.01 0.01 0.02 0.02 0.04 0.04 0.05 0.06
0.69 0.69 0.66 0.59 0.52 0.46 0.43 0.43 0.41 0.34 0.28 0.25 0.23 0.19 0.15 0.11 0.08 0.05 0.03 0.03 0.03 0.02 0.01 0.01 0.01 0.01 0.00 0.00 0.01 0.01 0.00 0.00 0.00 0.00 0.00 0.01 0.01 0.02 0.02 0.03 0.04 0.04 0.05
0.63 0.62 0.60 0.56 0.48 0.41 0.38 0.38 0.35 0.28 0.21 0.19 0.19 0.16 0.12 0.09 0.07 0.04 0.02 0.03 0.03 0.03 0.02 0.02 0.02 0.01 0.01 0.01 0.02 0.01 0.01 0.01 0.01 0.01 0.01 0.01 0.02 0.02 0.03 0.03 0.02 0.03 0.03

GEFSGL_prec_meanprecacc_078.txt.gz
Total_Precipitation_Accumulation
0.74 0.73 0.77 0.78 0.81 0.86 0.92 0.94 0.99 1.04 1.10 1.10 1.07 1.02 0.92 0.85 0.82 0.82 0.85 0.94 0.94 0.90 0.93 0.91 0.90 0.92 0.97 0.97 0.99 1.03 1.21 1.37 1.28 1.23 1.12 0.98 0.86 0.75 0.63 0.57 0.48 0.39 0.35
0.71 0.71 0.74 0.77 0.76 0.75 0.77 0.76 0.78 0.81 0.84 0.85 0.86 0.90 0.93 0.90 0.84 0.81 0.79 0.79 0.82 0.83 0.87 0.91 0.92 0.97 0.97 0.89 0.91 0.99 1.17 1.36 1.41 1.51 1.57 1.32 1.05 0.86 0.78 0.66 0.46 0.34 0.35
0.66 0.70 0.76 0.74 0.72 0.73 0.76 0.76 0.74 0.73 0.73 0.73 0.73 0.74 0.76 0.86 0.94 0.93 0.90 0.91 0.94 0.87 0.89 0.95 0.92 0.90 0.88 0.84 0.89 0.97 1.09 1.23 1.34 1.40 1.52 1.34 1.15 0.92 0.90 0.75 0.58 0.51 0.36
0.57 0.71 0.82 0.87 0.86 0.86 0.80 0.80 0.78 0.74 0.74 0.72 0.68 0.68 0.70 0.71 0.79 0.90 0.94 0.92 0.88 0.83 0.83 0.82 0.77 0.75 0.75 0.74 0.75 0.86 0.96 1.02 1.09 1.14 1.24 1.28 1.29 1.24 1.18 1.01 0.86 0.73 0.60
0.56 0.77 0.87 0.84 0.78 0.75 0.73 0.79 0.76 0.68 0.68 0.69 0.62 0.59 0.65 0.69 0.69 0.69 0.77 0.80 0.76 0.73 0.74 0.68 0.58 0.59 0.61 0.57 0.58 0.70 0.79 0.86 0.95 1.01 1.13 1.26 1.34 1.37 1.28 1.21 1.08 0.98 0.83
0.51 0.62 0.65 0.68 0.69 0.65 0.59 0.57 0.56 0.57 0.57 0.57 0.52 0.50 0.51 0.51 0.55 0.52 0.52 0.58 0.57 0.55 0.58 0.59 0.52 0.47 0.45 0.47 0.46 0.49 0.54 0.61 0.75 0.93 1.07 1.25 1.31 1.24 1.31 1.28 1.23 1.16 1.10
0.42 0.46 0.52 0.62 0.64 0.56 0.47 0.48 0.52 0.50 0.48 0.46 0.43 0.41 0.39 0.38 0.36 0.34 0.35 0.42 0.45 0.43 0.42 0.44 0.42 0.40 0.37 0.32 0.38 0.45 0.45 0.46 0.49 0.68 0.86 0.91 0.92 0.86 1.03 1.22 1.19 1.16 1.24
0.42 0.48 0.51 0.60 0.60 0.54 0.51 0.48 0.47 0.44 0.44 0.43 0.40 0.37 0.37 0.37 0.34 0.31 0.29 0.28 0.34 0.38 0.36 0.34 0.35 0.37 0.35 0.31 0.31 0.36 0.35 0.34 0.35 0.38 0.42 0.43 0.47 0.54 0.69 0.95 1.15 1.13 1.19
0.41 0.50 0.58 0.63 0.60 0.55 0.52 0.48 0.45 0.43 0.39 0.37 0.39 0.40 0.37 0.36 0.31 0.28 0.29 0.31 0.34 0.34 0.34 0.31 0.28 0.29 0.34 0.33 0.30 0.30 0.28 0.28 0.30 0.29 0.27 0.31 0.34 0.35 0.39 0.55 0.77 1.06 1.36
0.49 0.55 0.60 0.61 0.62 0.59 0.56 0.53 0.48 0.48 0.43 0.38 0.39 0.41 0.38 0.37 0.31 0.24 0.23 0.29 0.36 0.37 0.39 0.36 0.28 0.24 0.25 0.22 0.22 0.24 0.23 0.21 0.20 0.25 0.28 0.27 0.28 0.30 0.28 0.33 0.44 0.67 0.99
0.52 0.59 0.66 0.70 0.65 0.61 0.61 0.60 0.58 0.55 0.54 0.48 0.42 0.41 0.40 0.38 0.33 0.24 0.22 0.28 0.36 0.41 0.41 0.38 0.31 0.24 0.18 0.17 0.16 0.16 0.17 0.15 0.15 0.19 0.24 0.25 0.24 0.25 0.23 0.21 0.25 0.34 0.49
0.56 0.64 0.72 0.77 0.63 0.57 0.66 0.67 0.66 0.66 0.66 0.62 0.56 0.48 0.45 0.44 0.36 0.26 0.22 0.26 0.34 0.41 0.46 0.41 0.30 0.23 0.17 0.15 0.14 0.14 0.12 0.11 0.13 0.16 0.20 0.22 0.21 0.20 0.20 0.18 0.19 0.23 0.29
0.64 0.72 0.74 0.75 0.78 0.78 0.73 0.72 0.72 0.72 0.72 0.70 0.69 0.65 0.58 0.56 0.51 0.38 0.29 0.28 0.33 0.40 0.43 0.48 0.40 0.22 0.14 0.13 0.14 0.12 0.09 0.08 0.10 0.12 0.14 0.17 0.16 0.14 0.13 0.16 0.17 0.17 0.19
0.72 0.76 0.79 0.81 0.83 0.85 0.87 0.85 0.82 0.78 0.79 0.80 0.75 0.72 0.70 0.69 0.62 0.51 0.41 0.36 0.37 0.39 0.42 0.43 0.42 0.30 0.16 0.13 0.13 0.11 0.09 0.08 0.09 0.09 0.11 0.13 0.13 0.11 0.11 0.11 0.13 0.16 0.18
0.81 0.83 0.86 0.87 0.89 0.90 0.90 0.89 0.86 0.82 0.76 0.79 0.77 0.71 0.71 0.71 0.66 0.57 0.51 0.45 0.41 0.42 0.41 0.40 0.38 0.32 0.20 0.13 0.11 0.10 0.09 0.09 0.09 0.08 0.08 0.10 0.12 0.12 0.11 0.09 0.10 0.13 0.16
0.90 0.84 0.82 0.80 0.81 0.84 0.83 0.72 0.60 0.58 0.54 0.52 0.55 0.56 0.56 0.53 0.49 0.47 0.49 0.46 0.45 0.46 0.43 0.42 0.42 0.33 0.22 0.15 0.10 0.09 0.09 0.09 0.08 0.08 0.08 0.09 0.09 0.11 0.10 0.08 0.08 0.09 0.11
0.87 0.84 0.77 0.71 0.69 0.71 0.75 0.74 0.66 0.58 0.57 0.52 0.42 0.39 0.43 0.40 0.36 0.36 0.42 0.44 0.43 0.45 0.43 0.40 0.41 0.34 0.23 0.15 0.10 0.07 0.08 0.08 0.08 0.08 0.09 0.10 0.09 0.09 0.09 0.08 0.08 0.08 0.10
0.83 0.75 0.71 0.67 0.66 0.64 0.65 0.67 0.67 0.69 0.69 0.62 0.49 0.42 0.39 0.33 0.29 0.29 0.36 0.42 0.41 0.38 0.40 0.36 0.36 0.31 0.22 0.15 0.10 0.07 0.06 0.06 0.06 0.07 0.08 0.08 0.08 0.09 0.10 0.09 0.07 0.07 0.09
0.88 0.76 0.68 0.61 0.61 0.63 0.64 0.65 0.65 0.68 0.72 0.70 0.59 0.53 0.45 0.32 0.28 0.29 0.31 0.31 0.29 0.29 0.29 0.27 0.26 0.23 0.19 0.15 0.11 0.07 0.06 0.06 0.06 0.06 0.07 0.07 0.08 0.08 0.10 0.11 0.11 0.09 0.08
0.88 0.77 0.70 0.61 0.58 0.63 0.68 0.65 0.63 0.68 0.71 0.70 0.64 0.52 0.39 0.31 0.27 0.26 0.26 0.22 0.19 0.18 0.18 0.17 0.16 0.14 0.13 0.10 0.08 0.06 0.05 0.05 0.06 0.06 0.06 0.06 0.07 0.08 0.10 0.12 0.12 0.12 0.12
0.84 0.77 0.67 0.58 0.54 0.56 0.62 0.64 0.60 0.63 0.66 0.64 0.56 0.45 0.30 0.23 0.20 0.17 0.17 0.15 0.12 0.11 0.11 0.11 0.10 0.09 0.08 0.05 0.04 0.04 0.04 0.04 0.03 0.04 0.04 0.05 0.06 0.06 0.07 0.08 0.09 0.10 0.11
0.84 0.81 0.72 0.63 0.57 0.57 0.58 0.60 0.60 0.59 0.58 0.58 0.49 0.36 0.26 0.22 0.18 0.14 0.12 0.09 0.07 0.07 0.07 0.07 0.06 0.05 0.03 0.02 0.02 0.02 0.02 0.02 0.02 0.03 0.03 0.03 0.04 0.05 0.06 0.06 0.07 0.08 0.08
0.81 0.80 0.75 0.64 0.58 0.57 0.54 0.57 0.60 0.56 0.50 0.49 0.41 0.28 0.21 0.20 0.16 0.12 0.09 0.06 0.04 0.05 0.05 0.06 0.04 0.02 0.01 0.00 0.00 0.00 0.00 0.00 0.00 0.00 0.01 0.01 0.02 0.03 0.04 0.05 0.06 0.07 0.08
0.79 0.77 0.71 0.63 0.57 0.55 0.53 0.55 0.53 0.45 0.38 0.36 0.32 0.22 0.19 0.17 0.12 0.10 0.07 0.04 0.04 0.04 0.04 0.04 0.03 0.01 0.01 0.00 0.00 0.00 0.00 0.00 0.00 0.00 0.00 0.01 0.01 0.02 0.02 0.04 0.04 0.05 0.06
0.75 0.74 0.71 0.64 0.58 0.52 0.49 0.48 0.45 0.38 0.30 0.27 0.25 0.21 0.17 0.13 0.10 0.08 0.04 0.03 0.04 0.03 0.02 0.02 0.02 0.01 0.01 0.01 0.01 0.01 0.00 0.00 0.00 0.00 0.00 0.01 0.01 0.02 0.02 0.03 0.04 0.04 0.05
0.70 0.69 0.66 0.61 0.54 0.47 0.43 0.43 0.39 0.31 0.24 0.21 0.20 0.18 0.14 0.11 0.09 0.06 0.03 0.03 0.03 0.03 0.02 0.02 0.02 0.02 0.01 0.01 0.02 0.01 0.01 0.01 0.01 0.01 0.01 0.01 0.02 0.03 0.03 0.03 0.03 0.03 0.04

GEFSGL_prec_meanprecacc_084.txt.gz
Total_Precipitation_Accumulation
0.74 0.73 0.77 0.78 0.81 0.86 0.92 0.94 0.99 1.04 1.10 1.10 1.07 1.03 0.92 0.85 0.83 0.83 0.87 0.96 0.95 0.91 0.95 0.93 0.91 0.93 0.98 0.98 1.00 1.04 1.22 1.37 1.28 1.23 1.12 0.98 0.86 0.76 0.63 0.57 0.49 0.40 0.36
0.72 0.71 0.75 0.77 0.76 0.75 0.77 0.76 0.78 0.82 0.84 0.85 0.86 0.90 0.93 0.90 0.84 0.81 0.80 0.80 0.84 0.84 0.88 0.92 0.93 0.98 0.98 0.90 0.92 0.99 1.17 1.36 1.42 1.51 1.57 1.33 1.05 0.86 0.79 0.66 0.47 0.35 0.36
0.66 0.70 0.76 0.75 0.72 0.73 0.76 0.76 0.74 0.73 0.73 0.73 0.73 0.74 0.76 0.86 0.94 0.93 0.90 0.92 0.96 0.88 0.90 0.96 0.93 0.91 0.89 0.85 0.89 0.98 1.10 1.23 1.35 1.41 1.52 1.34 1.16 0.93 0.91 0.76 0.59 0.52 0.38
0.57 0.71 0.82 0.87 0.86 0.86 0.80 0.80 0.78 0.74 0.74 0.72 0.68 0.68 0.70 0.71 0.79 0.90 0.94 0.93 0.89 0.84 0.84 0.83 0.78 0.76 0.76 0.75 0.76 0.86 0.96 1.02 1.10 1.15 1.25 1.29 1.31 1.25 1.20 1.03 0.88 0.75 0.62
0.57 0.77 0.87 0.84 0.78 0.76 0.73 0.79 0.76 0.68 0.68 0.69 0.62 0.60 0.65 0.69 0.69 0.69 0.78 0.81 0.77 0.74 0.75 0.69 0.59 0.60 0.62 0.58 0.59 0.71 0.79 0.87 0.95 1.02 1.14 1.27 1.35 1.38 1.30 1.23 1.09 1.00 0.85
0.51 0.62 0.65 0.68 0.70 0.65 0.60 0.57 0.56 0.58 0.57 0.57 0.52 0.50 0.51 0.51 0.55 0.52 0.52 0.58 0.58 0.56 0.59 0.60 0.54 0.49 0.47 0.48 0.47 0.50 0.55 0.62 0.76 0.94 1.08 1.26 1.31 1.25 1.32 1.29 1.25 1.18 1.13
0.42 0.46 0.53 0.62 0.64 0.57 0.48 0.50 0.53 0.51 0.49 0.47 0.44 0.41 0.39 0.38 0.36 0.34 0.35 0.42 0.45 0.43 0.43 0.46 0.44 0.43 0.39 0.34 0.40 0.47 0.47 0.48 0.50 0.69 0.87 0.92 0.92 0.88 1.05 1.23 1.21 1.19 1.26
0.43 0.49 0.52 0.62 0.62 0.55 0.52 0.50 0.49 0.46 0.45 0.44 0.40 0.38 0.37 0.37 0.34 0.31 0.29 0.28 0.34 0.38 0.36 0.36 0.37 0.40 0.38 0.34 0.33 0.40 0.39 0.37 0.37 0.39 0.43 0.44 0.49 0.56 0.72 0.99 1.18 1.16 1.23
0.43 0.53 0.61 0.66 0.63 0.57 0.54 0.49 0.47 0.46 0.41 0.38 0.40 0.40 0.37 0.36 0.31 0.28 0.29 0.31 0.34 0.34 0.34 0.33 0.31 0.33 0.38 0.36 0.33 0.33 0.33 0.34 0.34 0.32 0.29 0.33 0.37 0.38 0.43 0.59 0.81 1.10 1.42
0.53 0.60 0.65 0.66 0.66 0.62 0.59 0.55 0.50 0.49 0.44 0.38 0.40 0.41 0.38 0.37 0.31 0.24 0.23 0.29 0.37 0.37 0.39 0.38 0.33 0.30 0.31 0.27 0.26 0.27 0.25 0.26 0.25 0.28 0.30 0.30 0.32 0.34 0.34 0.38 0.48 0.70 1.02
0.55 0.62 0.69 0.73 0.69 0.65 0.65 0.64 0.60 0.57 0.56 0.49 0.42 0.41 0.40 0.38 0.33 0.24 0.23 0.29 0.37 0.42 0.42 0.40 0.37 0.32 0.27 0.24 0.22 0.20 0.20 0.18 0.19 0.22 0.27 0.29 0.28 0.30 0.30 0.28 0.32 0.39 0.52
0.59 0.66 0.75 0.79 0.66 0.61 0.70 0.71 0.69 0.69 0.68 0.63 0.57 0.49 0.45 0.44 0.37 0.27 0.24 0.28 0.37 0.44 0.47 0.42 0.34 0.32 0.30 0.28 0.23 0.20 0.17 0.16 0.17 0.20 0.23 0.26 0.27 0.26 0.28 0.26 0.27 0.31 0.37
0.67 0.75 0.76 0.77 0.81 0.82 0.77 0.76 0.75 0.74 0.74 0.72 0.70 0.65 0.59 0.56 0.52 0.40 0.32 0.31 0.38 0.44 0.46 0.51 0.45 0.32 0.29 0.31 0.30 0.21 0.14 0.13 0.16 0.17 0.20 0.24 0.22 0.20 0.20 0.24 0.27 0.28 0.29
0.75 0.79 0.82 0.84 0.86 0.88 0.91 0.89 0.85 0.80 0.81 0.81 0.76 0.73 0.70 0.69 0.64 0.53 0.45 0.39 0.41 0.43 0.46 0.49 0.52 0.44 0.34 0.34 0.35 0.25 0.17 0.15 0.15 0.15 0.17 0.19 0.19 0.18 0.18 0.19 0.23 0.27 0.29
0.84 0.86 0.89 0.91 0.93 0.94 0.94 0.92 0.88 0.84 0.77 0.80 0.78 0.72 0.72 0.73 0.68 0.61 0.55 0.49 0.46 0.46 0.46 0.48 0.49 0.50 0.43 0.37 0.35 0.27 0.23 0.20 0.18 0.17 0.15 0.16 0.18 0.19 0.19 0.18 0.18 0.21 0.25
0.95 0.88 0.87 0.86 0.87 0.89 0.89 0.78 0.64 0.61 0.56 0.53 0.56 0.57 0.58 0.54 0.51 0.49 0.52 0.51 0.50 0.53 0.49 0.51 0.53 0.51 0.48 0.43 0.36 0.31 0.29 0.22 0.19 0.17 0.16 0.15 0.16 0.18 0.18 0.15 0.14 0.15 0.17
0.92 0.89 0.82 0.77 0.75 0.75 0.80 0.79 0.71 0.61 0.59 0.53 0.44 0.41 0.44 0.40 0.37 0.37 0.44 0.48 0.50 0.53 0.50 0.51 0.55 0.52 0.48 0.46 0.36 0.29 0.29 0.23 0.19 0.17 0.16 0.17 0.16 0.15 0.15 0.14 0.13 0.13 0.14
0.88 0.81 0.76 0.73 0.71 0.68 0.69 0.71 0.70 0.71 0.71 0.63 0.51 0.44 0.41 0.34 0.29 0.30 0.38 0.47 0.49 0.48 0.51 0.52 0.55 0.51 0.47 0.42 0.32 0.26 0.24 0.20 0.17 0.16 0.15 0.14 0.14 0.14 0.14 0.13 0.11 0.10 0.12
0.92 0.80 0.72 0.66 0.66 0.67 0.66 0.67 0.68 0.71 0.73 0.72 0.61 0.54 0.46 0.34 0.29 0.31 0.34 0.37 0.38 0.40 0.45 0.46 0.45 0.43 0.41 0.34 0.26 0.23 0.22 0.17 0.13 0.12 0.12 0.13 0.13 0.13 0.15 0.16 0.14 0.12 0.11
0.92 0.82 0.75 0.65 0.62 0.67 0.71 0.67 0.65 0.70 0.72 0.71 0.65 0.53 0.40 0.32 0.29 0.29 0.30 0.29 0.28 0.31 0.35 0.35 0.33 0.31 0.29 0.24 0.19 0.16 0.16 0.14 0.11 0.10 0.10 0.11 0.11 0.12 0.14 0.15 0.16 0.15 0.14
0.89 0.81 0.71 0.63 0.59 0.60 0.65 0.66 0.62 0.64 0.67 0.65 0.57 0.46 0.31 0.24 0.22 0.21 0.22 0.22 0.21 0.23 0.26 0.26 0.23 0.21 0.18 0.16 0.13 0.11 0.11 0.10 0.07 0.07 0.07 0.08 0.08 0.09 0.09 0.11 0.12 0.12 0.12
0.88 0.86 0.76 0.66 0.61 0.59 0.60 0.61 0.61 0.60 0.60 0.60 0.50 0.36 0.28 0.24 0.21 0.17 0.16 0.15 0.14 0.16 0.17 0.17 0.16 0.15 0.13 0.12 0.09 0.07 0.06 0.05 0.05 0.05 0.05 0.05 0.06 0.07 0.08 0.08 0.09 0.10 0.09
0.85 0.85 0.79 0.68 0.60 0.59 0.56 0.58 0.61 0.57 0.52 0.51 0.42 0.30 0.23 0.22 0.18 0.15 0.13 0.10 0.09 0.11 0.11 0.11 0.10 0.10 0.09 0.08 0.07 0.04 0.03 0.02 0.02 0.02 0.02 0.03 0.03 0.05 0.05 0.06 0.07 0.08 0.09
0.82 0.82 0.76 0.66 0.60 0.57 0.55 0.56 0.54 0.46 0.39 0.38 0.34 0.24 0.21 0.20 0.14 0.12 0.09 0.06 0.07 0.07 0.06 0.06 0.05 0.04 0.04 0.04 0.04 0.03 0.02 0.01 0.01 0.01 0.01 0.01 0.02 0.02 0.03 0.04 0.05 0.05 0.06
0.78 0.77 0.74 0.67 0.60 0.54 0.50 0.49 0.46 0.39 0.31 0.28 0.27 0.23 0.21 0.16 0.12 0.10 0.06 0.05 0.06 0.05 0.03 0.03 0.03 0.02 0.02 0.02 0.02 0.02 0.01 0.01 0.01 0.01 0.01 0.01 0.02 0.02 0.03 0.03 0.04 0.05 0.05
0.73 0.71 0.67 0.63 0.56 0.48 0.44 0.43 0.39 0.32 0.25 0.21 0.21 0.19 0.15 0.13 0.11 0.09 0.06 0.05 0.05 0.04 0.03 0.03 0.02 0.02 0.02 0.02 0.02 0.02 0.01 0.01 0.01 0.02 0.01 0.01 0.02 0.03 0.04 0.03 0.03 0.03 0.04

GEFSGL_prec_meanprecacc_090.txt.gz
Total_Precipitation_Accumulation
0.74 0.73 0.77 0.79 0.81 0.86 0.92 0.95 1.00 1.05 1.11 1.11 1.08 1.03 0.93 0.86 0.84 0.84 0.88 0.98 0.97 0.93 0.98 0.96 0.96 0.99 1.04 1.05 1.06 1.10 1.27 1.42 1.31 1.26 1.14 1.00 0.87 0.76 0.64 0.58 0.49 0.41 0.37
0.72 0.72 0.75 0.78 0.77 0.76 0.77 0.77 0.79 0.83 0.85 0.86 0.86 0.90 0.93 0.91 0.84 0.82 0.81 0.81 0.85 0.86 0.90 0.95 0.96 1.02 1.03 0.95 0.98 1.05 1.22 1.41 1.47 1.56 1.61 1.35 1.06 0.87 0.80 0.67 0.47 0.36 0.37
0.66 0.71 0.76 0.75 0.72 0.74 0.77 0.77 0.75 0.74 0.74 0.73 0.74 0.74 0.77 0.86 0.95 0.94 0.91 0.93 0.96 0.89 0.92 0.99 0.97 0.95 0.93 0.89 0.93 1.02 1.14 1.28 1.39 1.46 1.56 1.38 1.18 0.94 0.92 0.77 0.60 0.53 0.38
0.57 0.71 0.83 0.88 0.87 0.87 0.81 0.81 0.79 0.75 0.75 0.73 0.69 0.69 0.71 0.72 0.80 0.92 0.95 0.94 0.90 0.85 0.85 0.85 0.81 0.80 0.80 0.79 0.80 0.90 1.00 1.06 1.14 1.19 1.29 1.32 1.33 1.27 1.21 1.04 0.89 0.76 0.63
0.57 0.78 0.88 0.86 0.80 0.78 0.75 0.81 0.78 0.70 0.69 0.71 0.63 0.61 0.66 0.70 0.69 0.70 0.79 0.82 0.79 0.76 0.77 0.70 0.60 0.62 0.66 0.62 0.63 0.75 0.84 0.91 0.99 1.05 1.16 1.29 1.36 1.40 1.31 1.24 1.10 1.01 0.86
0.53 0.64 0.67 0.71 0.73 0.68 0.63 0.60 0.61 0.62 0.61 0.61 0.56 0.54 0.54 0.52 0.56 0.52 0.53 0.59 0.60 0.58 0.60 0.61 0.55 0.50 0.49 0.51 0.50 0.53 0.59 0.67 0.81 0.98 1.11 1.28 1.33 1.27 1.34 1.31 1.26 1.20 1.15
0.45 0.49 0.56 0.67 0.69 0.61 0.52 0.54 0.59 0.58 0.56 0.55 0.50 0.46 0.43 0.42 0.38 0.35 0.36 0.44 0.47 0.45 0.45 0.47 0.45 0.43 0.40 0.36 0.42 0.49 0.49 0.50 0.54 0.74 0.92 0.96 0.95 0.90 1.07 1.26 1.23 1.21 1.27
0.46 0.52 0.57 0.68 0.68 0.62 0.58 0.56 0.55 0.54 0.54 0.53 0.48 0.44 0.43 0.41 0.36 0.32 0.29 0.29 0.37 0.41 0.38 0.38 0.39 0.41 0.38 0.35 0.36 0.42 0.41 0.39 0.39 0.42 0.47 0.49 0.53 0.60 0.76 1.02 1.21 1.19 1.26
0.47 0.57 0.67 0.74 0.72 0.67 0.63 0.58 0.55 0.54 0.50 0.47 0.48 0.48 0.44 0.41 0.33 0.29 0.29 0.33 0.37 0.37 0.36 0.34 0.33 0.35 0.39 0.37 0.35 0.36 0.36 0.37 0.35 0.34 0.33 0.37 0.40 0.41 0.47 0.63 0.85 1.14 1.46
0.57 0.64 0.70 0.73 0.75 0.72 0.68 0.64 0.59 0.58 0.52 0.46 0.47 0.48 0.45 0.45 0.35 0.25 0.24 0.32 0.40 0.41 0.43 0.41 0.34 0.30 0.32 0.28 0.27 0.30 0.30 0.30 0.28 0.30 0.32 0.32 0.34 0.37 0.35 0.41 0.51 0.73 1.06
0.60 0.67 0.74 0.80 0.76 0.73 0.73 0.74 0.70 0.66 0.65 0.57 0.49 0.48 0.47 0.45 0.37 0.26 0.23 0.31 0.41 0.46 0.45 0.43 0.40 0.33 0.27 0.24 0.23 0.23 0.26 0.24 0.25 0.27 0.31 0.32 0.32 0.33 0.32 0.30 0.36 0.43 0.55
0.64 0.71 0.81 0.87 0.73 0.68 0.79 0.80 0.78 0.78 0.77 0.72 0.65 0.57 0.52 0.50 0.40 0.29 0.24 0.29 0.39 0.48 0.51 0.46 0.37 0.33 0.31 0.28 0.25 0.24 0.25 0.23 0.23 0.27 0.30 0.32 0.32 0.31 0.32 0.30 0.32 0.37 0.43
0.72 0.80 0.83 0.85 0.88 0.90 0.86 0.85 0.85 0.82 0.83 0.81 0.79 0.74 0.67 0.64 0.57 0.41 0.32 0.31 0.38 0.46 0.50 0.54 0.48 0.33 0.29 0.32 0.33 0.28 0.22 0.21 0.23 0.24 0.27 0.30 0.28 0.26 0.26 0.30 0.34 0.35 0.37
0.82 0.86 0.89 0.92 0.93 0.96 1.00 0.97 0.93 0.88 0.89 0.90 0.85 0.81 0.79 0.78 0.71 0.58 0.48 0.41 0.43 0.44 0.47 0.50 0.54 0.46 0.35 0.36 0.40 0.34 0.26 0.25 0.25 0.23 0.23 0.27 0.27 0.25 0.25 0.26 0.29 0.34 0.39
0.91 0.94 0.96 0.98 1.00 1.02 1.02 0.99 0.94 0.92 0.84 0.86 0.86 0.80 0.81 0.81 0.74 0.65 0.61 0.55 0.52 0.51 0.49 0.52 0.53 0.55 0.47 0.42 0.43 0.39 0.35 0.34 0.32 0.29 0.24 0.26 0.29 0.28 0.27 0.24 0.24 0.27 0.34
1.02 0.95 0.94 0.92 0.95 0.98 0.97 0.84 0.68 0.64 0.59 0.56 0.59 0.62 0.62 0.58 0.53 0.51 0.53 0.52 0.53 0.55 0.52 0.56 0.60 0.61 0.56 0.53 0.50 0.47 0.47 0.41 0.36 0.33 0.27 0.24 0.26 0.27 0.25 0.22 0.21 0.22 0.24
0.99 0.95 0.89 0.83 0.83 0.82 0.86 0.86 0.77 0.66 0.62 0.56 0.46 0.42 0.45 0.42 0.38 0.39 0.45 0.50 0.53 0.56 0.55 0.58 0.64 0.63 0.61 0.60 0.54 0.48 0.52 0.46 0.40 0.37 0.31 0.27 0.26 0.25 0.24 0.21 0.21 0.20 0.22
0.93 0.86 0.82 0.79 0.77 0.74 0.74 0.76 0.76 0.78 0.78 0.68 0.53 0.45 0.41 0.34 0.31 0.32 0.41 0.51 0.54 0.54 0.58 0.61 0.66 0.64 0.63 0.61 0.55 0.52 0.54 0.47 0.41 0.38 0.32 0.26 0.24 0.24 0.24 0.21 0.18 0.17 0.18
0.97 0.85 0.77 0.72 0.71 0.72 0.70 0.71 0.72 0.76 0.79 0.77 0.64 0.56 0.47 0.35 0.31 0.33 0.37 0.42 0.45 0.48 0.54 0.58 0.59 0.60 0.61 0.57 0.49 0.48 0.51 0.45 0.37 0.32 0.28 0.25 0.22 0.22 0.23 0.22 0.20 0.19 0.17
0.96 0.85 0.78 0.70 0.67 0.71 0.74 0.71 0.69 0.75 0.77 0.75 0.68 0.55 0.41 0.34 0.31 0.32 0.34 0.35 0.37 0.41 0.47 0.50 0.48 0.49 0.50 0.46 0.39 0.38 0.43 0.41 0.33 0.30 0.27 0.24 0.21 0.19 0.20 0.21 0.20 0.20 0.19
0.92 0.83 0.74 0.66 0.63 0.64 0.69 0.69 0.65 0.69 0.72 0.68 0.60 0.48 0.33 0.27 0.27 0.28 0.30 0.31 0.32 0.35 0.38 0.41 0.39 0.39 0.37 0.36 0.32 0.29 0.34 0.33 0.27 0.23 0.22 0.20 0.17 0.15 0.14 0.15 0.16 0.16 0.16
0.91 0.88 0.78 0.69 0.64 0.62 0.63 0.65 0.65 0.64 0.65 0.64 0.54 0.39 0.31 0.28 0.26 0.24 0.24 0.23 0.23 0.26 0.29 0.32 0.32 0.30 0.29 0.28 0.24 0.21 0.23 0.23 0.20 0.17 0.15 0.14 0.12 0.12 0.11 0.11 0.12 0.14 0.13
0.87 0.87 0.80 0.70 0.62 0.61 0.59 0.62 0.65 0.61 0.56 0.55 0.47 0.35 0.29 0.28 0.24 0.21 0.20 0.18 0.18 0.20 0.21 0.23 0.22 0.20 0.19 0.19 0.17 0.15 0.14 0.14 0.12 0.09 0.08 0.08 0.07 0.08 0.08 0.08 0.09 0.11 0.12
0.84 0.83 0.77 0.68 0.61 0.59 0.57 0.59 0.58 0.49 0.42 0.41 0.39 0.30 0.28 0.26 0.20 0.17 0.14 0.12 0.13 0.13 0.12 0.13 0.13 0.12 0.13 0.14 0.14 0.12 0.10 0.09 0.07 0.05 0.04 0.03 0.04 0.04 0.04 0.05 0.06 0.07 0.08
0.80 0.78 0.75 0.68 0.62 0.55 0.52 0.51 0.49 0.42 0.35 0.32 0.32 0.28 0.25 0.21 0.17 0.15 0.10 0.10 0.10 0.09 0.08 0.09 0.10 0.11 0.12 0.11 0.11 0.10 0.08 0.06 0.05 0.04 0.03 0.02 0.03 0.03 0.04 0.04 0.05 0.05 0.06
0.75 0.72 0.69 0.64 0.57 0.49 0.46 0.45 0.42 0.35 0.29 0.25 0.25 0.24 0.21 0.19 0.17 0.14 0.11 0.10 0.09 0.08 0.07 0.07 0.09 0.10 0.10 0.09 0.08 0.07 0.05 0.04 0.04 0.04 0.04 0.03 0.03 0.04 0.04 0.04 0.03 0.04 0.04

GEFSGL_prec_meanprecacc_096.txt.gz
Total_Precipitation_Accumulation
0.74 0.73 0.77 0.79 0.83 0.88 0.94 0.96 1.01 1.07 1.14 1.15 1.11 1.07 0.97 0.90 0.87 0.88 0.90 0.99 0.99 0.97 1.03 1.03 1.05 1.11 1.18 1.19 1.20 1.22 1.39 1.55 1.44 1.37 1.23 1.07 0.93 0.80 0.65 0.59 0.50 0.42 0.37
0.72 0.72 0.75 0.78 0.78 0.77 0.80 0.79 0.81 0.86 0.89 0.90 0.91 0.96 0.99 0.96 0.91 0.88 0.85 0.83 0.86 0.87 0.93 1.00 1.02 1.10 1.15 1.09 1.15 1.21 1.37 1.55 1.61 1.71 1.75 1.49 1.17 0.95 0.85 0.71 0.48 0.37 0.37
0.66 0.71 0.77 0.75 0.74 0.77 0.80 0.80 0.78 0.78 0.79 0.79 0.79 0.82 0.83 0.92 1.01 1.01 0.98 0.97 0.98 0.89 0.93 1.01 1.00 1.00 1.00 0.99 1.07 1.17 1.30 1.43 1.55 1.60 1.71 1.52 1.31 1.05 1.02 0.83 0.64 0.56 0.39
0.57 0.72 0.84 0.89 0.90 0.90 0.85 0.86 0.84 0.80 0.80 0.79 0.74 0.74 0.77 0.77 0.84 0.96 1.00 0.98 0.93 0.87 0.86 0.86 0.82 0.82 0.85 0.86 0.89 1.02 1.13 1.22 1.31 1.34 1.43 1.44 1.43 1.37 1.31 1.11 0.96 0.81 0.64
0.58 0.79 0.90 0.88 0.83 0.82 0.80 0.87 0.84 0.76 0.74 0.78 0.70 0.67 0.71 0.76 0.74 0.75 0.84 0.86 0.83 0.79 0.79 0.72 0.61 0.63 0.68 0.67 0.69 0.84 0.94 1.02 1.12 1.19 1.30 1.40 1.46 1.49 1.39 1.31 1.17 1.07 0.89
0.55 0.66 0.70 0.74 0.77 0.73 0.68 0.67 0.68 0.70 0.70 0.70 0.63 0.60 0.61 0.57 0.60 0.56 0.57 0.63 0.64 0.63 0.65 0.65 0.57 0.51 0.49 0.52 0.52 0.58 0.66 0.75 0.91 1.09 1.24 1.40 1.42 1.35 1.42 1.39 1.34 1.25 1.18
0.48 0.52 0.60 0.71 0.73 0.67 0.58 0.61 0.67 0.69 0.67 0.65 0.59 0.55 0.52 0.51 0.43 0.38 0.38 0.47 0.52 0.50 0.51 0.54 0.48 0.44 0.41 0.37 0.43 0.51 0.52 0.54 0.59 0.82 1.03 1.09 1.06 0.98 1.16 1.34 1.30 1.26 1.31
0.48 0.56 0.61 0.72 0.73 0.68 0.66 0.65 0.65 0.65 0.64 0.64 0.59 0.55 0.55 0.53 0.43 0.35 0.31 0.31 0.40 0.45 0.44 0.44 0.44 0.46 0.41 0.38 0.38 0.44 0.43 0.41 0.41 0.45 0.52 0.59 0.66 0.72 0.87 1.13 1.32 1.28 1.32
0.50 0.61 0.71 0.79 0.79 0.74 0.71 0.68 0.65 0.64 0.59 0.58 0.60 0.60 0.59 0.54 0.41 0.33 0.32 0.35 0.41 0.41 0.40 0.40 0.39 0.41 0.43 0.39 0.36 0.39 0.39 0.40 0.37 0.36 0.36 0.42 0.49 0.53 0.60 0.74 0.94 1.22 1.51
0.60 0.68 0.75 0.80 0.83 0.80 0.78 0.75 0.70 0.69 0.62 0.57 0.58 0.61 0.59 0.59 0.44 0.28 0.26 0.35 0.45 0.47 0.51 0.48 0.39 0.35 0.35 0.29 0.29 0.33 0.33 0.33 0.31 0.33 0.34 0.35 0.38 0.43 0.43 0.50 0.58 0.80 1.10
0.63 0.71 0.80 0.88 0.85 0.82 0.84 0.85 0.82 0.78 0.76 0.69 0.62 0.61 0.61 0.58 0.47 0.28 0.24 0.33 0.46 0.54 0.55 0.53 0.47 0.38 0.28 0.25 0.24 0.25 0.29 0.28 0.30 0.34 0.36 0.37 0.38 0.38 0.37 0.37 0.43 0.49 0.59
0.68 0.77 0.87 0.95 0.80 0.74 0.89 0.91 0.90 0.90 0.90 0.85 0.79 0.70 0.66 0.62 0.47 0.33 0.25 0.30 0.42 0.56 0.62 0.58 0.48 0.38 0.32 0.29 0.25 0.24 0.25 0.24 0.27 0.33 0.37 0.38 0.38 0.37 0.38 0.38 0.40 0.44 0.49
0.76 0.86 0.90 0.92 0.96 0.98 0.96 0.97 0.98 0.96 0.97 0.96 0.93 0.87 0.80 0.77 0.66 0.43 0.33 0.31 0.38 0.49 0.56 0.61 0.53 0.36 0.31 0.33 0.34 0.28 0.22 0.22 0.26 0.28 0.33 0.36 0.34 0.33 0.35 0.41 0.44 0.44 0.45
0.87 0.92 0.96 0.99 1.01 1.05 1.12 1.10 1.06 1.01 1.03 1.04 0.98 0.95 0.93 0.91 0.83 0.67 0.54 0.45 0.44 0.45 0.49 0.52 0.55 0.48 0.36 0.37 0.41 0.34 0.26 0.26 0.28 0.27 0.29 0.34 0.35 0.35 0.36 0.37 0.39 0.43 0.46
0.97 1.00 1.04 1.06 1.09 1.12 1.14 1.09 1.02 0.99 0.89 0.92 0.94 0.92 0.93 0.93 0.82 0.72 0.68 0.64 0.59 0.56 0.54 0.59 0.59 0.60 0.50 0.44 0.46 0.42 0.37 0.36 0.34 0.33 0.32 0.34 0.38 0.39 0.38 0.36 0.35 0.34 0.40
1.09 1.02 1.01 1.00 1.04 1.09 1.09 0.94 0.73 0.66 0.59 0.56 0.60 0.64 0.65 0.61 0.55 0.51 0.54 0.54 0.54 0.58 0.56 0.64 0.69 0.69 0.63 0.59 0.56 0.52 0.51 0.46 0.40 0.39 0.37 0.34 0.35 0.37 0.36 0.35 0.33 0.30 0.30
1.06 1.02 0.96 0.91 0.92 0.92 0.96 0.98 0.89 0.73 0.65 0.57 0.47 0.43 0.46 0.42 0.39 0.40 0.46 0.51 0.53 0.57 0.59 0.64 0.72 0.73 0.71 0.70 0.63 0.56 0.58 0.52 0.48 0.46 0.43 0.41 0.38 0.38 0.35 0.33 0.33 0.32 0.30
0.99 0.91 0.88 0.88 0.86 0.83 0.83 0.86 0.86 0.90 0.88 0.75 0.56 0.46 0.42 0.35 0.31 0.32 0.41 0.52 0.56 0.56 0.63 0.68 0.75 0.73 0.72 0.71 0.68 0.63 0.62 0.54 0.50 0.48 0.44 0.41 0.39 0.39 0.38 0.34 0.29 0.27 0.28
1.01 0.88 0.82 0.79 0.79 0.79 0.77 0.77 0.79 0.85 0.90 0.87 0.71 0.59 0.49 0.36 0.31 0.34 0.38 0.46 0.53 0.58 0.64 0.67 0.69 0.70 0.72 0.69 0.64 0.61 0.62 0.54 0.47 0.43 0.40 0.38 0.37 0.38 0.40 0.37 0.33 0.31 0.26
1.00 0.87 0.81 0.75 0.73 0.77 0.80 0.77 0.76 0.83 0.87 0.84 0.77 0.61 0.45 0.38 0.37 0.37 0.38 0.42 0.48 0.54 0.58 0.60 0.59 0.60 0.61 0.60 0.56 0.55 0.58 0.55 0.48 0.43 0.39 0.37 0.35 0.34 0.37 0.37 0.32 0.30 0.27
0.96 0.87 0.76 0.70 0.67 0.69 0.75 0.76 0.73 0.76 0.79 0.75 0.65 0.51 0.36 0.34 0.38 0.39 0.40 0.41 0.44 0.47 0.49 0.52 0.52 0.51 0.49 0.50 0.49 0.47 0.51 0.50 0.42 0.37 0.35 0.34 0.31 0.30 0.31 0.30 0.28 0.25 0.25
0.95 0.92 0.82 0.73 0.68 0.66 0.68 0.72 0.73 0.73 0.72 0.69 0.58 0.42 0.34 0.34 0.35 0.35 0.34 0.33 0.33 0.38 0.43 0.49 0.49 0.46 0.44 0.44 0.40 0.36 0.39 0.38 0.34 0.31 0.30 0.29 0.28 0.26 0.26 0.26 0.25 0.23 0.21
0.90 0.90 0.84 0.73 0.66 0.64 0.64 0.68 0.72 0.69 0.63 0.61 0.52 0.40 0.34 0.37 0.33 0.31 0.28 0.27 0.30 0.34 0.37 0.40 0.40 0.37 0.34 0.33 0.31 0.29 0.28 0.28 0.28 0.25 0.23 0.22 0.21 0.19 0.18 0.19 0.20 0.20 0.20
0.85 0.85 0.79 0.70 0.64 0.62 0.62 0.65 0.63 0.55 0.47 0.47 0.46 0.36 0.35 0.35 0.30 0.27 0.21 0.20 0.23 0.25 0.26 0.27 0.25 0.23 0.23 0.25 0.25 0.24 0.22 0.22 0.22 0.21 0.17 0.16 0.15 0.14 0.14 0.15 0.15 0.15 0.16
0.81 0.80 0.77 0.69 0.63 0.58 0.55 0.55 0.54 0.48 0.41 0.38 0.37 0.33 0.31 0.28 0.25 0.23 0.19 0.20 0.21 0.20 0.17 0.17 0.18 0.19 0.19 0.18 0.18 0.17 0.15 0.15 0.17 0.18 0.16 0.13 0.12 0.12 0.12 0.13 0.13 0.13 0.13
0.76 0.74 0.70 0.65 0.58 0.51 0.49 0.48 0.46 0.39 0.33 0.29 0.29 0.28 0.26 0.24 0.23 0.21 0.19 0.19 0.18 0.15 0.13 0.13 0.15 0.15 0.15 0.14 0.14 0.12 0.10 0.11 0.13 0.14 0.12 0.10 0.10 0.10 0.09 0.09 0.08 0.09 0.09

GEFSGL_prec_meanprecacc_102.txt.gz
Total_Precipitation_Accumulation
0.74 0.73 0.77 0.79 0.83 0.88 0.95 0.96 1.02 1.08 1.15 1.16 1.12 1.08 0.99 0.92 0.90 0.91 0.93 1.02 1.03 1.02 1.10 1.12 1.13 1.21 1.30 1.31 1.31 1.35 1.54 1.70 1.58 1.48 1.35 1.20 1.04 0.86 0.69 0.62 0.52 0.43 0.38
0.72 0.72 0.75 0.78 0.78 0.78 0.80 0.79 0.81 0.86 0.89 0.91 0.91 0.97 1.00 0.98 0.93 0.91 0.87 0.85 0.90 0.91 0.97 1.06 1.09 1.18 1.24 1.19 1.24 1.31 1.48 1.67 1.75 1.85 1.90 1.64 1.30 1.03 0.90 0.74 0.51 0.38 0.38
0.66 0.71 0.77 0.76 0.74 0.77 0.80 0.80 0.79 0.78 0.80 0.79 0.81 0.83 0.85 0.93 1.03 1.04 1.01 1.00 1.02 0.93 0.97 1.05 1.04 1.05 1.07 1.07 1.15 1.26 1.40 1.54 1.67 1.74 1.86 1.68 1.46 1.17 1.09 0.89 0.67 0.57 0.39
0.57 0.72 0.84 0.89 0.90 0.90 0.85 0.86 0.84 0.80 0.81 0.79 0.75 0.75 0.78 0.79 0.86 0.99 1.04 1.02 0.98 0.91 0.90 0.89 0.86 0.85 0.88 0.92 0.97 1.10 1.22 1.32 1.44 1.48 1.57 1.61 1.60 1.55 1.44 1.20 1.01 0.83 0.65
0.58 0.79 0.90 0.88 0.83 0.82 0.81 0.88 0.85 0.77 0.75 0.79 0.72 0.68 0.73 0.77 0.76 0.77 0.87 0.90 0.87 0.83 0.84 0.76 0.64 0.66 0.70 0.69 0.73 0.89 1.01 1.10 1.21 1.32 1.44 1.58 1.63 1.66 1.53 1.41 1.26 1.12 0.92
0.55 0.66 0.70 0.74 0.77 0.73 0.68 0.67 0.69 0.71 0.71 0.71 0.65 0.63 0.63 0.58 0.62 0.58 0.60 0.67 0.69 0.67 0.69 0.69 0.61 0.53 0.51 0.53 0.53 0.60 0.70 0.81 0.97 1.18 1.35 1.53 1.59 1.49 1.55 1.52 1.45 1.33 1.22
0.48 0.52 0.60 0.71 0.74 0.67 0.58 0.61 0.68 0.69 0.68 0.66 0.60 0.56 0.54 0.52 0.46 0.40 0.40 0.49 0.55 0.54 0.55 0.57 0.51 0.46 0.43 0.38 0.44 0.52 0.53 0.57 0.64 0.88 1.11 1.18 1.19 1.13 1.29 1.45 1.40 1.34 1.37
0.49 0.56 0.62 0.72 0.73 0.69 0.66 0.65 0.65 0.65 0.65 0.65 0.60 0.56 0.57 0.54 0.46 0.38 0.34 0.33 0.43 0.49 0.48 0.48 0.47 0.47 0.42 0.39 0.39 0.45 0.43 0.42 0.42 0.48 0.58 0.66 0.77 0.85 0.99 1.24 1.43 1.37 1.39
0.50 0.61 0.71 0.80 0.79 0.74 0.72 0.69 0.67 0.65 0.60 0.59 0.61 0.62 0.60 0.55 0.44 0.36 0.34 0.37 0.43 0.44 0.45 0.44 0.43 0.44 0.44 0.40 0.37 0.40 0.40 0.40 0.38 0.37 0.38 0.47 0.58 0.65 0.73 0.86 1.04 1.30 1.58
0.60 0.69 0.75 0.80 0.83 0.80 0.79 0.76 0.71 0.70 0.63 0.58 0.60 0.63 0.60 0.61 0.47 0.31 0.28 0.36 0.47 0.49 0.54 0.53 0.43 0.37 0.37 0.30 0.30 0.34 0.34 0.34 0.33 0.34 0.36 0.37 0.42 0.51 0.55 0.62 0.68 0.87 1.16
0.64 0.72 0.80 0.88 0.86 0.82 0.84 0.86 0.83 0.80 0.78 0.71 0.64 0.63 0.63 0.60 0.49 0.31 0.26 0.35 0.48 0.56 0.57 0.57 0.51 0.40 0.30 0.26 0.25 0.26 0.30 0.29 0.32 0.35 0.38 0.39 0.40 0.44 0.46 0.49 0.55 0.57 0.65
0.68 0.77 0.88 0.95 0.80 0.75 0.90 0.92 0.91 0.92 0.92 0.87 0.81 0.72 0.68 0.63 0.48 0.34 0.27 0.31 0.43 0.57 0.65 0.61 0.51 0.40 0.33 0.30 0.26 0.26 0.27 0.26 0.29 0.35 0.39 0.40 0.40 0.40 0.44 0.46 0.49 0.54 0.59
0.77 0.87 0.91 0.93 0.97 0.99 0.97 0.97 0.99 0.97 0.99 0.97 0.95 0.88 0.82 0.79 0.67 0.44 0.34 0.32 0.39 0.50 0.57 0.63 0.56 0.38 0.33 0.34 0.34 0.29 0.24 0.24 0.28 0.30 0.34 0.38 0.35 0.35 0.40 0.49 0.53 0.52 0.54
0.88 0.93 0.97 1.00 1.02 1.07 1.13 1.11 1.07 1.02 1.04 1.05 0.99 0.96 0.95 0.93 0.84 0.68 0.55 0.45 0.45 0.46 0.50 0.54 0.57 0.49 0.38 0.39 0.43 0.35 0.27 0.27 0.29 0.29 0.30 0.36 0.38 0.39 0.42 0.45 0.47 0.50 0.54
0.98 1.01 1.04 1.07 1.10 1.13 1.15 1.10 1.03 0.99 0.89 0.93 0.95 0.93 0.95 0.94 0.83 0.72 0.69 0.66 0.61 0.57 0.55 0.61 0.60 0.62 0.52 0.47 0.48 0.44 0.39 0.37 0.35 0.34 0.33 0.36 0.41 0.43 0.45 0.45 0.44 0.42 0.46
1.09 1.03 1.02 1.01 1.05 1.10 1.10 0.95 0.74 0.66 0.60 0.57 0.61 0.65 0.66 0.62 0.55 0.52 0.55 0.56 0.57 0.59 0.57 0.66 0.71 0.70 0.65 0.61 0.58 0.54 0.53 0.47 0.41 0.40 0.39 0.37 0.39 0.42 0.43 0.44 0.42 0.39 0.36
1.07 1.03 0.96 0.92 0.93 0.93 0.98 1.00 0.90 0.74 0.66 0.58 0.48 0.44 0.47 0.43 0.39 0.40 0.47 0.52 0.55 0.58 0.60 0.66 0.73 0.74 0.72 0.73 0.65 0.58 0.60 0.54 0.49 0.48 0.45 0.44 0.43 0.43 0.41 0.41 0.43 0.42 0.37
1.00 0.91 0.88 0.89 0.87 0.84 0.85 0.88 0.89 0.92 0.89 0.76 0.57 0.47 0.43 0.36 0.32 0.33 0.42 0.53 0.58 0.58 0.64 0.69 0.77 0.74 0.74 0.74 0.70 0.65 0.64 0.57 0.52 0.50 0.47 0.45 0.44 0.45 0.44 0.41 0.39 0.39 0.36
1.01 0.89 0.83 0.79 0.80 0.80 0.78 0.79 0.81 0.87 0.92 0.89 0.73 0.61 0.50 0.36 0.32 0.34 0.39 0.47 0.55 0.60 0.66 0.69 0.71 0.71 0.74 0.71 0.66 0.64 0.65 0.57 0.51 0.48 0.43 0.43 0.43 0.47 0.48 0.44 0.42 0.42 0.38
1.01 0.88 0.81 0.76 0.74 0.78 0.81 0.79 0.78 0.85 0.88 0.86 0.78 0.63 0.47 0.40 0.39 0.39 0.40 0.43 0.50 0.56 0.60 0.62 0.61 0.63 0.63 0.62 0.58 0.58 0.62 0.59 0.53 0.48 0.43 0.41 0.41 0.45 0.47 0.44 0.40 0.40 0.37
0.97 0.87 0.77 0.71 0.68 0.70 0.76 0.77 0.74 0.78 0.81 0.76 0.67 0.52 0.38 0.36 0.41 0.43 0.44 0.45 0.47 0.50 0.53 0.57 0.57 0.55 0.52 0.53 0.52 0.51 0.56 0.55 0.48 0.42 0.40 0.38 0.38 0.42 0.42 0.39 0.37 0.34 0.33
0.96 0.93 0.82 0.74 0.69 0.67 0.68 0.73 0.74 0.74 0.73 0.70 0.59 0.44 0.37 0.37 0.39 0.41 0.40 0.39 0.39 0.43 0.48 0.54 0.55 0.51 0.49 0.49 0.46 0.43 0.46 0.44 0.40 0.37 0.36 0.34 0.36 0.39 0.38 0.36 0.35 0.33 0.30
0.90 0.90 0.84 0.74 0.66 0.64 0.65 0.69 0.73 0.70 0.64 0.62 0.54 0.42 0.37 0.40 0.37 0.37 0.36 0.34 0.36 0.39 0.41 0.45 0.46 0.43 0.40 0.39 0.37 0.35 0.34 0.33 0.33 0.30 0.28 0.28 0.29 0.32 0.31 0.31 0.33 0.32 0.29
0.85 0.85 0.80 0.71 0.64 0.62 0.62 0.66 0.64 0.56 0.48 0.49 0.47 0.39 0.38 0.38 0.33 0.31 0.26 0.26 0.29 0.30 0.29 0.31 0.30 0.30 0.29 0.29 0.30 0.29 0.27 0.26 0.27 0.26 0.23 0.22 0.23 0.24 0.24 0.26 0.28 0.29 0.28
0.82 0.81 0.77 0.70 0.64 0.58 0.56 0.56 0.54 0.49 0.42 0.38 0.38 0.36 0.34 0.31 0.28 0.25 0.21 0.23 0.25 0.25 0.22 0.22 0.23 0.23 0.23 0.21 0.21 0.20 0.19 0.21 0.22 0.23 0.21 0.19 0.20 0.21 0.21 0.22 0.23 0.26 0.25
0.77 0.74 0.70 0.65 0.58 0.51 0.49 0.49 0.47 0.40 0.35 0.31 0.30 0.30 0.29 0.28 0.26 0.24 0.21 0.21 0.21 0.20 0.18 0.18 0.19 0.19 0.18 0.17 0.16 0.14 0.13 0.16 0.20 0.20 0.18 0.16 0.18 0.19 0.19 0.17 0.18 0.19 0.20

GEFSGL_prec_meanprecacc_108.txt.gz
Total_Precipitation_Accumulation
0.74 0.73 0.77 0.79 0.83 0.88 0.95 0.96 1.02 1.08 1.15 1.16 1.13 1.08 0.99 0.92 0.91 0.92 0.94 1.04 1.04 1.03 1.11 1.14 1.18 1.27 1.39 1.45 1.47 1.50 1.66 1.81 1.67 1.57 1.43 1.29 1.12 0.93 0.74 0.67 0.57 0.47 0.42
0.72 0.72 0.75 0.78 0.78 0.78 0.80 0.79 0.81 0.86 0.89 0.91 0.91 0.97 1.00 0.98 0.94 0.92 0.88 0.87 0.91 0.92 0.99 1.08 1.13 1.25 1.32 1.30 1.40 1.47 1.62 1.80 1.87 1.97 2.02 1.74 1.40 1.13 0.98 0.81 0.56 0.41 0.41
0.66 0.71 0.77 0.76 0.74 0.77 0.80 0.80 0.79 0.78 0.80 0.79 0.81 0.83 0.85 0.93 1.04 1.05 1.02 1.01 1.03 0.94 0.99 1.08 1.07 1.10 1.16 1.17 1.27 1.41 1.56 1.67 1.79 1.87 2.00 1.82 1.58 1.27 1.18 0.96 0.72 0.61 0.41
0.57 0.72 0.84 0.89 0.90 0.90 0.85 0.86 0.84 0.80 0.81 0.79 0.75 0.76 0.78 0.79 0.86 0.99 1.04 1.03 0.99 0.93 0.92 0.92 0.90 0.89 0.95 1.01 1.07 1.21 1.37 1.47 1.56 1.59 1.70 1.76 1.75 1.68 1.54 1.28 1.07 0.86 0.67
0.58 0.79 0.90 0.88 0.83 0.82 0.81 0.88 0.85 0.77 0.75 0.79 0.72 0.68 0.73 0.77 0.76 0.78 0.88 0.91 0.88 0.85 0.85 0.77 0.67 0.69 0.74 0.76 0.82 0.99 1.12 1.23 1.35 1.43 1.56 1.71 1.78 1.82 1.66 1.51 1.34 1.18 0.95
0.55 0.66 0.70 0.74 0.77 0.73 0.68 0.67 0.69 0.71 0.71 0.71 0.65 0.63 0.63 0.58 0.62 0.59 0.60 0.67 0.69 0.68 0.71 0.71 0.63 0.56 0.54 0.57 0.60 0.68 0.79 0.91 1.09 1.29 1.46 1.64 1.71 1.65 1.71 1.65 1.54 1.41 1.27
0.48 0.52 0.60 0.71 0.74 0.67 0.58 0.61 0.68 0.69 0.68 0.66 0.61 0.56 0.54 0.52 0.46 0.41 0.41 0.50 0.56 0.55 0.56 0.60 0.54 0.49 0.45 0.41 0.48 0.57 0.59 0.64 0.72 0.98 1.21 1.28 1.29 1.26 1.43 1.58 1.50 1.42 1.43
0.49 0.56 0.62 0.73 0.73 0.69 0.66 0.65 0.65 0.66 0.65 0.65 0.60 0.56 0.57 0.54 0.46 0.38 0.34 0.33 0.43 0.50 0.49 0.50 0.50 0.50 0.46 0.43 0.42 0.48 0.47 0.46 0.47 0.54 0.65 0.74 0.87 0.96 1.12 1.38 1.56 1.47 1.46
0.50 0.61 0.71 0.80 0.79 0.74 0.72 0.69 0.67 0.65 0.60 0.59 0.61 0.62 0.60 0.55 0.44 0.36 0.34 0.38 0.43 0.45 0.46 0.47 0.47 0.48 0.48 0.44 0.40 0.41 0.42 0.43 0.41 0.41 0.43 0.53 0.66 0.75 0.85 1.00 1.19 1.41 1.66
0.60 0.69 0.75 0.80 0.83 0.80 0.79 0.76 0.71 0.70 0.63 0.58 0.60 0.63 0.60 0.62 0.47 0.31 0.28 0.37 0.47 0.49 0.55 0.55 0.46 0.41 0.40 0.33 0.31 0.35 0.35 0.35 0.34 0.36 0.38 0.40 0.47 0.58 0.64 0.73 0.80 0.99 1.24
0.64 0.72 0.80 0.88 0.86 0.82 0.85 0.86 0.83 0.80 0.78 0.71 0.64 0.63 0.63 0.60 0.50 0.32 0.28 0.36 0.49 0.57 0.58 0.58 0.53 0.42 0.32 0.28 0.26 0.27 0.31 0.30 0.33 0.36 0.39 0.41 0.43 0.49 0.53 0.57 0.65 0.67 0.74
0.68 0.77 0.88 0.95 0.80 0.75 0.90 0.92 0.91 0.92 0.92 0.87 0.81 0.72 0.68 0.64 0.49 0.36 0.29 0.33 0.44 0.59 0.66 0.63 0.54 0.43 0.36 0.31 0.27 0.27 0.28 0.27 0.29 0.35 0.40 0.41 0.41 0.43 0.49 0.54 0.59 0.63 0.67
0.77 0.87 0.91 0.93 0.97 0.99 0.97 0.97 0.99 0.97 0.99 0.97 0.95 0.89 0.83 0.79 0.67 0.46 0.36 0.34 0.40 0.51 0.59 0.65 0.58 0.41 0.36 0.36 0.36 0.30 0.25 0.24 0.28 0.31 0.35 0.39 0.37 0.37 0.44 0.54 0.63 0.64 0.64
0.88 0.93 0.97 1.00 1.02 1.07 1.13 1.11 1.08 1.03 1.04 1.05 0.99 0.97 0.95 0.93 0.85 0.68 0.56 0.47 0.46 0.47 0.51 0.55 0.59 0.51 0.41 0.42 0.45 0.37 0.28 0.28 0.30 0.29 0.32 0.37 0.39 0.40 0.44 0.49 0.55 0.61 0.66
0.98 1.01 1.04 1.07 1.10 1.13 1.15 1.10 1.03 1.00 0.90 0.93 0.95 0.94 0.95 0.95 0.84 0.74 0.71 0.67 0.62 0.58 0.56 0.61 0.61 0.63 0.55 0.49 0.50 0.46 0.40 0.39 0.36 0.35 0.34 0.37 0.42 0.44 0.46 0.48 0.49 0.51 0.56
1.09 1.03 1.02 1.01 1.05 1.10 1.10 0.96 0.74 0.67 0.60 0.57 0.62 0.65 0.67 0.63 0.56 0.54 0.57 0.58 0.58 0.60 0.58 0.66 0.72 0.71 0.66 0.63 0.60 0.56 0.54 0.48 0.42 0.41 0.40 0.37 0.40 0.43 0.44 0.47 0.47 0.46 0.45
1.07 1.03 0.96 0.92 0.93 0.93 0.98 1.00 0.91 0.75 0.66 0.59 0.49 0.45 0.48 0.43 0.40 0.41 0.48 0.54 0.57 0.59 0.61 0.68 0.75 0.75 0.74 0.74 0.66 0.60 0.61 0.55 0.50 0.49 0.46 0.45 0.44 0.44 0.42 0.43 0.47 0.48 0.46
1.00 0.91 0.88 0.89 0.87 0.84 0.85 0.88 0.89 0.92 0.90 0.77 0.57 0.47 0.43 0.36 0.32 0.34 0.43 0.53 0.59 0.59 0.65 0.71 0.78 0.76 0.75 0.75 0.72 0.67 0.66 0.59 0.54 0.52 0.48 0.46 0.46 0.47 0.46 0.42 0.41 0.44 0.44
1.01 0.89 0.83 0.80 0.80 0.80 0.78 0.79 0.81 0.88 0.92 0.89 0.73 0.61 0.51 0.37 0.33 0.35 0.40 0.47 0.55 0.61 0.67 0.71 0.73 0.73 0.76 0.73 0.67 0.65 0.66 0.59 0.53 0.49 0.45 0.44 0.45 0.49 0.50 0.46 0.44 0.47 0.45
1.01 0.88 0.81 0.76 0.74 0.78 0.81 0.79 0.78 0.85 0.88 0.86 0.79 0.64 0.47 0.41 0.40 0.40 0.41 0.45 0.51 0.57 0.61 0.63 0.62 0.64 0.65 0.63 0.59 0.59 0.64 0.61 0.54 0.49 0.44 0.43 0.44 0.48 0.49 0.46 0.42 0.43 0.43
0.97 0.87 0.77 0.71 0.68 0.70 0.76 0.77 0.74 0.78 0.81 0.77 0.67 0.54 0.40 0.38 0.43 0.45 0.46 0.47 0.50 0.52 0.55 0.59 0.59 0.56 0.53 0.54 0.53 0.53 0.58 0.57 0.50 0.43 0.41 0.40 0.41 0.46 0.46 0.42 0.40 0.38 0.40
0.96 0.93 0.82 0.74 0.69 0.67 0.68 0.73 0.74 0.74 0.73 0.71 0.60 0.45 0.38 0.38 0.41 0.43 0.42 0.41 0.41 0.46 0.50 0.58 0.59 0.55 0.53 0.53 0.49 0.45 0.48 0.46 0.41 0.39 0.37 0.36 0.39 0.44 0.43 0.40 0.39 0.37 0.37
0.90 0.90 0.84 0.74 0.66 0.65 0.65 0.69 0.73 0.70 0.64 0.63 0.55 0.43 0.38 0.41 0.39 0.40 0.38 0.36 0.38 0.41 0.44 0.49 0.51 0.49 0.46 0.45 0.43 0.39 0.37 0.36 0.35 0.32 0.30 0.31 0.33 0.36 0.36 0.35 0.38 0.37 0.36
0.85 0.85 0.80 0.71 0.64 0.62 0.62 0.66 0.65 0.56 0.48 0.49 0.49 0.41 0.41 0.41 0.36 0.33 0.28 0.28 0.31 0.32 0.31 0.33 0.34 0.33 0.33 0.33 0.34 0.32 0.30 0.29 0.30 0.29 0.26 0.26 0.26 0.29 0.30 0.32 0.35 0.36 0.35
0.82 0.81 0.77 0.70 0.64 0.58 0.56 0.56 0.55 0.50 0.43 0.39 0.39 0.37 0.38 0.35 0.32 0.28 0.23 0.25 0.27 0.27 0.24 0.23 0.25 0.26 0.24 0.23 0.23 0.22 0.22 0.24 0.26 0.26 0.24 0.23 0.24 0.27 0.28 0.29 0.32 0.35 0.34
0.77 0.74 0.70 0.65 0.58 0.51 0.49 0.49 0.47 0.40 0.35 0.31 0.30 0.31 0.30 0.31 0.31 0.28 0.24 0.24 0.24 0.22 0.19 0.19 0.20 0.21 0.20 0.18 0.17 0.16 0.17 0.20 0.23 0.23 0.21 0.20 0.25 0.28 0.27 0.24 0.26 0.29 0.28

GEFSGL_prec_meanprecacc_114.txt.gz
Total_Precipitation_Accumulation
0.74 0.73 0.77 0.79 0.83 0.88 0.95 0.97 1.02 1.08 1.15 1.16 1.13 1.09 0.99 0.93 0.92 0.94 0.96 1.05 1.06 1.05 1.13 1.16 1.22 1.31 1.44 1.51 1.54 1.60 1.79 1.94 1.81 1.71 1.57 1.42 1.23 1.05 0.86 0.80 0.72 0.62 0.51
0.72 0.72 0.75 0.78 0.78 0.78 0.80 0.80 0.81 0.87 0.90 0.91 0.92 0.98 1.00 0.99 0.95 0.93 0.90 0.88 0.93 0.95 1.01 1.10 1.16 1.29 1.37 1.36 1.46 1.54 1.73 1.94 2.00 2.12 2.16 1.89 1.56 1.29 1.14 0.95 0.70 0.55 0.52
0.66 0.71 0.77 0.76 0.74 0.77 0.81 0.81 0.79 0.79 0.80 0.80 0.81 0.84 0.86 0.94 1.05 1.06 1.03 1.03 1.06 0.98 1.02 1.11 1.10 1.14 1.21 1.23 1.35 1.49 1.64 1.79 1.95 2.05 2.18 1.98 1.76 1.45 1.38 1.15 0.90 0.76 0.53
0.57 0.72 0.84 0.90 0.90 0.91 0.86 0.87 0.85 0.81 0.82 0.80 0.76 0.76 0.79 0.81 0.88 1.01 1.06 1.06 1.02 0.97 0.96 0.96 0.93 0.94 1.01 1.08 1.15 1.31 1.46 1.60 1.72 1.77 1.91 1.97 1.96 1.88 1.75 1.48 1.27 1.04 0.79
0.58 0.80 0.90 0.89 0.84 0.83 0.81 0.88 0.86 0.78 0.76 0.80 0.72 0.69 0.74 0.79 0.77 0.79 0.90 0.93 0.92 0.89 0.90 0.82 0.71 0.72 0.77 0.80 0.86 1.07 1.22 1.35 1.51 1.61 1.75 1.91 2.00 2.06 1.89 1.73 1.57 1.39 1.11
0.55 0.66 0.70 0.75 0.78 0.74 0.69 0.67 0.69 0.72 0.71 0.71 0.65 0.64 0.64 0.59 0.62 0.59 0.61 0.69 0.73 0.73 0.76 0.76 0.69 0.60 0.57 0.59 0.62 0.73 0.88 1.02 1.24 1.47 1.65 1.86 1.93 1.87 1.95 1.89 1.78 1.64 1.49
0.48 0.53 0.60 0.71 0.74 0.67 0.58 0.62 0.68 0.70 0.69 0.67 0.61 0.57 0.55 0.54 0.46 0.41 0.41 0.51 0.59 0.60 0.62 0.66 0.60 0.54 0.50 0.46 0.52 0.61 0.66 0.72 0.83 1.12 1.38 1.50 1.49 1.45 1.64 1.82 1.75 1.64 1.63
0.49 0.56 0.62 0.73 0.73 0.69 0.66 0.65 0.66 0.66 0.66 0.66 0.61 0.58 0.59 0.55 0.46 0.38 0.34 0.34 0.46 0.54 0.54 0.57 0.58 0.59 0.53 0.51 0.50 0.55 0.54 0.53 0.55 0.65 0.78 0.90 1.04 1.14 1.32 1.61 1.81 1.72 1.71
0.50 0.61 0.71 0.80 0.79 0.75 0.72 0.69 0.67 0.65 0.61 0.60 0.63 0.63 0.62 0.58 0.45 0.36 0.34 0.40 0.48 0.49 0.50 0.52 0.54 0.57 0.56 0.48 0.46 0.49 0.51 0.52 0.48 0.51 0.55 0.66 0.79 0.90 1.03 1.22 1.45 1.67 1.91
0.60 0.69 0.75 0.80 0.84 0.81 0.79 0.76 0.72 0.71 0.64 0.59 0.61 0.64 0.62 0.64 0.48 0.32 0.29 0.40 0.53 0.56 0.61 0.60 0.50 0.47 0.47 0.37 0.37 0.42 0.42 0.43 0.40 0.45 0.50 0.53 0.58 0.69 0.77 0.90 1.01 1.21 1.46
0.64 0.72 0.80 0.88 0.86 0.83 0.85 0.86 0.84 0.80 0.79 0.72 0.65 0.64 0.65 0.62 0.50 0.32 0.28 0.39 0.56 0.65 0.65 0.64 0.59 0.45 0.36 0.32 0.30 0.35 0.38 0.36 0.39 0.44 0.51 0.55 0.55 0.60 0.64 0.70 0.81 0.86 0.92
0.68 0.77 0.88 0.95 0.80 0.75 0.90 0.93 0.92 0.93 0.93 0.88 0.82 0.73 0.70 0.66 0.50 0.37 0.31 0.34 0.47 0.64 0.73 0.69 0.58 0.45 0.37 0.34 0.29 0.30 0.30 0.29 0.34 0.41 0.47 0.50 0.51 0.53 0.60 0.65 0.71 0.77 0.83
0.77 0.87 0.91 0.93 0.97 1.00 0.97 0.98 1.00 0.98 1.00 0.98 0.95 0.90 0.84 0.81 0.69 0.46 0.37 0.35 0.41 0.54 0.63 0.69 0.62 0.43 0.37 0.38 0.37 0.31 0.26 0.26 0.32 0.35 0.39 0.45 0.43 0.45 0.55 0.67 0.76 0.77 0.78
0.88 0.93 0.97 1.00 1.02 1.07 1.13 1.11 1.08 1.03 1.05 1.06 1.00 0.97 0.96 0.95 0.87 0.70 0.58 0.48 0.47 0.49 0.54 0.57 0.61 0.54 0.43 0.44 0.46 0.38 0.30 0.32 0.34 0.33 0.36 0.42 0.44 0.46 0.53 0.60 0.68 0.74 0.78
0.98 1.01 1.05 1.07 1.10 1.14 1.15 1.10 1.03 1.00 0.90 0.93 0.96 0.94 0.96 0.95 0.85 0.75 0.72 0.69 0.64 0.60 0.59 0.65 0.66 0.68 0.60 0.55 0.56 0.50 0.43 0.43 0.40 0.39 0.38 0.42 0.48 0.49 0.51 0.56 0.59 0.62 0.66
1.10 1.03 1.02 1.01 1.05 1.10 1.10 0.96 0.74 0.67 0.60 0.57 0.62 0.65 0.67 0.63 0.57 0.55 0.59 0.59 0.59 0.61 0.60 0.70 0.77 0.78 0.73 0.70 0.67 0.63 0.61 0.55 0.49 0.46 0.44 0.42 0.45 0.48 0.48 0.52 0.55 0.55 0.54
1.07 1.03 0.96 0.92 0.93 0.93 0.98 1.00 0.91 0.75 0.66 0.59 0.49 0.45 0.48 0.44 0.40 0.42 0.49 0.55 0.58 0.61 0.63 0.72 0.80 0.82 0.80 0.81 0.74 0.68 0.69 0.62 0.57 0.55 0.51 0.49 0.49 0.49 0.48 0.48 0.52 0.55 0.54
1.00 0.92 0.88 0.89 0.87 0.84 0.85 0.89 0.89 0.93 0.91 0.78 0.59 0.48 0.43 0.36 0.33 0.34 0.44 0.55 0.61 0.61 0.68 0.76 0.83 0.81 0.82 0.84 0.79 0.74 0.73 0.66 0.60 0.57 0.53 0.51 0.50 0.52 0.51 0.47 0.46 0.49 0.50
1.01 0.89 0.83 0.80 0.80 0.80 0.78 0.79 0.82 0.88 0.93 0.91 0.75 0.63 0.51 0.37 0.33 0.36 0.41 0.49 0.59 0.65 0.70 0.75 0.77 0.77 0.80 0.78 0.73 0.70 0.71 0.65 0.58 0.53 0.49 0.49 0.49 0.53 0.54 0.50 0.48 0.51 0.50
1.01 0.88 0.81 0.76 0.74 0.78 0.82 0.79 0.78 0.86 0.89 0.87 0.81 0.66 0.48 0.41 0.42 0.43 0.44 0.49 0.56 0.62 0.65 0.67 0.67 0.67 0.68 0.67 0.64 0.64 0.68 0.65 0.59 0.54 0.49 0.47 0.48 0.51 0.53 0.50 0.46 0.46 0.47
0.97 0.87 0.77 0.71 0.69 0.70 0.76 0.77 0.74 0.78 0.81 0.78 0.69 0.55 0.41 0.39 0.45 0.48 0.50 0.51 0.54 0.57 0.59 0.63 0.63 0.61 0.58 0.58 0.57 0.56 0.61 0.60 0.53 0.47 0.45 0.44 0.45 0.50 0.50 0.46 0.43 0.41 0.43
0.96 0.93 0.82 0.74 0.69 0.67 0.69 0.73 0.74 0.75 0.74 0.72 0.62 0.48 0.40 0.41 0.44 0.46 0.46 0.45 0.45 0.50 0.54 0.62 0.63 0.60 0.57 0.56 0.52 0.49 0.51 0.48 0.43 0.42 0.41 0.40 0.43 0.47 0.47 0.44 0.42 0.40 0.40
0.90 0.90 0.84 0.74 0.66 0.65 0.65 0.69 0.74 0.71 0.65 0.65 0.58 0.46 0.41 0.45 0.42 0.42 0.42 0.40 0.41 0.45 0.47 0.52 0.55 0.54 0.51 0.48 0.46 0.42 0.40 0.40 0.39 0.36 0.34 0.35 0.37 0.40 0.40 0.40 0.42 0.41 0.40
0.85 0.85 0.80 0.71 0.64 0.62 0.63 0.67 0.65 0.56 0.49 0.50 0.51 0.44 0.44 0.45 0.40 0.36 0.31 0.31 0.35 0.35 0.34 0.35 0.35 0.36 0.37 0.38 0.37 0.35 0.32 0.32 0.34 0.35 0.31 0.31 0.31 0.33 0.35 0.37 0.40 0.41 0.40
0.82 0.81 0.77 0.70 0.64 0.58 0.57 0.57 0.55 0.50 0.43 0.40 0.41 0.39 0.40 0.38 0.36 0.31 0.25 0.27 0.31 0.30 0.27 0.25 0.26 0.28 0.28 0.27 0.27 0.25 0.25 0.26 0.28 0.30 0.30 0.29 0.31 0.34 0.34 0.35 0.39 0.42 0.40
0.77 0.74 0.70 0.66 0.58 0.52 0.50 0.51 0.47 0.41 0.36 0.32 0.32 0.33 0.33 0.33 0.34 0.30 0.25 0.26 0.26 0.25 0.23 0.21 0.22 0.23 0.22 0.20 0.19 0.18 0.19 0.21 0.24 0.25 0.26 0.26 0.31 0.35 0.34 0.31 0.32 0.36 0.36

GEFSGL_prec_meanprecacc_120.txt.gz
Total_Precipitation_Accumulation
0.74 0.73 0.77 0.79 0.83 0.89 0.96 0.98 1.03 1.09 1.16 1.17 1.14 1.10 1.01 0.95 0.94 0.97 0.98 1.07 1.08 1.08 1.16 1.19 1.26 1.36 1.50 1.56 1.60 1.65 1.84 2.00 1.87 1.78 1.66 1.52 1.36 1.19 1.01 0.95 0.91 0.85 0.67
0.72 0.72 0.76 0.79 0.79 0.79 0.82 0.81 0.82 0.88 0.91 0.92 0.93 0.99 1.02 1.00 0.97 0.96 0.92 0.91 0.96 0.99 1.05 1.15 1.21 1.34 1.45 1.43 1.51 1.59 1.78 1.99 2.06 2.18 2.23 1.99 1.67 1.43 1.30 1.12 0.86 0.75 0.73
0.66 0.71 0.77 0.77 0.75 0.79 0.82 0.82 0.80 0.80 0.82 0.82 0.83 0.86 0.88 0.97 1.07 1.09 1.07 1.07 1.09 1.02 1.08 1.17 1.16 1.20 1.28 1.30 1.41 1.54 1.69 1.84 2.01 2.11 2.25 2.07 1.89 1.58 1.55 1.34 1.08 0.97 0.73
0.57 0.72 0.85 0.91 0.91 0.92 0.88 0.88 0.86 0.82 0.84 0.82 0.78 0.79 0.82 0.83 0.90 1.04 1.10 1.10 1.07 1.02 1.02 1.02 0.99 1.00 1.08 1.16 1.22 1.37 1.52 1.66 1.78 1.84 1.99 2.06 2.08 2.03 1.93 1.69 1.50 1.27 0.99
0.59 0.80 0.91 0.90 0.85 0.84 0.83 0.89 0.87 0.79 0.77 0.81 0.74 0.71 0.77 0.81 0.79 0.81 0.93 0.96 0.96 0.94 0.96 0.89 0.77 0.77 0.81 0.85 0.91 1.14 1.29 1.43 1.58 1.69 1.83 2.02 2.13 2.23 2.08 1.93 1.79 1.63 1.34
0.55 0.67 0.71 0.76 0.78 0.75 0.70 0.68 0.71 0.73 0.73 0.73 0.67 0.66 0.67 0.61 0.62 0.59 0.61 0.70 0.76 0.78 0.82 0.83 0.75 0.64 0.60 0.61 0.64 0.76 0.93 1.08 1.31 1.56 1.75 1.97 2.05 2.01 2.12 2.11 2.00 1.84 1.69
0.48 0.53 0.61 0.72 0.74 0.68 0.59 0.63 0.70 0.72 0.71 0.69 0.64 0.60 0.59 0.58 0.47 0.41 0.41 0.51 0.61 0.64 0.68 0.74 0.65 0.58 0.56 0.52 0.56 0.63 0.68 0.75 0.87 1.18 1.46 1.59 1.61 1.59 1.80 2.00 1.99 1.89 1.85
0.49 0.57 0.62 0.73 0.74 0.69 0.67 0.67 0.68 0.68 0.68 0.69 0.64 0.60 0.64 0.60 0.46 0.38 0.34 0.35 0.48 0.58 0.61 0.65 0.67 0.67 0.60 0.57 0.56 0.61 0.58 0.56 0.58 0.67 0.84 0.98 1.15 1.28 1.47 1.76 1.99 1.97 1.98
0.50 0.62 0.72 0.80 0.80 0.75 0.73 0.71 0.69 0.67 0.63 0.63 0.65 0.66 0.67 0.64 0.46 0.36 0.34 0.41 0.53 0.57 0.59 0.60 0.62 0.67 0.62 0.51 0.52 0.56 0.58 0.58 0.51 0.53 0.57 0.70 0.85 1.00 1.17 1.40 1.63 1.88 2.15
0.60 0.69 0.76 0.81 0.84 0.81 0.80 0.78 0.74 0.73 0.66 0.61 0.63 0.67 0.67 0.70 0.51 0.32 0.29 0.42 0.59 0.64 0.72 0.70 0.57 0.53 0.53 0.41 0.43 0.52 0.52 0.52 0.47 0.50 0.53 0.56 0.61 0.75 0.86 1.05 1.19 1.39 1.67
0.64 0.72 0.81 0.89 0.86 0.83 0.86 0.88 0.86 0.82 0.82 0.75 0.67 0.68 0.70 0.66 0.52 0.33 0.28 0.40 0.60 0.72 0.74 0.76 0.68 0.49 0.41 0.36 0.35 0.43 0.47 0.45 0.49 0.53 0.59 0.62 0.62 0.65 0.71 0.80 0.98 1.05 1.12
0.69 0.77 0.89 0.96 0.81 0.75 0.91 0.95 0.94 0.95 0.95 0.91 0.85 0.76 0.74 0.71 0.52 0.38 0.31 0.34 0.47 0.69 0.81 0.79 0.66 0.48 0.40 0.37 0.33 0.35 0.34 0.32 0.40 0.49 0.55 0.58 0.59 0.60 0.66 0.72 0.83 0.95 1.03
0.77 0.87 0.91 0.94 0.98 1.00 0.98 0.99 1.01 1.00 1.01 0.99 0.96 0.91 0.86 0.85 0.74 0.48 0.37 0.35 0.42 0.57 0.68 0.73 0.65 0.45 0.40 0.41 0.40 0.34 0.29 0.29 0.36 0.41 0.46 0.51 0.51 0.54 0.64 0.76 0.88 0.93 0.96
0.88 0.94 0.98 1.01 1.02 1.07 1.14 1.12 1.08 1.04 1.06 1.07 1.01 0.99 0.98 0.98 0.91 0.73 0.60 0.51 0.49 0.52 0.58 0.61 0.63 0.56 0.46 0.48 0.49 0.40 0.33 0.36 0.39 0.39 0.43 0.48 0.51 0.55 0.63 0.70 0.79 0.88 0.95
0.98 1.01 1.05 1.07 1.10 1.14 1.16 1.11 1.03 1.00 0.90 0.93 0.96 0.95 0.97 0.97 0.86 0.75 0.73 0.71 0.66 0.62 0.62 0.71 0.72 0.76 0.67 0.63 0.64 0.57 0.50 0.50 0.47 0.45 0.46 0.50 0.54 0.55 0.60 0.66 0.71 0.74 0.81
1.10 1.03 1.02 1.01 1.05 1.10 1.10 0.96 0.74 0.67 0.60 0.58 0.62 0.66 0.67 0.63 0.57 0.55 0.59 0.60 0.60 0.62 0.62 0.75 0.85 0.87 0.83 0.82 0.80 0.75 0.72 0.65 0.59 0.56 0.54 0.51 0.53 0.55 0.56 0.60 0.65 0.66 0.65
1.08 1.03 0.97 0.92 0.93 0.93 0.98 1.01 0.92 0.76 0.67 0.59 0.49 0.45 0.48 0.44 0.40 0.42 0.49 0.55 0.58 0.61 0.65 0.76 0.87 0.91 0.91 0.91 0.86 0.80 0.81 0.74 0.69 0.66 0.62 0.60 0.58 0.59 0.57 0.57 0.61 0.64 0.64
1.00 0.92 0.88 0.89 0.87 0.84 0.85 0.89 0.90 0.94 0.93 0.80 0.60 0.49 0.44 0.36 0.33 0.34 0.44 0.55 0.62 0.62 0.71 0.81 0.92 0.90 0.93 0.94 0.89 0.84 0.84 0.77 0.70 0.66 0.62 0.60 0.59 0.61 0.60 0.56 0.54 0.57 0.58
1.02 0.89 0.83 0.80 0.81 0.81 0.79 0.80 0.82 0.88 0.94 0.92 0.77 0.65 0.52 0.38 0.34 0.37 0.41 0.51 0.62 0.70 0.77 0.83 0.87 0.87 0.90 0.88 0.81 0.79 0.80 0.74 0.68 0.63 0.59 0.59 0.57 0.61 0.62 0.58 0.56 0.59 0.58
1.01 0.88 0.81 0.76 0.74 0.78 0.82 0.79 0.78 0.86 0.90 0.89 0.83 0.69 0.50 0.42 0.44 0.46 0.47 0.52 0.62 0.70 0.74 0.76 0.75 0.75 0.76 0.75 0.72 0.72 0.76 0.73 0.68 0.63 0.58 0.56 0.56 0.59 0.61 0.58 0.54 0.54 0.54
0.97 0.88 0.77 0.71 0.69 0.71 0.77 0.78 0.74 0.79 0.82 0.79 0.71 0.58 0.43 0.40 0.46 0.52 0.55 0.56 0.60 0.63 0.66 0.69 0.68 0.66 0.63 0.64 0.63 0.63 0.69 0.69 0.63 0.55 0.52 0.52 0.52 0.57 0.56 0.53 0.51 0.48 0.49
0.97 0.93 0.83 0.74 0.70 0.68 0.69 0.73 0.75 0.76 0.75 0.73 0.63 0.49 0.42 0.43 0.46 0.49 0.50 0.49 0.50 0.54 0.57 0.65 0.67 0.63 0.60 0.60 0.57 0.54 0.55 0.53 0.50 0.49 0.47 0.46 0.48 0.53 0.52 0.50 0.48 0.46 0.46
0.91 0.90 0.84 0.74 0.66 0.65 0.65 0.69 0.75 0.72 0.66 0.65 0.59 0.47 0.43 0.48 0.46 0.46 0.45 0.43 0.44 0.48 0.50 0.54 0.56 0.56 0.53 0.51 0.48 0.46 0.44 0.43 0.44 0.42 0.41 0.41 0.43 0.46 0.45 0.44 0.46 0.46 0.45
0.86 0.85 0.80 0.71 0.65 0.63 0.63 0.67 0.66 0.57 0.49 0.51 0.52 0.45 0.45 0.47 0.43 0.40 0.34 0.34 0.37 0.37 0.35 0.36 0.36 0.37 0.39 0.39 0.39 0.36 0.34 0.34 0.37 0.39 0.38 0.39 0.39 0.41 0.41 0.42 0.44 0.45 0.44
0.82 0.81 0.78 0.71 0.65 0.59 0.58 0.59 0.56 0.51 0.43 0.40 0.41 0.40 0.41 0.40 0.38 0.33 0.28 0.30 0.34 0.33 0.28 0.26 0.28 0.30 0.29 0.28 0.28 0.27 0.26 0.27 0.29 0.32 0.34 0.36 0.40 0.43 0.42 0.43 0.45 0.47 0.43
0.77 0.75 0.71 0.67 0.60 0.54 0.52 0.53 0.50 0.42 0.37 0.33 0.33 0.34 0.35 0.35 0.36 0.32 0.27 0.28 0.29 0.28 0.25 0.22 0.23 0.24 0.23 0.21 0.20 0.19 0.20 0.22 0.25 0.26 0.28 0.31 0.39 0.45 0.44 0.40 0.40 0.44 0.42

GEFSGL_prec_meanprecacc_126.txt.gz
Total_Precipitation_Accumulation
0.74 0.73 0.77 0.80 0.83 0.89 0.96 0.98 1.03 1.09 1.16 1.17 1.14 1.10 1.01 0.95 0.94 0.97 0.98 1.08 1.09 1.08 1.16 1.19 1.26 1.37 1.51 1.57 1.60 1.66 1.86 2.02 1.89 1.80 1.67 1.53 1.39 1.22 1.07 1.05 1.04 0.98 0.80
0.72 0.72 0.76 0.79 0.79 0.79 0.82 0.81 0.82 0.88 0.91 0.93 0.93 0.99 1.02 1.00 0.98 0.96 0.93 0.91 0.96 0.99 1.05 1.15 1.21 1.34 1.45 1.44 1.52 1.60 1.79 2.00 2.07 2.20 2.24 1.99 1.68 1.45 1.33 1.18 0.95 0.84 0.83
0.66 0.71 0.77 0.77 0.75 0.79 0.82 0.82 0.80 0.80 0.82 0.82 0.83 0.86 0.88 0.97 1.07 1.10 1.07 1.07 1.10 1.02 1.08 1.17 1.16 1.20 1.28 1.31 1.42 1.55 1.70 1.85 2.02 2.12 2.26 2.08 1.90 1.60 1.59 1.39 1.14 1.04 0.83
0.57 0.72 0.85 0.91 0.92 0.92 0.88 0.88 0.86 0.82 0.84 0.83 0.78 0.79 0.82 0.83 0.90 1.04 1.10 1.10 1.07 1.02 1.02 1.02 0.99 1.00 1.08 1.16 1.23 1.39 1.54 1.68 1.80 1.85 2.00 2.07 2.09 2.05 1.96 1.73 1.56 1.34 1.08
0.59 0.80 0.91 0.90 0.85 0.84 0.83 0.89 0.87 0.79 0.77 0.81 0.74 0.71 0.77 0.81 0.79 0.81 0.93 0.96 0.96 0.94 0.96 0.89 0.77 0.78 0.82 0.86 0.92 1.15 1.31 1.45 1.60 1.70 1.84 2.03 2.14 2.25 2.11 1.98 1.85 1.72 1.46
0.55 0.67 0.71 0.76 0.78 0.75 0.70 0.68 0.71 0.73 0.73 0.73 0.68 0.66 0.67 0.61 0.62 0.59 0.61 0.70 0.76 0.78 0.82 0.83 0.75 0.65 0.60 0.62 0.65 0.77 0.95 1.10 1.33 1.58 1.77 1.98 2.06 2.03 2.14 2.15 2.07 1.94 1.80
0.48 0.53 0.61 0.72 0.74 0.68 0.59 0.63 0.70 0.72 0.71 0.69 0.64 0.60 0.60 0.58 0.47 0.41 0.41 0.51 0.61 0.64 0.68 0.74 0.65 0.58 0.57 0.53 0.57 0.65 0.70 0.77 0.90 1.20 1.48 1.60 1.62 1.61 1.84 2.04 2.04 1.96 1.94
0.49 0.57 0.62 0.73 0.74 0.69 0.67 0.67 0.68 0.68 0.68 0.69 0.64 0.61 0.64 0.60 0.46 0.38 0.34 0.35 0.48 0.58 0.61 0.65 0.68 0.68 0.61 0.59 0.58 0.63 0.60 0.59 0.62 0.71 0.85 1.00 1.17 1.31 1.51 1.82 2.05 2.04 2.07
0.50 0.62 0.72 0.80 0.80 0.75 0.73 0.71 0.69 0.67 0.63 0.63 0.65 0.66 0.67 0.64 0.46 0.36 0.34 0.41 0.53 0.57 0.60 0.60 0.63 0.68 0.62 0.52 0.53 0.58 0.60 0.61 0.55 0.57 0.61 0.73 0.87 1.03 1.21 1.45 1.71 1.97 2.23
0.60 0.69 0.76 0.81 0.84 0.81 0.80 0.78 0.74 0.73 0.66 0.62 0.63 0.67 0.67 0.71 0.51 0.32 0.29 0.42 0.59 0.65 0.73 0.72 0.58 0.53 0.53 0.41 0.44 0.53 0.54 0.55 0.50 0.52 0.55 0.58 0.64 0.77 0.90 1.10 1.27 1.48 1.75
0.64 0.72 0.81 0.89 0.86 0.83 0.86 0.88 0.86 0.83 0.82 0.75 0.68 0.68 0.70 0.66 0.52 0.33 0.28 0.40 0.60 0.72 0.75 0.77 0.69 0.49 0.41 0.36 0.35 0.43 0.48 0.47 0.52 0.58 0.64 0.66 0.65 0.69 0.74 0.85 1.06 1.16 1.22
0.69 0.78 0.89 0.96 0.81 0.75 0.91 0.95 0.95 0.95 0.95 0.91 0.85 0.76 0.74 0.71 0.53 0.38 0.31 0.34 0.48 0.69 0.81 0.80 0.67 0.48 0.40 0.37 0.33 0.36 0.35 0.34 0.42 0.53 0.60 0.65 0.66 0.65 0.70 0.78 0.90 1.03 1.14
0.77 0.87 0.92 0.94 0.98 1.00 0.98 0.99 1.01 1.00 1.02 0.99 0.97 0.91 0.86 0.85 0.75 0.48 0.38 0.35 0.42 0.57 0.68 0.73 0.65 0.46 0.40 0.41 0.40 0.35 0.31 0.31 0.38 0.44 0.49 0.55 0.57 0.60 0.68 0.81 0.94 1.00 1.05
0.89 0.94 0.98 1.01 1.02 1.07 1.14 1.12 1.08 1.04 1.06 1.07 1.01 0.99 0.98 0.98 0.92 0.74 0.60 0.51 0.49 0.52 0.58 0.61 0.63 0.57 0.46 0.48 0.50 0.41 0.35 0.39 0.42 0.42 0.46 0.52 0.55 0.60 0.68 0.75 0.84 0.93 1.03
0.98 1.01 1.05 1.07 1.10 1.14 1.16 1.11 1.03 1.00 0.90 0.94 0.96 0.95 0.97 0.98 0.87 0.76 0.73 0.71 0.66 0.63 0.62 0.71 0.72 0.76 0.68 0.64 0.65 0.59 0.53 0.55 0.53 0.49 0.50 0.53 0.58 0.60 0.64 0.71 0.77 0.80 0.88
1.10 1.03 1.02 1.01 1.05 1.10 1.10 0.96 0.74 0.67 0.61 0.58 0.63 0.66 0.68 0.65 0.58 0.56 0.59 0.60 0.60 0.62 0.63 0.76 0.85 0.88 0.84 0.83 0.81 0.77 0.74 0.69 0.64 0.62 0.59 0.55 0.57 0.60 0.61 0.65 0.71 0.72 0.71
1.08 1.03 0.97 0.92 0.93 0.93 0.98 1.01 0.92 0.76 0.67 0.60 0.49 0.46 0.49 0.45 0.41 0.43 0.50 0.56 0.58 0.61 0.65 0.77 0.88 0.92 0.92 0.93 0.87 0.82 0.83 0.77 0.72 0.71 0.66 0.64 0.63 0.65 0.62 0.62 0.67 0.70 0.68
1.00 0.92 0.88 0.89 0.87 0.84 0.85 0.89 0.90 0.94 0.93 0.80 0.60 0.49 0.45 0.37 0.33 0.35 0.44 0.55 0.62 0.63 0.71 0.82 0.93 0.91 0.94 0.96 0.91 0.85 0.86 0.80 0.73 0.69 0.66 0.64 0.64 0.66 0.67 0.63 0.60 0.62 0.63
1.02 0.90 0.84 0.80 0.81 0.81 0.79 0.80 0.82 0.89 0.94 0.93 0.78 0.65 0.53 0.38 0.34 0.37 0.42 0.51 0.63 0.71 0.78 0.85 0.88 0.89 0.91 0.89 0.83 0.80 0.83 0.78 0.71 0.67 0.64 0.63 0.62 0.66 0.68 0.67 0.62 0.64 0.63
1.03 0.89 0.82 0.77 0.75 0.79 0.82 0.79 0.79 0.87 0.91 0.90 0.85 0.70 0.51 0.43 0.45 0.47 0.47 0.53 0.63 0.71 0.75 0.77 0.76 0.75 0.77 0.76 0.74 0.73 0.78 0.76 0.71 0.66 0.61 0.59 0.60 0.63 0.65 0.65 0.60 0.59 0.58
0.98 0.88 0.78 0.72 0.70 0.72 0.78 0.78 0.75 0.80 0.84 0.80 0.72 0.59 0.44 0.41 0.47 0.52 0.55 0.57 0.61 0.64 0.67 0.70 0.69 0.67 0.64 0.65 0.64 0.64 0.70 0.71 0.65 0.57 0.54 0.53 0.54 0.60 0.59 0.57 0.56 0.54 0.55
0.98 0.94 0.84 0.75 0.71 0.69 0.70 0.74 0.75 0.77 0.76 0.75 0.65 0.50 0.43 0.44 0.47 0.50 0.51 0.50 0.51 0.55 0.58 0.66 0.67 0.64 0.61 0.62 0.58 0.55 0.56 0.55 0.53 0.51 0.49 0.47 0.50 0.56 0.55 0.53 0.53 0.51 0.52
0.92 0.91 0.85 0.75 0.68 0.66 0.66 0.70 0.75 0.73 0.67 0.67 0.60 0.48 0.44 0.49 0.46 0.47 0.46 0.44 0.44 0.48 0.50 0.55 0.57 0.57 0.55 0.52 0.49 0.47 0.44 0.44 0.45 0.43 0.42 0.43 0.44 0.48 0.48 0.47 0.51 0.51 0.50
0.87 0.86 0.81 0.72 0.66 0.64 0.64 0.68 0.67 0.59 0.52 0.53 0.53 0.46 0.46 0.48 0.44 0.41 0.35 0.35 0.38 0.38 0.36 0.37 0.38 0.38 0.40 0.40 0.39 0.37 0.35 0.34 0.38 0.40 0.39 0.40 0.41 0.42 0.43 0.45 0.49 0.51 0.49
0.83 0.82 0.79 0.72 0.67 0.61 0.59 0.60 0.58 0.53 0.46 0.43 0.44 0.42 0.43 0.43 0.40 0.35 0.30 0.32 0.35 0.34 0.29 0.27 0.29 0.30 0.30 0.28 0.28 0.27 0.26 0.27 0.30 0.33 0.34 0.37 0.41 0.45 0.44 0.45 0.48 0.51 0.48
0.78 0.76 0.72 0.68 0.61 0.55 0.53 0.54 0.51 0.44 0.39 0.35 0.35 0.37 0.37 0.38 0.39 0.36 0.30 0.30 0.31 0.29 0.26 0.23 0.24 0.25 0.24 0.22 0.20 0.20 0.20 0.23 0.25 0.26 0.28 0.31 0.40 0.46 0.46 0.42 0.41 0.46 0.45

GEFSGL_prec_meanprecacc_132.txt.gz
Total_Precipitation_Accumulation
0.74 0.73 0.77 0.80 0.83 0.89 0.96 0.98 1.03 1.09 1.16 1.17 1.14 1.10 1.01 0.95 0.94 0.97 0.98 1.08 1.09 1.08 1.16 1.19 1.26 1.37 1.51 1.57 1.60 1.66 1.86 2.02 1.89 1.80 1.67 1.54 1.39 1.23 1.08 1.06 1.06 1.00 0.83
0.72 0.72 0.76 0.79 0.79 0.79 0.82 0.81 0.82 0.88 0.91 0.93 0.93 0.99 1.02 1.00 0.98 0.96 0.93 0.91 0.96 0.99 1.05 1.15 1.21 1.34 1.45 1.44 1.52 1.60 1.79 2.00 2.07 2.20 2.24 2.00 1.68 1.45 1.34 1.19 0.97 0.86 0.85
0.66 0.71 0.77 0.77 0.75 0.79 0.82 0.82 0.80 0.80 0.82 0.82 0.83 0.86 0.88 0.97 1.07 1.10 1.07 1.07 1.10 1.02 1.08 1.17 1.16 1.20 1.28 1.31 1.42 1.55 1.70 1.85 2.02 2.13 2.26 2.08 1.90 1.60 1.59 1.40 1.15 1.06 0.85
0.57 0.72 0.85 0.91 0.92 0.92 0.88 0.88 0.86 0.82 0.84 0.83 0.78 0.79 0.82 0.83 0.90 1.04 1.10 1.10 1.07 1.02 1.02 1.02 0.99 1.00 1.08 1.16 1.23 1.39 1.54 1.68 1.80 1.85 2.00 2.07 2.09 2.05 1.97 1.74 1.56 1.36 1.10
0.59 0.80 0.91 0.90 0.85 0.84 0.83 0.89 0.87 0.79 0.77 0.81 0.74 0.71 0.77 0.81 0.79 0.81 0.93 0.96 0.96 0.94 0.96 0.89 0.77 0.78 0.82 0.86 0.92 1.15 1.31 1.45 1.60 1.71 1.85 2.03 2.14 2.25 2.11 1.98 1.86 1.73 1.48
0.55 0.67 0.71 0.76 0.78 0.75 0.70 0.68 0.71 0.73 0.73 0.73 0.68 0.66 0.67 0.61 0.62 0.59 0.61 0.70 0.76 0.78 0.82 0.83 0.75 0.65 0.60 0.62 0.65 0.77 0.95 1.11 1.34 1.59 1.78 1.99 2.07 2.04 2.15 2.15 2.08 1.94 1.82
0.48 0.53 0.61 0.72 0.74 0.68 0.59 0.63 0.70 0.72 0.71 0.69 0.64 0.60 0.60 0.58 0.47 0.41 0.41 0.51 0.61 0.64 0.68 0.74 0.65 0.58 0.57 0.53 0.57 0.65 0.70 0.78 0.91 1.22 1.49 1.61 1.63 1.62 1.85 2.05 2.05 1.97 1.95
0.49 0.57 0.62 0.73 0.74 0.69 0.67 0.67 0.68 0.68 0.68 0.69 0.64 0.61 0.64 0.60 0.46 0.38 0.34 0.35 0.48 0.58 0.61 0.66 0.68 0.68 0.61 0.59 0.58 0.63 0.60 0.60 0.63 0.71 0.86 1.01 1.18 1.32 1.53 1.83 2.07 2.05 2.08
0.50 0.62 0.72 0.80 0.80 0.75 0.73 0.71 0.69 0.67 0.63 0.63 0.65 0.66 0.67 0.64 0.46 0.36 0.34 0.41 0.53 0.57 0.60 0.60 0.63 0.68 0.62 0.52 0.53 0.58 0.61 0.62 0.56 0.58 0.62 0.74 0.89 1.04 1.22 1.46 1.72 1.98 2.25
0.60 0.69 0.76 0.81 0.84 0.81 0.80 0.78 0.74 0.73 0.66 0.62 0.64 0.67 0.67 0.71 0.51 0.32 0.29 0.42 0.59 0.65 0.73 0.72 0.58 0.54 0.53 0.41 0.44 0.53 0.54 0.55 0.51 0.54 0.57 0.60 0.66 0.79 0.92 1.12 1.29 1.51 1.77
0.64 0.72 0.81 0.89 0.86 0.83 0.86 0.88 0.86 0.83 0.82 0.75 0.68 0.68 0.70 0.66 0.52 0.33 0.28 0.40 0.60 0.72 0.75 0.77 0.69 0.49 0.41 0.36 0.35 0.43 0.48 0.47 0.53 0.60 0.66 0.68 0.67 0.71 0.76 0.87 1.08 1.19 1.26
0.69 0.78 0.89 0.96 0.81 0.75 0.91 0.95 0.95 0.95 0.95 0.91 0.85 0.76 0.74 0.71 0.53 0.38 0.31 0.34 0.48 0.69 0.81 0.80 0.67 0.48 0.40 0.37 0.33 0.36 0.35 0.34 0.43 0.54 0.62 0.67 0.68 0.68 0.74 0.83 0.95 1.08 1.19
0.77 0.88 0.92 0.94 0.98 1.00 0.98 0.99 1.01 1.00 1.02 1.00 0.97 0.91 0.86 0.85 0.75 0.48 0.38 0.36 0.42 0.57 0.69 0.73 0.65 0.46 0.40 0.41 0.41 0.35 0.31 0.31 0.39 0.45 0.51 0.57 0.59 0.64 0.74 0.88 1.02 1.07 1.12
0.89 0.94 0.98 1.01 1.02 1.07 1.14 1.12 1.08 1.04 1.06 1.07 1.01 0.99 0.98 0.98 0.92 0.74 0.60 0.51 0.50 0.52 0.58 0.61 0.64 0.57 0.46 0.49 0.50 0.41 0.35 0.40 0.43 0.43 0.47 0.53 0.58 0.65 0.75 0.82 0.91 1.00 1.09
0.99 1.01 1.05 1.07 1.10 1.14 1.16 1.11 1.03 1.00 0.90 0.94 0.96 0.95 0.97 0.98 0.87 0.76 0.73 0.71 0.66 0.63 0.62 0.71 0.72 0.76 0.68 0.64 0.65 0.59 0.53 0.55 0.53 0.50 0.50 0.54 0.59 0.64 0.69 0.76 0.82 0.87 0.94
1.10 1.03 1.02 1.01 1.05 1.10 1.10 0.96 0.74 0.67 0.61 0.58 0.63 0.66 0.68 0.65 0.58 0.56 0.60 0.60 0.60 0.63 0.63 0.76 0.85 0.88 0.85 0.84 0.82 0.78 0.75 0.69 0.65 0.64 0.60 0.57 0.59 0.63 0.63 0.68 0.75 0.78 0.78
1.08 1.03 0.97 0.92 0.93 0.93 0.98 1.01 0.92 0.77 0.67 0.60 0.49 0.46 0.49 0.45 0.41 0.43 0.50 0.56 0.58 0.62 0.65 0.77 0.89 0.92 0.92 0.93 0.88 0.83 0.85 0.78 0.73 0.73 0.70 0.66 0.65 0.67 0.66 0.66 0.71 0.76 0.75
1.00 0.92 0.89 0.89 0.88 0.84 0.86 0.90 0.91 0.95 0.93 0.81 0.60 0.49 0.45 0.37 0.33 0.35 0.44 0.55 0.62 0.63 0.72 0.83 0.94 0.92 0.95 0.97 0.91 0.86 0.87 0.82 0.75 0.72 0.70 0.68 0.66 0.69 0.70 0.67 0.65 0.67 0.69
1.03 0.91 0.85 0.82 0.82 0.82 0.81 0.81 0.83 0.90 0.95 0.93 0.78 0.66 0.53 0.39 0.35 0.38 0.42 0.51 0.63 0.71 0.80 0.89 0.90 0.89 0.92 0.90 0.84 0.81 0.83 0.79 0.74 0.70 0.68 0.66 0.65 0.69 0.71 0.70 0.66 0.69 0.69
1.04 0.90 0.84 0.78 0.76 0.80 0.84 0.81 0.79 0.87 0.91 0.90 0.85 0.71 0.52 0.44 0.46 0.48 0.48 0.53 0.63 0.71 0.77 0.81 0.79 0.77 0.77 0.77 0.75 0.74 0.79 0.78 0.75 0.71 0.66 0.63 0.63 0.66 0.68 0.68 0.65 0.63 0.63
0.99 0.90 0.79 0.73 0.71 0.73 0.78 0.79 0.75 0.80 0.84 0.81 0.73 0.60 0.45 0.42 0.48 0.53 0.56 0.57 0.61 0.65 0.68 0.72 0.74 0.70 0.65 0.66 0.65 0.65 0.71 0.72 0.68 0.63 0.58 0.57 0.57 0.63 0.63 0.61 0.63 0.60 0.60
0.99 0.96 0.86 0.77 0.72 0.70 0.71 0.75 0.76 0.77 0.77 0.75 0.65 0.51 0.45 0.44 0.48 0.51 0.51 0.50 0.51 0.55 0.59 0.67 0.70 0.68 0.64 0.64 0.60 0.56 0.57 0.56 0.55 0.54 0.52 0.51 0.54 0.59 0.59 0.59 0.61 0.59 0.58
0.93 0.93 0.87 0.77 0.69 0.67 0.68 0.71 0.76 0.73 0.68 0.68 0.61 0.49 0.45 0.49 0.47 0.48 0.47 0.45 0.45 0.49 0.52 0.56 0.58 0.59 0.57 0.54 0.52 0.49 0.46 0.47 0.47 0.45 0.44 0.46 0.47 0.52 0.52 0.52 0.57 0.58 0.56
0.88 0.88 0.83 0.74 0.68 0.66 0.66 0.69 0.68 0.59 0.52 0.53 0.54 0.47 0.47 0.49 0.46 0.43 0.37 0.37 0.40 0.39 0.38 0.39 0.39 0.39 0.41 0.41 0.42 0.41 0.40 0.38 0.41 0.42 0.41 0.42 0.43 0.44 0.45 0.48 0.53 0.56 0.55
0.84 0.84 0.81 0.75 0.69 0.62 0.60 0.61 0.59 0.53 0.47 0.44 0.45 0.44 0.45 0.44 0.42 0.37 0.32 0.34 0.37 0.36 0.31 0.29 0.30 0.31 0.31 0.30 0.29 0.29 0.30 0.30 0.33 0.36 0.36 0.38 0.42 0.47 0.45 0.48 0.52 0.56 0.55
0.79 0.77 0.73 0.69 0.62 0.56 0.54 0.55 0.52 0.44 0.40 0.36 0.36 0.38 0.38 0.39 0.40 0.37 0.32 0.33 0.34 0.32 0.28 0.25 0.26 0.27 0.26 0.23 0.21 0.21 0.22 0.24 0.27 0.29 0.30 0.32 0.41 0.47 0.47 0.43 0.43 0.49 0.50

GEFSGL_prec_meanprecacc_138.txt.gz
Total_Precipitation_Accumulation
0.74 0.73 0.78 0.80 0.83 0.89 0.96 0.98 1.03 1.09 1.16 1.17 1.14 1.10 1.01 0.95 0.94 0.97 0.98 1.08 1.09 1.08 1.17 1.20 1.26 1.37 1.51 1.57 1.61 1.67 1.87 2.03 1.91 1.81 1.69 1.55 1.40 1.24 1.09 1.07 1.07 1.01 0.84
0.72 0.72 0.76 0.79 0.79 0.79 0.82 0.81 0.83 0.88 0.91 0.93 0.93 0.99 1.02 1.00 0.98 0.97 0.93 0.91 0.97 0.99 1.06 1.16 1.22 1.35 1.46 1.44 1.53 1.61 1.80 2.02 2.08 2.21 2.26 2.01 1.70 1.47 1.35 1.20 0.98 0.88 0.87
0.66 0.71 0.77 0.77 0.75 0.79 0.83 0.82 0.80 0.80 0.82 0.82 0.83 0.86 0.88 0.97 1.07 1.10 1.07 1.08 1.10 1.02 1.08 1.17 1.16 1.20 1.29 1.31 1.43 1.56 1.71 1.86 2.03 2.13 2.26 2.09 1.90 1.61 1.60 1.41 1.16 1.07 0.86
0.57 0.72 0.85 0.91 0.92 0.92 0.88 0.88 0.86 0.82 0.84 0.83 0.79 0.79 0.82 0.83 0.90 1.04 1.10 1.10 1.07 1.03 1.02 1.02 0.99 1.00 1.09 1.18 1.23 1.40 1.55 1.69 1.81 1.86 2.01 2.07 2.09 2.06 1.98 1.75 1.57 1.37 1.12
0.59 0.80 0.91 0.90 0.85 0.84 0.83 0.89 0.87 0.79 0.77 0.81 0.74 0.71 0.77 0.81 0.79 0.81 0.93 0.96 0.96 0.94 0.96 0.89 0.77 0.78 0.82 0.86 0.93 1.16 1.33 1.47 1.62 1.72 1.86 2.04 2.15 2.26 2.12 1.99 1.87 1.74 1.49
0.55 0.67 0.71 0.76 0.78 0.75 0.70 0.68 0.71 0.73 0.73 0.73 0.68 0.66 0.67 0.61 0.62 0.59 0.61 0.70 0.76 0.78 0.82 0.84 0.75 0.65 0.60 0.62 0.65 0.77 0.96 1.12 1.35 1.61 1.79 2.01 2.09 2.06 2.17 2.17 2.10 1.96 1.83
0.48 0.53 0.61 0.72 0.74 0.68 0.59 0.63 0.70 0.72 0.71 0.69 0.64 0.60 0.60 0.59 0.47 0.41 0.41 0.51 0.61 0.64 0.69 0.74 0.66 0.59 0.57 0.53 0.58 0.65 0.70 0.78 0.92 1.23 1.51 1.63 1.65 1.65 1.88 2.08 2.07 2.00 1.97
0.49 0.57 0.62 0.73 0.74 0.69 0.67 0.67 0.68 0.68 0.69 0.69 0.64 0.61 0.64 0.60 0.46 0.38 0.34 0.35 0.48 0.58 0.61 0.66 0.68 0.69 0.61 0.59 0.59 0.64 0.62 0.61 0.64 0.72 0.88 1.03 1.21 1.35 1.57 1.86 2.10 2.08 2.11
0.50 0.62 0.72 0.80 0.80 0.75 0.73 0.71 0.69 0.67 0.63 0.64 0.66 0.66 0.67 0.65 0.46 0.36 0.34 0.41 0.53 0.57 0.60 0.60 0.64 0.68 0.62 0.52 0.54 0.59 0.62 0.63 0.57 0.58 0.62 0.75 0.90 1.05 1.24 1.49 1.75 2.02 2.28
0.60 0.69 0.76 0.81 0.84 0.81 0.80 0.78 0.74 0.73 0.66 0.62 0.64 0.68 0.67 0.71 0.51 0.32 0.29 0.42 0.59 0.65 0.73 0.72 0.58 0.54 0.53 0.41 0.44 0.54 0.55 0.56 0.52 0.55 0.58 0.61 0.66 0.80 0.94 1.14 1.33 1.56 1.82
0.64 0.72 0.81 0.89 0.86 0.83 0.86 0.88 0.86 0.83 0.82 0.76 0.68 0.68 0.70 0.66 0.53 0.33 0.28 0.40 0.60 0.72 0.75 0.77 0.69 0.50 0.41 0.36 0.35 0.44 0.49 0.47 0.54 0.61 0.68 0.70 0.69 0.74 0.80 0.91 1.13 1.26 1.33
0.69 0.78 0.89 0.96 0.81 0.75 0.91 0.95 0.95 0.96 0.96 0.91 0.85 0.77 0.74 0.71 0.53 0.38 0.31 0.34 0.48 0.69 0.81 0.80 0.67 0.48 0.40 0.37 0.33 0.36 0.35 0.34 0.43 0.55 0.64 0.69 0.70 0.71 0.77 0.86 0.99 1.13 1.26
0.77 0.88 0.92 0.94 0.98 1.00 0.98 0.99 1.01 1.00 1.02 1.00 0.97 0.91 0.86 0.85 0.75 0.48 0.38 0.36 0.42 0.57 0.69 0.73 0.65 0.46 0.40 0.42 0.41 0.35 0.31 0.31 0.39 0.46 0.52 0.60 0.62 0.67 0.77 0.91 1.07 1.13 1.18
0.89 0.94 0.98 1.01 1.02 1.07 1.14 1.12 1.08 1.04 1.06 1.08 1.01 0.99 0.98 0.99 0.92 0.74 0.60 0.51 0.50 0.52 0.58 0.61 0.64 0.57 0.46 0.49 0.51 0.42 0.36 0.41 0.44 0.44 0.48 0.55 0.61 0.69 0.79 0.86 0.96 1.06 1.15
0.99 1.02 1.05 1.07 1.10 1.14 1.16 1.11 1.03 1.00 0.90 0.94 0.96 0.95 0.98 0.98 0.87 0.76 0.73 0.71 0.66 0.63 0.62 0.71 0.73 0.77 0.68 0.65 0.66 0.60 0.54 0.57 0.55 0.52 0.52 0.56 0.63 0.67 0.72 0.81 0.88 0.93 1.00
1.10 1.03 1.02 1.01 1.05 1.10 1.10 0.96 0.74 0.67 0.61 0.58 0.63 0.67 0.68 0.65 0.58 0.56 0.60 0.60 0.60 0.63 0.63 0.76 0.85 0.88 0.85 0.85 0.83 0.78 0.77 0.71 0.68 0.67 0.63 0.59 0.62 0.67 0.68 0.73 0.80 0.83 0.84
1.08 1.03 0.97 0.92 0.93 0.93 0.98 1.01 0.93 0.77 0.68 0.60 0.50 0.46 0.50 0.45 0.42 0.43 0.50 0.56 0.58 0.62 0.65 0.77 0.89 0.93 0.93 0.94 0.89 0.84 0.86 0.79 0.76 0.76 0.72 0.70 0.69 0.72 0.71 0.72 0.77 0.82 0.81
1.00 0.92 0.89 0.90 0.88 0.85 0.86 0.90 0.92 0.95 0.94 0.81 0.61 0.50 0.45 0.37 0.34 0.35 0.44 0.56 0.63 0.63 0.72 0.84 0.95 0.93 0.96 0.98 0.92 0.87 0.89 0.84 0.78 0.75 0.74 0.71 0.70 0.74 0.76 0.73 0.71 0.75 0.78
1.03 0.91 0.85 0.82 0.82 0.83 0.81 0.82 0.84 0.90 0.95 0.94 0.79 0.66 0.54 0.39 0.35 0.38 0.42 0.51 0.64 0.72 0.81 0.90 0.92 0.91 0.94 0.92 0.86 0.83 0.86 0.82 0.77 0.75 0.72 0.71 0.70 0.75 0.78 0.77 0.73 0.75 0.75
1.04 0.91 0.84 0.78 0.76 0.81 0.85 0.82 0.80 0.88 0.92 0.91 0.86 0.71 0.52 0.44 0.46 0.48 0.48 0.54 0.64 0.72 0.78 0.82 0.81 0.79 0.79 0.80 0.78 0.78 0.83 0.81 0.78 0.75 0.70 0.67 0.67 0.71 0.74 0.75 0.72 0.69 0.70
1.00 0.90 0.80 0.73 0.71 0.74 0.80 0.80 0.76 0.81 0.84 0.81 0.73 0.60 0.46 0.43 0.49 0.53 0.57 0.58 0.63 0.66 0.69 0.73 0.75 0.72 0.68 0.69 0.70 0.71 0.75 0.77 0.72 0.67 0.63 0.62 0.62 0.68 0.69 0.67 0.69 0.66 0.67
1.00 0.97 0.87 0.78 0.74 0.72 0.72 0.76 0.77 0.78 0.77 0.76 0.66 0.52 0.45 0.45 0.49 0.52 0.53 0.52 0.52 0.57 0.60 0.68 0.71 0.69 0.66 0.67 0.66 0.63 0.63 0.61 0.59 0.58 0.58 0.57 0.60 0.65 0.66 0.65 0.68 0.67 0.67
0.94 0.94 0.88 0.78 0.71 0.70 0.70 0.73 0.78 0.75 0.69 0.69 0.62 0.50 0.46 0.51 0.49 0.49 0.48 0.46 0.47 0.51 0.53 0.57 0.60 0.60 0.59 0.57 0.57 0.55 0.52 0.51 0.51 0.48 0.48 0.50 0.52 0.56 0.57 0.58 0.64 0.67 0.64
0.89 0.89 0.84 0.76 0.70 0.69 0.69 0.72 0.71 0.62 0.54 0.55 0.56 0.49 0.49 0.52 0.48 0.45 0.39 0.38 0.41 0.41 0.40 0.41 0.41 0.41 0.43 0.44 0.46 0.47 0.44 0.42 0.44 0.45 0.44 0.47 0.47 0.48 0.49 0.52 0.59 0.63 0.63
0.85 0.85 0.82 0.76 0.71 0.65 0.62 0.64 0.61 0.55 0.48 0.45 0.46 0.45 0.47 0.47 0.45 0.39 0.33 0.35 0.39 0.38 0.33 0.32 0.32 0.33 0.33 0.32 0.33 0.34 0.35 0.37 0.41 0.40 0.41 0.43 0.45 0.49 0.48 0.51 0.56 0.62 0.62
0.79 0.77 0.74 0.70 0.63 0.56 0.55 0.56 0.53 0.46 0.41 0.37 0.37 0.39 0.40 0.41 0.42 0.38 0.33 0.34 0.35 0.34 0.30 0.27 0.28 0.29 0.28 0.26 0.24 0.25 0.26 0.28 0.33 0.34 0.33 0.36 0.44 0.50 0.50 0.46 0.47 0.54 0.55

GEFSGL_prec_meanprecacc_144.txt.gz
Total_Precipitation_Accumulation
0.74 0.73 0.78 0.80 0.83 0.89 0.97 0.98 1.03 1.09 1.16 1.18 1.14 1.10 1.01 0.95 0.95 0.97 0.98 1.08 1.09 1.09 1.17 1.20 1.26 1.37 1.52 1.57 1.61 1.68 1.88 2.04 1.93 1.83 1.70 1.56 1.42 1.26 1.11 1.09 1.09 1.03 0.86
0.72 0.72 0.76 0.79 0.79 0.79 0.83 0.81 0.83 0.88 0.91 0.93 0.93 0.99 1.02 1.01 0.98 0.97 0.93 0.92 0.97 1.00 1.07 1.17 1.23 1.35 1.47 1.45 1.54 1.62 1.81 2.03 2.10 2.23 2.27 2.03 1.72 1.49 1.37 1.22 0.98 0.88 0.88
0.66 0.71 0.78 0.78 0.76 0.80 0.83 0.82 0.81 0.80 0.82 0.82 0.83 0.86 0.89 0.97 1.08 1.10 1.07 1.08 1.10 1.02 1.08 1.17 1.17 1.21 1.30 1.32 1.44 1.57 1.72 1.86 2.04 2.15 2.28 2.10 1.91 1.62 1.61 1.42 1.17 1.08 0.87
0.58 0.72 0.86 0.91 0.92 0.93 0.88 0.89 0.87 0.83 0.84 0.83 0.79 0.79 0.82 0.83 0.90 1.04 1.10 1.10 1.07 1.03 1.03 1.02 0.99 1.01 1.10 1.19 1.25 1.41 1.56 1.70 1.82 1.87 2.01 2.08 2.10 2.06 1.99 1.76 1.58 1.38 1.12
0.59 0.80 0.91 0.90 0.85 0.84 0.83 0.90 0.87 0.80 0.77 0.81 0.74 0.72 0.77 0.81 0.79 0.81 0.93 0.96 0.96 0.95 0.96 0.89 0.78 0.78 0.82 0.86 0.93 1.17 1.34 1.48 1.63 1.74 1.87 2.05 2.16 2.29 2.14 2.01 1.88 1.76 1.50
0.55 0.67 0.71 0.76 0.78 0.75 0.70 0.69 0.71 0.74 0.73 0.74 0.68 0.66 0.67 0.61 0.62 0.59 0.61 0.70 0.76 0.78 0.83 0.84 0.76 0.65 0.61 0.63 0.65 0.77 0.96 1.12 1.36 1.62 1.81 2.02 2.11 2.08 2.19 2.19 2.12 1.98 1.85
0.48 0.53 0.61 0.72 0.74 0.68 0.59 0.63 0.71 0.72 0.71 0.70 0.64 0.61 0.60 0.59 0.47 0.41 0.41 0.51 0.61 0.64 0.69 0.75 0.66 0.59 0.57 0.54 0.59 0.65 0.71 0.78 0.92 1.23 1.52 1.64 1.67 1.67 1.91 2.10 2.11 2.03 2.00
0.49 0.57 0.62 0.73 0.74 0.69 0.67 0.67 0.69 0.69 0.69 0.70 0.65 0.61 0.65 0.60 0.46 0.38 0.34 0.35 0.48 0.58 0.62 0.66 0.69 0.69 0.62 0.60 0.60 0.65 0.63 0.63 0.66 0.73 0.89 1.04 1.22 1.37 1.59 1.89 2.12 2.11 2.12
0.50 0.62 0.72 0.80 0.80 0.75 0.73 0.71 0.70 0.68 0.64 0.64 0.66 0.67 0.68 0.66 0.47 0.36 0.34 0.41 0.53 0.57 0.60 0.61 0.64 0.69 0.63 0.52 0.54 0.60 0.63 0.65 0.57 0.59 0.63 0.75 0.90 1.06 1.24 1.49 1.76 2.03 2.29
0.60 0.69 0.76 0.82 0.85 0.82 0.80 0.78 0.75 0.74 0.67 0.62 0.64 0.68 0.68 0.72 0.52 0.32 0.29 0.42 0.59 0.65 0.74 0.72 0.58 0.54 0.53 0.41 0.44 0.55 0.56 0.57 0.53 0.56 0.58 0.61 0.67 0.81 0.94 1.14 1.34 1.58 1.84
0.65 0.73 0.82 0.90 0.87 0.84 0.86 0.89 0.87 0.83 0.83 0.76 0.69 0.70 0.71 0.67 0.53 0.33 0.28 0.40 0.60 0.73 0.75 0.77 0.69 0.50 0.41 0.36 0.35 0.44 0.49 0.48 0.55 0.62 0.69 0.71 0.72 0.77 0.83 0.94 1.16 1.29 1.36
0.71 0.79 0.90 0.97 0.82 0.75 0.92 0.95 0.95 0.96 0.96 0.93 0.87 0.79 0.76 0.73 0.54 0.39 0.31 0.34 0.48 0.69 0.81 0.80 0.67 0.48 0.40 0.37 0.33 0.36 0.35 0.34 0.43 0.55 0.64 0.70 0.72 0.73 0.80 0.89 1.03 1.19 1.31
0.80 0.90 0.94 0.96 1.01 1.01 0.99 1.00 1.02 1.01 1.03 1.01 0.99 0.93 0.87 0.86 0.77 0.48 0.38 0.36 0.42 0.57 0.69 0.73 0.65 0.46 0.40 0.42 0.41 0.35 0.31 0.31 0.40 0.47 0.54 0.62 0.65 0.69 0.80 0.94 1.11 1.19 1.22
0.90 0.95 0.99 1.02 1.04 1.09 1.15 1.12 1.09 1.05 1.07 1.09 1.02 1.00 0.99 0.99 0.93 0.74 0.61 0.52 0.50 0.52 0.58 0.61 0.64 0.57 0.46 0.49 0.51 0.43 0.37 0.41 0.45 0.45 0.50 0.57 0.63 0.71 0.82 0.89 1.00 1.11 1.20
1.00 1.03 1.06 1.08 1.12 1.15 1.17 1.12 1.04 1.01 0.92 0.95 0.97 0.96 0.98 0.99 0.89 0.78 0.75 0.72 0.68 0.64 0.63 0.72 0.73 0.78 0.70 0.66 0.68 0.63 0.57 0.60 0.58 0.56 0.56 0.59 0.65 0.70 0.76 0.85 0.94 0.99 1.06
1.12 1.06 1.05 1.04 1.08 1.12 1.12 0.98 0.76 0.69 0.62 0.60 0.64 0.68 0.69 0.66 0.60 0.57 0.60 0.61 0.61 0.63 0.63 0.76 0.86 0.89 0.87 0.86 0.85 0.82 0.80 0.75 0.72 0.73 0.69 0.66 0.68 0.72 0.74 0.79 0.87 0.90 0.90
1.10 1.06 0.99 0.94 0.94 0.94 0.99 1.02 0.95 0.80 0.71 0.62 0.51 0.47 0.51 0.46 0.42 0.43 0.50 0.56 0.58 0.62 0.66 0.77 0.89 0.94 0.95 0.95 0.90 0.87 0.89 0.82 0.82 0.83 0.80 0.78 0.78 0.80 0.78 0.79 0.85 0.90 0.88
1.01 0.93 0.89 0.90 0.88 0.85 0.86 0.91 0.92 0.96 0.96 0.83 0.63 0.52 0.46 0.39 0.34 0.36 0.45 0.56 0.63 0.63 0.73 0.85 0.96 0.94 0.98 1.01 0.95 0.91 0.92 0.88 0.85 0.83 0.81 0.79 0.79 0.84 0.85 0.81 0.80 0.83 0.85
1.04 0.92 0.85 0.82 0.83 0.83 0.82 0.82 0.85 0.91 0.96 0.95 0.81 0.69 0.56 0.41 0.36 0.38 0.43 0.52 0.64 0.73 0.82 0.92 0.94 0.93 0.96 0.94 0.89 0.87 0.91 0.89 0.85 0.83 0.80 0.79 0.78 0.83 0.85 0.84 0.80 0.84 0.83
1.05 0.91 0.84 0.79 0.76 0.81 0.85 0.82 0.80 0.88 0.93 0.92 0.87 0.72 0.54 0.46 0.47 0.49 0.49 0.55 0.65 0.73 0.78 0.83 0.82 0.80 0.82 0.83 0.84 0.85 0.91 0.90 0.88 0.86 0.79 0.76 0.76 0.81 0.83 0.83 0.81 0.79 0.80
1.01 0.91 0.82 0.74 0.71 0.74 0.81 0.81 0.77 0.82 0.85 0.82 0.74 0.63 0.49 0.44 0.50 0.55 0.59 0.60 0.63 0.67 0.70 0.75 0.77 0.74 0.71 0.74 0.77 0.79 0.84 0.86 0.81 0.76 0.71 0.70 0.70 0.76 0.77 0.77 0.78 0.75 0.76
1.01 0.98 0.88 0.79 0.75 0.74 0.75 0.78 0.79 0.80 0.79 0.77 0.68 0.55 0.49 0.48 0.51 0.53 0.54 0.53 0.54 0.59 0.63 0.71 0.74 0.72 0.69 0.72 0.73 0.72 0.71 0.69 0.68 0.66 0.65 0.64 0.67 0.73 0.74 0.74 0.76 0.76 0.75
0.96 0.95 0.91 0.82 0.76 0.76 0.76 0.78 0.81 0.77 0.72 0.72 0.66 0.55 0.51 0.56 0.52 0.51 0.50 0.48 0.50 0.54 0.56 0.61 0.65 0.64 0.63 0.63 0.64 0.62 0.59 0.58 0.58 0.53 0.54 0.57 0.59 0.63 0.65 0.66 0.72 0.75 0.72
0.90 0.91 0.87 0.79 0.75 0.74 0.73 0.77 0.75 0.65 0.57 0.57 0.58 0.52 0.52 0.55 0.51 0.47 0.41 0.40 0.44 0.43 0.43 0.45 0.44 0.43 0.46 0.50 0.52 0.52 0.49 0.47 0.48 0.50 0.50 0.53 0.54 0.55 0.57 0.60 0.66 0.70 0.69
0.87 0.87 0.85 0.80 0.75 0.68 0.65 0.66 0.63 0.57 0.50 0.47 0.48 0.47 0.49 0.49 0.46 0.40 0.34 0.36 0.40 0.40 0.36 0.35 0.36 0.37 0.37 0.38 0.39 0.39 0.41 0.44 0.48 0.46 0.45 0.48 0.50 0.55 0.54 0.57 0.64 0.69 0.68
0.81 0.78 0.74 0.71 0.64 0.58 0.56 0.57 0.54 0.47 0.42 0.39 0.39 0.41 0.41 0.42 0.43 0.39 0.34 0.35 0.37 0.37 0.33 0.30 0.32 0.33 0.33 0.31 0.29 0.30 0.31 0.34 0.39 0.40 0.38 0.39 0.48 0.55 0.55 0.52 0.52 0.59 0.61

GEFSGL_prec_meanprecacc_150.txt.gz
Total_Precipitation_Accumulation
0.74 0.73 0.78 0.80 0.83 0.89 0.97 0.98 1.03 1.09 1.16 1.18 1.14 1.11 1.01 0.95 0.95 0.97 0.98 1.08 1.09 1.09 1.17 1.20 1.26 1.37 1.52 1.57 1.61 1.68 1.88 2.04 1.93 1.83 1.71 1.57 1.43 1.27 1.11 1.10 1.10 1.04 0.86
0.72 0.72 0.76 0.79 0.79 0.79 0.83 0.81 0.83 0.88 0.91 0.93 0.93 0.99 1.02 1.01 0.98 0.97 0.93 0.92 0.97 1.00 1.07 1.17 1.23 1.35 1.47 1.45 1.54 1.62 1.81 2.03 2.10 2.23 2.27 2.03 1.72 1.49 1.38 1.22 0.99 0.89 0.89
0.66 0.71 0.78 0.78 0.76 0.80 0.83 0.82 0.81 0.80 0.82 0.82 0.83 0.86 0.89 0.97 1.08 1.10 1.07 1.08 1.10 1.02 1.08 1.17 1.17 1.21 1.30 1.32 1.44 1.57 1.72 1.86 2.04 2.15 2.28 2.10 1.91 1.62 1.61 1.42 1.17 1.08 0.87
0.58 0.73 0.86 0.92 0.92 0.93 0.88 0.89 0.87 0.83 0.84 0.83 0.79 0.79 0.82 0.83 0.90 1.04 1.10 1.10 1.07 1.03 1.03 1.02 0.99 1.01 1.10 1.19 1.25 1.41 1.56 1.70 1.82 1.87 2.01 2.08 2.10 2.06 1.99 1.76 1.59 1.39 1.13
0.59 0.80 0.91 0.90 0.85 0.85 0.83 0.90 0.87 0.80 0.77 0.81 0.74 0.72 0.77 0.81 0.79 0.81 0.93 0.96 0.96 0.95 0.96 0.89 0.78 0.78 0.82 0.86 0.93 1.17 1.34 1.48 1.63 1.74 1.87 2.05 2.16 2.29 2.14 2.01 1.88 1.76 1.50
0.56 0.67 0.71 0.76 0.78 0.75 0.70 0.69 0.71 0.74 0.73 0.74 0.68 0.66 0.67 0.61 0.63 0.59 0.61 0.70 0.76 0.78 0.83 0.84 0.76 0.65 0.61 0.63 0.65 0.77 0.96 1.12 1.36 1.62 1.81 2.02 2.11 2.08 2.19 2.19 2.12 1.98 1.85
0.49 0.53 0.61 0.72 0.74 0.68 0.59 0.63 0.71 0.72 0.72 0.70 0.65 0.61 0.60 0.59 0.47 0.42 0.42 0.52 0.61 0.64 0.69 0.75 0.66 0.59 0.57 0.54 0.59 0.65 0.71 0.78 0.92 1.23 1.52 1.64 1.67 1.67 1.91 2.10 2.11 2.03 2.00
0.50 0.57 0.62 0.73 0.74 0.69 0.67 0.67 0.69 0.69 0.70 0.71 0.65 0.62 0.66 0.61 0.47 0.39 0.35 0.35 0.48 0.58 0.62 0.66 0.69 0.69 0.62 0.60 0.60 0.65 0.63 0.63 0.66 0.73 0.89 1.04 1.22 1.37 1.59 1.89 2.12 2.11 2.12
0.51 0.62 0.72 0.81 0.80 0.76 0.73 0.72 0.71 0.69 0.65 0.65 0.67 0.67 0.69 0.66 0.47 0.36 0.34 0.41 0.53 0.57 0.60 0.61 0.64 0.69 0.63 0.52 0.54 0.60 0.63 0.65 0.57 0.59 0.63 0.75 0.90 1.06 1.24 1.49 1.76 2.03 2.29
0.65 0.73 0.79 0.84 0.87 0.83 0.82 0.80 0.76 0.75 0.68 0.63 0.64 0.68 0.68 0.72 0.52 0.32 0.29 0.42 0.59 0.65 0.74 0.72 0.58 0.54 0.53 0.41 0.44 0.55 0.56 0.57 0.53 0.56 0.58 0.61 0.67 0.81 0.94 1.14 1.34 1.58 1.84
0.69 0.79 0.89 0.96 0.92 0.88 0.89 0.91 0.89 0.85 0.84 0.77 0.69 0.70 0.71 0.67 0.53 0.33 0.28 0.41 0.60 0.73 0.75 0.77 0.69 0.50 0.41 0.36 0.35 0.44 0.49 0.48 0.55 0.62 0.69 0.71 0.72 0.77 0.83 0.94 1.16 1.30 1.36
0.74 0.83 0.95 1.03 0.87 0.81 0.96 1.01 1.01 1.02 1.01 0.95 0.89 0.79 0.76 0.74 0.55 0.39 0.32 0.35 0.49 0.70 0.82 0.80 0.67 0.48 0.40 0.38 0.33 0.36 0.35 0.34 0.43 0.55 0.64 0.70 0.72 0.73 0.80 0.89 1.04 1.19 1.31
0.81 0.92 0.96 0.98 1.02 1.05 1.04 1.05 1.07 1.07 1.08 1.04 1.02 0.96 0.89 0.88 0.79 0.51 0.40 0.38 0.44 0.58 0.69 0.74 0.66 0.46 0.40 0.42 0.41 0.35 0.31 0.32 0.40 0.47 0.54 0.62 0.65 0.69 0.80 0.95 1.11 1.20 1.23
0.91 0.96 1.00 1.04 1.06 1.12 1.21 1.18 1.14 1.09 1.11 1.13 1.07 1.04 1.03 1.03 0.97 0.78 0.64 0.55 0.53 0.55 0.60 0.63 0.65 0.58 0.47 0.49 0.51 0.43 0.37 0.41 0.45 0.45 0.50 0.57 0.63 0.72 0.83 0.91 1.02 1.14 1.22
1.01 1.04 1.07 1.09 1.13 1.17 1.19 1.14 1.07 1.05 0.97 1.01 1.04 1.02 1.04 1.04 0.93 0.80 0.77 0.74 0.70 0.66 0.65 0.74 0.75 0.79 0.71 0.67 0.68 0.63 0.57 0.60 0.59 0.56 0.56 0.60 0.66 0.72 0.78 0.88 0.97 1.03 1.09
1.15 1.07 1.07 1.05 1.09 1.13 1.14 1.00 0.79 0.73 0.67 0.66 0.71 0.74 0.74 0.69 0.62 0.58 0.61 0.62 0.61 0.64 0.63 0.77 0.86 0.89 0.87 0.87 0.85 0.82 0.81 0.76 0.74 0.74 0.71 0.68 0.70 0.74 0.76 0.81 0.91 0.94 0.94
1.13 1.09 1.01 0.96 0.96 0.96 1.01 1.05 0.97 0.83 0.75 0.66 0.54 0.50 0.54 0.49 0.44 0.45 0.51 0.57 0.59 0.62 0.66 0.77 0.89 0.94 0.95 0.96 0.91 0.87 0.89 0.83 0.83 0.85 0.83 0.81 0.81 0.84 0.82 0.82 0.88 0.93 0.91
1.02 0.94 0.91 0.91 0.90 0.86 0.88 0.92 0.93 0.98 0.98 0.85 0.67 0.57 0.51 0.42 0.37 0.37 0.46 0.56 0.63 0.64 0.73 0.85 0.96 0.95 0.98 1.01 0.96 0.92 0.93 0.89 0.87 0.86 0.85 0.83 0.83 0.88 0.89 0.84 0.82 0.86 0.87
1.06 0.93 0.87 0.84 0.84 0.84 0.83 0.84 0.87 0.94 1.01 1.01 0.88 0.75 0.62 0.45 0.38 0.40 0.43 0.52 0.64 0.73 0.82 0.92 0.94 0.94 0.97 0.95 0.90 0.89 0.93 0.92 0.88 0.87 0.84 0.83 0.82 0.88 0.91 0.89 0.85 0.88 0.87
1.10 0.96 0.89 0.82 0.79 0.84 0.88 0.85 0.83 0.92 0.96 0.96 0.91 0.77 0.58 0.51 0.51 0.53 0.53 0.58 0.68 0.75 0.80 0.84 0.84 0.82 0.83 0.85 0.86 0.88 0.94 0.94 0.93 0.92 0.85 0.80 0.81 0.86 0.88 0.88 0.85 0.84 0.85
1.08 0.98 0.88 0.78 0.75 0.77 0.84 0.84 0.80 0.85 0.89 0.86 0.79 0.68 0.53 0.49 0.56 0.63 0.67 0.67 0.69 0.71 0.74 0.78 0.80 0.77 0.73 0.77 0.80 0.83 0.88 0.90 0.86 0.81 0.76 0.75 0.75 0.81 0.82 0.81 0.83 0.80 0.81
1.06 1.03 0.93 0.84 0.80 0.79 0.78 0.81 0.83 0.83 0.82 0.80 0.71 0.58 0.52 0.52 0.55 0.58 0.59 0.58 0.59 0.63 0.67 0.75 0.77 0.74 0.72 0.76 0.77 0.76 0.75 0.73 0.72 0.70 0.68 0.68 0.72 0.78 0.79 0.79 0.82 0.81 0.80
1.01 1.01 0.96 0.86 0.80 0.80 0.79 0.82 0.86 0.82 0.76 0.76 0.70 0.59 0.55 0.59 0.56 0.54 0.52 0.51 0.52 0.56 0.59 0.64 0.67 0.67 0.66 0.65 0.67 0.65 0.62 0.61 0.61 0.56 0.58 0.61 0.63 0.67 0.69 0.69 0.76 0.79 0.76
0.94 0.95 0.90 0.82 0.77 0.77 0.77 0.81 0.80 0.70 0.62 0.62 0.62 0.56 0.56 0.58 0.54 0.49 0.43 0.42 0.45 0.45 0.45 0.46 0.46 0.45 0.48 0.52 0.55 0.55 0.52 0.50 0.52 0.53 0.53 0.57 0.58 0.58 0.60 0.63 0.70 0.74 0.73
0.89 0.90 0.87 0.81 0.76 0.69 0.67 0.68 0.65 0.59 0.52 0.50 0.51 0.50 0.52 0.51 0.48 0.43 0.37 0.38 0.42 0.43 0.38 0.38 0.38 0.39 0.40 0.40 0.42 0.43 0.45 0.47 0.51 0.48 0.47 0.50 0.53 0.58 0.58 0.62 0.68 0.74 0.73
0.81 0.79 0.75 0.71 0.65 0.58 0.57 0.58 0.55 0.48 0.44 0.41 0.41 0.43 0.43 0.44 0.44 0.41 0.36 0.37 0.40 0.40 0.36 0.34 0.35 0.38 0.38 0.36 0.35 0.35 0.36 0.38 0.43 0.43 0.41 0.42 0.51 0.58 0.58 0.55 0.55 0.62 0.65

GEFSGL_prec_meanprecacc_156.txt.gz
Total_Precipitation_Accumulation
0.75 0.74 0.79 0.81 0.84 0.90 0.97 0.99 1.04 1.10 1.17 1.18 1.15 1.11 1.01 0.95 0.95 0.97 0.98 1.08 1.09 1.09 1.17 1.20 1.26 1.37 1.52 1.57 1.61 1.68 1.88 2.04 1.93 1.83 1.71 1.57 1.44 1.28 1.12 1.10 1.11 1.05 0.87
0.73 0.73 0.76 0.79 0.79 0.79 0.83 0.82 0.83 0.89 0.91 0.93 0.93 0.99 1.02 1.01 0.98 0.97 0.93 0.92 0.97 1.00 1.07 1.17 1.23 1.35 1.47 1.45 1.54 1.62 1.81 2.03 2.10 2.23 2.27 2.03 1.72 1.49 1.38 1.23 0.99 0.90 0.90
0.67 0.72 0.78 0.78 0.76 0.80 0.83 0.82 0.81 0.80 0.82 0.82 0.83 0.86 0.89 0.97 1.08 1.10 1.07 1.08 1.10 1.02 1.08 1.17 1.17 1.21 1.30 1.32 1.44 1.57 1.72 1.86 2.04 2.15 2.28 2.10 1.91 1.62 1.61 1.42 1.18 1.09 0.88
0.58 0.73 0.86 0.92 0.92 0.93 0.88 0.89 0.87 0.83 0.84 0.83 0.79 0.79 0.82 0.83 0.90 1.04 1.10 1.10 1.07 1.03 1.03 1.02 0.99 1.01 1.10 1.19 1.25 1.41 1.56 1.70 1.82 1.87 2.01 2.08 2.10 2.06 1.99 1.76 1.59 1.39 1.13
0.59 0.80 0.91 0.90 0.85 0.85 0.83 0.90 0.87 0.80 0.77 0.81 0.74 0.72 0.77 0.81 0.79 0.81 0.93 0.97 0.96 0.95 0.97 0.90 0.78 0.78 0.82 0.86 0.93 1.17 1.34 1.48 1.63 1.74 1.87 2.05 2.16 2.29 2.15 2.01 1.89 1.76 1.50
0.56 0.67 0.71 0.76 0.79 0.75 0.70 0.69 0.71 0.74 0.73 0.74 0.68 0.66 0.67 0.62 0.63 0.59 0.62 0.71 0.76 0.79 0.83 0.85 0.76 0.65 0.61 0.63 0.65 0.77 0.96 1.12 1.36 1.62 1.81 2.02 2.11 2.08 2.19 2.19 2.12 1.98 1.85
0.50 0.54 0.61 0.72 0.75 0.68 0.59 0.63 0.71 0.72 0.72 0.70 0.65 0.61 0.61 0.60 0.48 0.43 0.43 0.53 0.62 0.65 0.70 0.76 0.66 0.59 0.57 0.54 0.59 0.65 0.71 0.78 0.92 1.23 1.52 1.64 1.67 1.67 1.91 2.10 2.11 2.03 2.00
0.51 0.58 0.63 0.74 0.74 0.70 0.67 0.67 0.70 0.69 0.70 0.71 0.66 0.62 0.66 0.62 0.48 0.40 0.35 0.35 0.48 0.59 0.62 0.66 0.69 0.69 0.62 0.60 0.60 0.65 0.63 0.63 0.66 0.73 0.89 1.04 1.22 1.37 1.59 1.89 2.12 2.11 2.12
0.53 0.63 0.73 0.82 0.81 0.76 0.74 0.72 0.72 0.70 0.65 0.65 0.67 0.67 0.69 0.66 0.48 0.37 0.34 0.41 0.53 0.57 0.60 0.61 0.64 0.69 0.63 0.52 0.54 0.60 0.63 0.65 0.57 0.59 0.63 0.75 0.90 1.06 1.24 1.49 1.76 2.04 2.29
0.65 0.73 0.79 0.84 0.88 0.85 0.83 0.81 0.77 0.77 0.69 0.63 0.65 0.69 0.68 0.72 0.52 0.32 0.29 0.43 0.59 0.65 0.74 0.72 0.58 0.54 0.53 0.41 0.44 0.55 0.56 0.57 0.53 0.56 0.58 0.61 0.67 0.81 0.94 1.15 1.34 1.58 1.84
0.69 0.80 0.90 0.98 0.94 0.90 0.92 0.93 0.90 0.87 0.85 0.78 0.70 0.70 0.72 0.67 0.53 0.33 0.28 0.41 0.60 0.73 0.75 0.77 0.70 0.50 0.41 0.36 0.35 0.44 0.49 0.48 0.55 0.62 0.69 0.71 0.72 0.77 0.83 0.94 1.17 1.30 1.37
0.74 0.84 0.97 1.06 0.90 0.82 0.98 1.02 1.02 1.04 1.02 0.97 0.90 0.81 0.78 0.75 0.56 0.41 0.34 0.37 0.50 0.71 0.83 0.81 0.67 0.49 0.41 0.38 0.34 0.36 0.36 0.34 0.43 0.55 0.64 0.70 0.72 0.73 0.80 0.90 1.04 1.19 1.31
0.82 0.93 0.98 1.00 1.04 1.07 1.06 1.07 1.09 1.09 1.10 1.06 1.04 0.98 0.91 0.90 0.81 0.54 0.43 0.40 0.46 0.60 0.71 0.75 0.67 0.48 0.41 0.43 0.42 0.36 0.32 0.32 0.40 0.47 0.54 0.62 0.65 0.69 0.80 0.95 1.11 1.20 1.23
0.94 0.99 1.03 1.06 1.08 1.15 1.23 1.20 1.16 1.11 1.14 1.15 1.10 1.07 1.05 1.05 0.98 0.79 0.65 0.56 0.54 0.56 0.61 0.64 0.66 0.59 0.48 0.51 0.52 0.44 0.38 0.42 0.45 0.45 0.50 0.57 0.63 0.72 0.83 0.91 1.02 1.14 1.22
1.06 1.08 1.11 1.13 1.16 1.20 1.23 1.18 1.11 1.09 1.00 1.05 1.07 1.06 1.07 1.07 0.94 0.82 0.78 0.75 0.71 0.67 0.66 0.75 0.75 0.80 0.71 0.67 0.69 0.63 0.58 0.61 0.60 0.57 0.57 0.60 0.66 0.72 0.78 0.88 0.97 1.03 1.09
1.21 1.13 1.12 1.10 1.14 1.19 1.19 1.04 0.83 0.76 0.70 0.68 0.74 0.77 0.76 0.71 0.64 0.61 0.64 0.64 0.63 0.65 0.65 0.77 0.87 0.90 0.88 0.88 0.86 0.83 0.81 0.77 0.74 0.75 0.72 0.68 0.71 0.75 0.76 0.82 0.91 0.95 0.95
1.19 1.15 1.07 1.01 1.01 1.00 1.05 1.08 1.00 0.86 0.77 0.68 0.56 0.52 0.55 0.50 0.46 0.47 0.54 0.59 0.61 0.63 0.66 0.78 0.90 0.94 0.96 0.96 0.91 0.88 0.89 0.83 0.83 0.85 0.83 0.82 0.82 0.84 0.83 0.82 0.89 0.94 0.91
1.10 1.02 0.98 0.98 0.95 0.90 0.91 0.95 0.96 1.00 1.00 0.88 0.69 0.59 0.52 0.44 0.38 0.39 0.47 0.58 0.64 0.64 0.74 0.86 0.97 0.95 0.99 1.02 0.96 0.92 0.93 0.90 0.88 0.86 0.85 0.84 0.84 0.89 0.90 0.85 0.83 0.87 0.88
1.11 0.99 0.93 0.90 0.89 0.89 0.87 0.87 0.89 0.96 1.03 1.03 0.90 0.77 0.64 0.47 0.40 0.42 0.46 0.54 0.66 0.75 0.84 0.94 0.96 0.95 0.98 0.97 0.91 0.89 0.94 0.92 0.89 0.88 0.86 0.84 0.83 0.90 0.93 0.91 0.88 0.91 0.89
1.15 1.02 0.95 0.89 0.85 0.90 0.94 0.90 0.87 0.96 1.00 0.99 0.93 0.79 0.61 0.53 0.53 0.55 0.55 0.60 0.70 0.77 0.83 0.86 0.86 0.84 0.85 0.87 0.88 0.90 0.97 0.96 0.95 0.94 0.87 0.83 0.83 0.88 0.90 0.91 0.88 0.87 0.87
1.12 1.04 0.96 0.86 0.81 0.83 0.89 0.89 0.85 0.89 0.92 0.89 0.82 0.71 0.56 0.52 0.59 0.65 0.69 0.69 0.71 0.73 0.76 0.80 0.81 0.79 0.75 0.79 0.83 0.86 0.92 0.93 0.89 0.85 0.80 0.79 0.78 0.84 0.84 0.83 0.85 0.82 0.83
1.10 1.07 0.96 0.87 0.84 0.82 0.83 0.86 0.87 0.88 0.87 0.85 0.75 0.62 0.55 0.54 0.57 0.60 0.61 0.60 0.60 0.65 0.68 0.77 0.79 0.76 0.74 0.78 0.80 0.80 0.80 0.78 0.77 0.74 0.72 0.71 0.75 0.80 0.80 0.80 0.83 0.82 0.81
1.05 1.04 0.99 0.90 0.85 0.85 0.84 0.87 0.90 0.86 0.80 0.80 0.73 0.62 0.57 0.61 0.57 0.56 0.54 0.52 0.53 0.57 0.60 0.65 0.68 0.68 0.67 0.67 0.69 0.68 0.65 0.65 0.64 0.59 0.60 0.63 0.65 0.69 0.70 0.71 0.77 0.80 0.77
0.97 0.98 0.94 0.85 0.81 0.80 0.80 0.84 0.83 0.73 0.64 0.64 0.64 0.58 0.57 0.60 0.55 0.51 0.44 0.43 0.46 0.46 0.46 0.48 0.47 0.46 0.49 0.53 0.56 0.57 0.54 0.52 0.53 0.54 0.54 0.58 0.58 0.59 0.61 0.64 0.72 0.76 0.75
0.92 0.92 0.89 0.84 0.78 0.71 0.68 0.69 0.67 0.60 0.53 0.51 0.52 0.51 0.53 0.52 0.49 0.44 0.37 0.39 0.43 0.43 0.39 0.38 0.39 0.41 0.41 0.42 0.43 0.44 0.46 0.48 0.52 0.49 0.48 0.51 0.54 0.60 0.60 0.64 0.71 0.77 0.76
0.86 0.83 0.78 0.74 0.67 0.60 0.58 0.59 0.56 0.50 0.45 0.41 0.41 0.43 0.43 0.44 0.45 0.41 0.36 0.38 0.40 0.40 0.36 0.34 0.36 0.38 0.39 0.37 0.35 0.36 0.37 0.38 0.44 0.45 0.43 0.44 0.53 0.60 0.61 0.58 0.59 0.66 0.69

GEFSGL_prec_meanprecacc_162.txt.gz
Total_Precipitation_Accumulation
0.77 0.77 0.82 0.83 0.87 0.93 1.00 1.01 1.06 1.11 1.18 1.19 1.15 1.12 1.02 0.96 0.96 0.98 0.99 1.09 1.10 1.10 1.18 1.21 1.27 1.38 1.52 1.58 1.62 1.68 1.89 2.05 1.93 1.83 1.71 1.58 1.44 1.28 1.13 1.12 1.12 1.06 0.89
0.74 0.75 0.79 0.81 0.81 0.81 0.84 0.83 0.85 0.90 0.93 0.94 0.94 1.00 1.03 1.01 0.99 0.97 0.94 0.92 0.98 1.01 1.07 1.17 1.23 1.36 1.47 1.45 1.54 1.62 1.81 2.03 2.10 2.23 2.27 2.03 1.73 1.51 1.39 1.23 1.00 0.91 0.91
0.68 0.74 0.81 0.80 0.77 0.81 0.84 0.83 0.82 0.81 0.83 0.83 0.84 0.87 0.89 0.97 1.08 1.10 1.08 1.08 1.10 1.03 1.08 1.18 1.17 1.21 1.30 1.33 1.44 1.57 1.72 1.87 2.04 2.15 2.28 2.10 1.92 1.62 1.62 1.43 1.18 1.10 0.89
0.58 0.74 0.88 0.93 0.93 0.94 0.89 0.89 0.87 0.84 0.85 0.83 0.79 0.80 0.83 0.83 0.90 1.05 1.10 1.10 1.08 1.03 1.03 1.03 0.99 1.02 1.11 1.19 1.25 1.42 1.57 1.71 1.83 1.87 2.01 2.08 2.10 2.07 2.00 1.77 1.60 1.40 1.13
0.60 0.82 0.93 0.91 0.86 0.85 0.83 0.90 0.88 0.80 0.78 0.82 0.75 0.72 0.77 0.81 0.79 0.81 0.93 0.97 0.96 0.95 0.97 0.90 0.79 0.79 0.83 0.87 0.93 1.17 1.34 1.48 1.64 1.74 1.87 2.05 2.16 2.29 2.15 2.02 1.89 1.76 1.50
0.57 0.68 0.72 0.76 0.79 0.75 0.70 0.69 0.71 0.74 0.74 0.74 0.68 0.67 0.68 0.62 0.63 0.59 0.62 0.71 0.76 0.79 0.83 0.86 0.77 0.66 0.61 0.63 0.65 0.77 0.96 1.12 1.36 1.62 1.81 2.03 2.11 2.09 2.20 2.20 2.12 1.98 1.85
0.51 0.55 0.62 0.73 0.75 0.68 0.59 0.63 0.71 0.73 0.72 0.71 0.65 0.61 0.61 0.60 0.48 0.43 0.43 0.53 0.62 0.65 0.70 0.76 0.67 0.59 0.58 0.54 0.59 0.65 0.71 0.78 0.92 1.24 1.52 1.64 1.67 1.68 1.91 2.11 2.11 2.03 2.00
0.52 0.58 0.63 0.74 0.75 0.70 0.68 0.68 0.70 0.70 0.70 0.71 0.66 0.62 0.66 0.62 0.48 0.40 0.36 0.35 0.49 0.59 0.62 0.66 0.69 0.69 0.62 0.60 0.60 0.65 0.64 0.64 0.66 0.74 0.90 1.05 1.23 1.39 1.60 1.89 2.13 2.11 2.13
0.53 0.64 0.74 0.82 0.82 0.77 0.74 0.73 0.73 0.70 0.66 0.66 0.67 0.68 0.69 0.67 0.48 0.37 0.35 0.42 0.53 0.57 0.60 0.61 0.64 0.69 0.63 0.53 0.54 0.60 0.64 0.65 0.57 0.59 0.63 0.76 0.91 1.06 1.25 1.49 1.76 2.04 2.29
0.66 0.74 0.80 0.84 0.88 0.85 0.83 0.82 0.78 0.77 0.70 0.64 0.65 0.69 0.69 0.73 0.54 0.33 0.30 0.43 0.59 0.65 0.74 0.72 0.58 0.54 0.54 0.41 0.45 0.55 0.57 0.58 0.54 0.56 0.59 0.61 0.67 0.81 0.94 1.15 1.34 1.58 1.84
0.69 0.80 0.90 0.98 0.95 0.91 0.92 0.94 0.91 0.88 0.86 0.79 0.71 0.71 0.73 0.68 0.54 0.33 0.29 0.41 0.61 0.73 0.75 0.78 0.71 0.51 0.42 0.37 0.35 0.44 0.50 0.49 0.55 0.62 0.69 0.71 0.72 0.77 0.83 0.94 1.17 1.30 1.37
0.75 0.85 0.97 1.07 0.91 0.84 0.99 1.04 1.03 1.04 1.04 0.99 0.92 0.82 0.79 0.76 0.57 0.42 0.34 0.38 0.51 0.72 0.84 0.83 0.70 0.51 0.42 0.38 0.34 0.36 0.36 0.34 0.43 0.56 0.65 0.70 0.72 0.73 0.80 0.90 1.05 1.20 1.32
0.83 0.94 0.99 1.02 1.06 1.08 1.08 1.09 1.10 1.10 1.11 1.07 1.05 0.99 0.92 0.91 0.83 0.55 0.44 0.41 0.47 0.61 0.72 0.77 0.69 0.49 0.42 0.43 0.42 0.37 0.32 0.33 0.41 0.47 0.54 0.62 0.65 0.70 0.81 0.96 1.13 1.22 1.25
0.95 1.00 1.04 1.07 1.10 1.16 1.25 1.22 1.17 1.12 1.14 1.16 1.11 1.08 1.06 1.06 1.00 0.80 0.66 0.57 0.55 0.57 0.62 0.64 0.67 0.60 0.49 0.51 0.53 0.44 0.38 0.42 0.46 0.46 0.51 0.58 0.64 0.72 0.84 0.93 1.04 1.16 1.25
1.08 1.09 1.13 1.15 1.18 1.22 1.24 1.20 1.13 1.10 1.01 1.06 1.08 1.07 1.08 1.08 0.96 0.84 0.80 0.78 0.73 0.69 0.67 0.76 0.77 0.81 0.73 0.69 0.71 0.65 0.59 0.62 0.61 0.58 0.58 0.61 0.67 0.73 0.79 0.90 1.00 1.05 1.11
1.23 1.15 1.14 1.12 1.16 1.21 1.22 1.07 0.86 0.79 0.72 0.70 0.75 0.78 0.78 0.74 0.66 0.63 0.66 0.66 0.65 0.67 0.65 0.78 0.88 0.91 0.89 0.89 0.88 0.85 0.84 0.79 0.76 0.77 0.73 0.69 0.72 0.76 0.78 0.84 0.94 0.98 0.98
1.23 1.18 1.10 1.04 1.04 1.04 1.09 1.11 1.03 0.89 0.79 0.70 0.58 0.54 0.57 0.53 0.49 0.49 0.55 0.60 0.62 0.64 0.67 0.78 0.91 0.96 0.98 0.99 0.94 0.91 0.92 0.86 0.85 0.87 0.85 0.83 0.84 0.86 0.85 0.85 0.92 0.97 0.95
1.15 1.07 1.02 1.01 0.98 0.94 0.95 0.98 0.98 1.03 1.04 0.91 0.72 0.61 0.55 0.46 0.41 0.41 0.49 0.59 0.64 0.65 0.74 0.86 0.98 0.98 1.02 1.04 0.98 0.94 0.95 0.91 0.90 0.89 0.88 0.86 0.87 0.92 0.93 0.88 0.87 0.92 0.94
1.17 1.04 0.97 0.94 0.93 0.93 0.90 0.90 0.93 1.00 1.06 1.07 0.94 0.80 0.66 0.48 0.42 0.44 0.47 0.55 0.67 0.77 0.86 0.96 0.98 0.98 1.01 0.99 0.94 0.92 0.97 0.95 0.92 0.92 0.89 0.88 0.88 0.95 0.97 0.96 0.93 0.96 0.94
1.20 1.07 1.01 0.94 0.90 0.93 0.98 0.94 0.92 1.01 1.05 1.03 0.97 0.82 0.63 0.55 0.56 0.57 0.57 0.62 0.72 0.80 0.86 0.89 0.88 0.86 0.87 0.89 0.89 0.92 0.99 0.99 0.98 0.97 0.91 0.88 0.88 0.94 0.96 0.96 0.94 0.92 0.92
1.16 1.08 1.00 0.90 0.85 0.88 0.94 0.93 0.88 0.93 0.96 0.93 0.86 0.74 0.59 0.54 0.61 0.68 0.73 0.72 0.74 0.76 0.78 0.82 0.84 0.81 0.77 0.82 0.85 0.88 0.94 0.96 0.93 0.89 0.85 0.84 0.83 0.88 0.88 0.87 0.89 0.87 0.87
1.12 1.09 0.99 0.89 0.87 0.86 0.86 0.89 0.89 0.90 0.89 0.88 0.77 0.65 0.58 0.56 0.59 0.62 0.63 0.63 0.64 0.68 0.71 0.80 0.82 0.80 0.78 0.82 0.84 0.84 0.83 0.82 0.81 0.79 0.77 0.76 0.78 0.84 0.84 0.84 0.87 0.87 0.86
1.07 1.07 1.01 0.92 0.87 0.88 0.87 0.89 0.92 0.87 0.82 0.81 0.75 0.63 0.59 0.63 0.59 0.58 0.57 0.55 0.56 0.60 0.62 0.67 0.70 0.69 0.68 0.69 0.71 0.71 0.68 0.68 0.67 0.62 0.63 0.66 0.69 0.73 0.74 0.75 0.81 0.84 0.81
1.00 1.01 0.96 0.88 0.84 0.83 0.84 0.87 0.85 0.75 0.67 0.66 0.66 0.59 0.59 0.62 0.57 0.53 0.46 0.45 0.48 0.48 0.47 0.49 0.49 0.48 0.51 0.55 0.59 0.60 0.57 0.55 0.56 0.57 0.57 0.61 0.62 0.64 0.66 0.68 0.75 0.79 0.78
0.96 0.96 0.94 0.88 0.82 0.75 0.72 0.73 0.70 0.63 0.57 0.54 0.54 0.53 0.55 0.54 0.51 0.46 0.39 0.41 0.45 0.44 0.40 0.39 0.40 0.42 0.43 0.43 0.46 0.47 0.48 0.50 0.53 0.51 0.50 0.53 0.56 0.62 0.63 0.67 0.75 0.81 0.80
0.91 0.88 0.83 0.77 0.70 0.64 0.62 0.62 0.59 0.52 0.48 0.44 0.45 0.46 0.46 0.46 0.47 0.43 0.38 0.39 0.41 0.41 0.37 0.35 0.37 0.39 0.40 0.38 0.36 0.37 0.37 0.39 0.44 0.46 0.44 0.45 0.54 0.62 0.63 0.61 0.61 0.70 0.73

GEFSGL_prec_meanprecacc_168.txt.gz
Total_Precipitation_Accumulation
0.81 0.81 0.85 0.86 0.91 0.98 1.05 1.06 1.11 1.16 1.22 1.21 1.17 1.13 1.03 0.97 0.97 1.00 1.01 1.11 1.13 1.12 1.19 1.22 1.28 1.39 1.53 1.58 1.62 1.68 1.89 2.06 1.94 1.84 1.71 1.58 1.45 1.29 1.13 1.12 1.14 1.07 0.90
0.77 0.78 0.83 0.85 0.85 0.86 0.89 0.88 0.90 0.95 0.97 0.96 0.95 1.02 1.04 1.03 1.00 0.99 0.96 0.95 1.01 1.03 1.09 1.18 1.24 1.36 1.48 1.46 1.54 1.62 1.81 2.04 2.11 2.24 2.28 2.03 1.74 1.51 1.39 1.24 1.01 0.91 0.92
0.70 0.76 0.84 0.84 0.81 0.85 0.88 0.87 0.86 0.86 0.87 0.85 0.86 0.89 0.91 0.99 1.10 1.12 1.10 1.10 1.12 1.04 1.09 1.19 1.18 1.22 1.30 1.33 1.44 1.57 1.72 1.87 2.05 2.15 2.28 2.11 1.92 1.63 1.63 1.44 1.19 1.11 0.90
0.60 0.76 0.92 0.98 0.97 0.98 0.94 0.94 0.91 0.87 0.88 0.86 0.81 0.82 0.84 0.84 0.92 1.05 1.11 1.11 1.08 1.03 1.03 1.03 1.00 1.02 1.11 1.20 1.26 1.42 1.57 1.71 1.83 1.88 2.01 2.08 2.10 2.07 2.01 1.78 1.61 1.41 1.14
0.61 0.84 0.97 0.95 0.90 0.89 0.87 0.94 0.92 0.84 0.80 0.84 0.76 0.73 0.79 0.82 0.80 0.82 0.94 0.97 0.97 0.96 0.97 0.90 0.79 0.79 0.83 0.87 0.94 1.18 1.35 1.50 1.65 1.75 1.88 2.05 2.17 2.30 2.16 2.03 1.90 1.77 1.52
0.59 0.70 0.75 0.81 0.84 0.81 0.75 0.72 0.75 0.78 0.77 0.76 0.69 0.68 0.69 0.62 0.63 0.60 0.62 0.71 0.77 0.80 0.84 0.86 0.77 0.66 0.61 0.64 0.66 0.79 0.97 1.13 1.37 1.63 1.81 2.03 2.13 2.10 2.21 2.20 2.13 1.99 1.86
0.54 0.58 0.65 0.78 0.81 0.75 0.64 0.66 0.73 0.76 0.75 0.73 0.66 0.62 0.62 0.60 0.48 0.43 0.43 0.53 0.63 0.66 0.70 0.76 0.67 0.59 0.58 0.54 0.59 0.66 0.71 0.78 0.92 1.25 1.53 1.65 1.68 1.69 1.93 2.12 2.12 2.05 2.01
0.57 0.63 0.67 0.80 0.81 0.75 0.71 0.70 0.72 0.72 0.72 0.73 0.67 0.63 0.67 0.62 0.48 0.40 0.36 0.36 0.49 0.59 0.62 0.67 0.69 0.70 0.62 0.60 0.61 0.66 0.64 0.64 0.67 0.75 0.91 1.06 1.24 1.40 1.62 1.91 2.15 2.12 2.13
0.57 0.67 0.76 0.86 0.87 0.82 0.78 0.76 0.75 0.72 0.67 0.68 0.69 0.69 0.71 0.68 0.49 0.37 0.35 0.42 0.53 0.58 0.61 0.61 0.65 0.70 0.64 0.53 0.54 0.61 0.65 0.67 0.59 0.60 0.64 0.76 0.91 1.06 1.25 1.50 1.76 2.04 2.29
0.67 0.75 0.81 0.87 0.91 0.88 0.87 0.86 0.82 0.80 0.72 0.66 0.67 0.71 0.71 0.75 0.55 0.33 0.30 0.43 0.60 0.66 0.75 0.73 0.59 0.55 0.54 0.42 0.46 0.57 0.59 0.61 0.56 0.58 0.60 0.62 0.68 0.81 0.94 1.15 1.35 1.59 1.85
0.69 0.80 0.92 1.00 0.96 0.92 0.95 0.97 0.94 0.90 0.89 0.81 0.73 0.73 0.74 0.70 0.56 0.34 0.30 0.42 0.61 0.74 0.76 0.79 0.73 0.52 0.43 0.39 0.37 0.46 0.52 0.51 0.57 0.64 0.71 0.73 0.74 0.80 0.86 0.96 1.19 1.32 1.39
0.76 0.86 0.99 1.09 0.93 0.85 1.01 1.06 1.05 1.07 1.06 1.01 0.95 0.85 0.82 0.80 0.59 0.43 0.36 0.39 0.52 0.72 0.85 0.85 0.72 0.53 0.44 0.40 0.35 0.37 0.36 0.35 0.44 0.56 0.65 0.71 0.74 0.75 0.82 0.92 1.09 1.25 1.36
0.86 0.97 1.01 1.03 1.08 1.10 1.09 1.11 1.12 1.12 1.13 1.09 1.07 1.01 0.96 0.96 0.87 0.57 0.46 0.43 0.49 0.62 0.73 0.79 0.71 0.50 0.43 0.44 0.43 0.37 0.33 0.33 0.41 0.48 0.55 0.63 0.66 0.71 0.83 0.98 1.17 1.27 1.30
0.99 1.04 1.07 1.09 1.12 1.18 1.28 1.24 1.20 1.14 1.16 1.18 1.13 1.12 1.10 1.10 1.04 0.85 0.70 0.60 0.57 0.58 0.63 0.65 0.68 0.61 0.50 0.52 0.53 0.45 0.39 0.43 0.47 0.48 0.53 0.60 0.66 0.74 0.86 0.94 1.06 1.19 1.30
1.14 1.14 1.16 1.17 1.20 1.25 1.28 1.24 1.17 1.13 1.04 1.09 1.11 1.10 1.12 1.11 1.00 0.88 0.84 0.82 0.77 0.72 0.69 0.78 0.79 0.84 0.76 0.72 0.74 0.69 0.64 0.67 0.65 0.61 0.61 0.64 0.70 0.75 0.81 0.91 1.01 1.07 1.16
1.30 1.21 1.19 1.16 1.20 1.24 1.24 1.10 0.89 0.82 0.75 0.74 0.78 0.81 0.80 0.76 0.69 0.65 0.68 0.68 0.67 0.68 0.67 0.81 0.91 0.95 0.93 0.94 0.93 0.91 0.89 0.84 0.81 0.82 0.78 0.74 0.76 0.80 0.81 0.86 0.98 1.04 1.04
1.34 1.28 1.18 1.10 1.09 1.08 1.13 1.15 1.07 0.93 0.84 0.74 0.62 0.58 0.61 0.56 0.51 0.52 0.58 0.62 0.63 0.65 0.69 0.81 0.95 1.01 1.02 1.03 0.98 0.94 0.96 0.91 0.90 0.91 0.89 0.88 0.89 0.92 0.90 0.89 0.96 1.03 1.01
1.27 1.21 1.14 1.10 1.06 1.01 1.01 1.05 1.05 1.09 1.10 0.98 0.78 0.67 0.60 0.50 0.45 0.45 0.53 0.62 0.67 0.66 0.76 0.90 1.03 1.03 1.06 1.07 1.01 0.97 0.98 0.94 0.93 0.93 0.93 0.91 0.91 0.97 0.98 0.94 0.93 0.98 1.00
1.27 1.17 1.12 1.07 1.06 1.03 1.01 1.01 1.03 1.09 1.16 1.17 1.02 0.86 0.71 0.52 0.45 0.48 0.52 0.59 0.71 0.81 0.90 1.01 1.03 1.02 1.05 1.04 0.98 0.96 1.00 0.98 0.95 0.96 0.94 0.94 0.94 1.01 1.04 1.04 1.00 1.03 1.00
1.29 1.18 1.13 1.05 1.01 1.03 1.07 1.03 1.01 1.09 1.12 1.10 1.05 0.88 0.68 0.60 0.61 0.62 0.60 0.65 0.75 0.83 0.88 0.92 0.90 0.89 0.91 0.92 0.93 0.96 1.03 1.02 1.02 1.01 0.96 0.93 0.95 1.00 1.02 1.03 1.00 0.98 0.98
1.21 1.15 1.07 0.96 0.91 0.93 1.00 1.00 0.95 1.00 1.03 1.00 0.92 0.78 0.62 0.57 0.65 0.72 0.75 0.74 0.75 0.77 0.80 0.84 0.85 0.83 0.81 0.86 0.90 0.93 0.98 1.01 0.98 0.94 0.91 0.90 0.90 0.95 0.95 0.94 0.95 0.92 0.92
1.17 1.15 1.04 0.94 0.93 0.91 0.92 0.94 0.95 0.95 0.94 0.93 0.83 0.69 0.62 0.60 0.63 0.66 0.66 0.66 0.66 0.70 0.73 0.82 0.85 0.83 0.81 0.86 0.89 0.89 0.88 0.86 0.85 0.84 0.82 0.80 0.83 0.88 0.89 0.89 0.92 0.91 0.90
1.13 1.13 1.09 1.00 0.95 0.95 0.94 0.95 0.97 0.92 0.88 0.88 0.81 0.70 0.65 0.67 0.61 0.60 0.58 0.56 0.58 0.62 0.64 0.68 0.72 0.71 0.71 0.72 0.75 0.76 0.73 0.72 0.71 0.66 0.67 0.70 0.72 0.76 0.78 0.79 0.85 0.88 0.85
1.09 1.10 1.05 0.97 0.93 0.91 0.91 0.93 0.91 0.82 0.74 0.73 0.71 0.65 0.64 0.65 0.59 0.55 0.48 0.47 0.51 0.50 0.50 0.51 0.51 0.50 0.54 0.59 0.63 0.64 0.60 0.57 0.58 0.59 0.59 0.63 0.64 0.66 0.68 0.71 0.78 0.82 0.81
1.07 1.08 1.06 1.00 0.94 0.86 0.81 0.81 0.77 0.71 0.63 0.59 0.59 0.57 0.58 0.57 0.54 0.48 0.42 0.44 0.48 0.47 0.42 0.42 0.43 0.44 0.45 0.46 0.48 0.50 0.50 0.51 0.54 0.52 0.51 0.55 0.58 0.64 0.65 0.70 0.78 0.84 0.83
0.99 0.96 0.91 0.86 0.79 0.72 0.70 0.70 0.67 0.59 0.54 0.50 0.49 0.50 0.50 0.50 0.50 0.46 0.41 0.43 0.45 0.44 0.40 0.38 0.39 0.42 0.43 0.41 0.39 0.39 0.40 0.41 0.46 0.47 0.45 0.46 0.55 0.64 0.65 0.63 0.63 0.72 0.75

GEFSGL_prec_meanprecacc_174.txt.gz
Total_Precipitation_Accumulation
0.87 0.86 0.89 0.90 0.94 1.01 1.08 1.07 1.12 1.18 1.25 1.24 1.20 1.16 1.05 0.98 0.97 1.00 1.02 1.12 1.14 1.13 1.20 1.22 1.29 1.39 1.53 1.58 1.62 1.69 1.89 2.06 1.94 1.84 1.71 1.58 1.45 1.29 1.13 1.13 1.14 1.07 0.90
0.82 0.83 0.88 0.90 0.89 0.89 0.92 0.90 0.92 0.98 0.99 0.99 0.98 1.04 1.06 1.04 1.01 1.00 0.97 0.96 1.02 1.04 1.10 1.19 1.25 1.37 1.49 1.47 1.54 1.62 1.81 2.04 2.11 2.24 2.28 2.03 1.74 1.51 1.39 1.24 1.01 0.92 0.92
0.75 0.81 0.88 0.87 0.85 0.87 0.92 0.91 0.88 0.88 0.90 0.88 0.88 0.91 0.93 1.01 1.12 1.14 1.11 1.11 1.13 1.05 1.11 1.19 1.18 1.22 1.30 1.34 1.45 1.57 1.72 1.87 2.05 2.15 2.28 2.11 1.92 1.63 1.63 1.44 1.19 1.11 0.90
0.63 0.79 0.95 1.01 1.00 1.01 0.98 0.98 0.95 0.90 0.91 0.90 0.84 0.84 0.87 0.87 0.95 1.08 1.14 1.13 1.10 1.05 1.05 1.04 1.00 1.02 1.11 1.20 1.26 1.42 1.57 1.71 1.83 1.88 2.02 2.08 2.11 2.07 2.01 1.78 1.61 1.41 1.14
0.63 0.86 1.00 1.00 0.95 0.94 0.91 0.97 0.96 0.88 0.83 0.88 0.80 0.76 0.82 0.86 0.83 0.85 0.95 0.99 0.99 0.97 0.99 0.92 0.80 0.80 0.83 0.87 0.94 1.18 1.35 1.50 1.65 1.76 1.88 2.06 2.17 2.30 2.16 2.03 1.90 1.77 1.52
0.64 0.73 0.77 0.84 0.88 0.84 0.78 0.75 0.78 0.81 0.80 0.79 0.73 0.72 0.72 0.64 0.66 0.62 0.63 0.73 0.79 0.81 0.86 0.88 0.78 0.67 0.62 0.64 0.66 0.79 0.97 1.14 1.38 1.64 1.82 2.04 2.13 2.10 2.21 2.20 2.13 1.99 1.86
0.59 0.61 0.68 0.82 0.85 0.78 0.66 0.69 0.76 0.79 0.79 0.76 0.69 0.66 0.65 0.63 0.51 0.45 0.45 0.55 0.64 0.67 0.72 0.78 0.68 0.60 0.58 0.55 0.59 0.66 0.71 0.78 0.92 1.25 1.53 1.65 1.68 1.69 1.94 2.12 2.12 2.05 2.01
0.60 0.65 0.69 0.83 0.84 0.79 0.75 0.74 0.75 0.76 0.77 0.77 0.70 0.66 0.71 0.65 0.51 0.43 0.38 0.37 0.49 0.60 0.63 0.68 0.70 0.71 0.63 0.61 0.61 0.66 0.64 0.64 0.67 0.75 0.92 1.07 1.25 1.40 1.62 1.91 2.15 2.12 2.13
0.59 0.69 0.78 0.89 0.90 0.86 0.82 0.79 0.79 0.77 0.72 0.72 0.72 0.72 0.75 0.72 0.53 0.40 0.37 0.43 0.55 0.60 0.63 0.64 0.67 0.72 0.65 0.54 0.55 0.61 0.65 0.67 0.59 0.62 0.65 0.77 0.91 1.06 1.25 1.50 1.77 2.04 2.30
0.69 0.77 0.84 0.91 0.98 0.96 0.93 0.91 0.86 0.84 0.77 0.70 0.71 0.74 0.74 0.79 0.59 0.37 0.34 0.46 0.63 0.69 0.78 0.78 0.63 0.57 0.56 0.43 0.47 0.59 0.60 0.62 0.58 0.59 0.61 0.63 0.69 0.82 0.95 1.16 1.36 1.60 1.86
0.71 0.82 0.95 1.04 1.02 1.01 1.03 1.02 0.98 0.93 0.92 0.84 0.76 0.75 0.76 0.72 0.58 0.38 0.34 0.45 0.65 0.78 0.80 0.82 0.74 0.53 0.45 0.41 0.39 0.48 0.54 0.52 0.58 0.65 0.72 0.74 0.75 0.80 0.87 0.97 1.20 1.34 1.41
0.79 0.88 1.03 1.15 1.00 0.94 1.10 1.13 1.10 1.10 1.09 1.04 0.97 0.86 0.83 0.82 0.62 0.46 0.39 0.42 0.55 0.74 0.87 0.86 0.73 0.54 0.45 0.41 0.36 0.37 0.37 0.35 0.44 0.56 0.65 0.71 0.74 0.76 0.83 0.94 1.11 1.28 1.41
0.90 1.00 1.03 1.06 1.12 1.15 1.17 1.18 1.18 1.16 1.17 1.13 1.11 1.04 0.99 1.01 0.91 0.61 0.50 0.46 0.51 0.64 0.75 0.80 0.72 0.51 0.43 0.44 0.43 0.37 0.33 0.33 0.41 0.48 0.55 0.64 0.67 0.72 0.83 0.99 1.18 1.29 1.33
1.03 1.08 1.12 1.14 1.16 1.23 1.33 1.30 1.26 1.20 1.22 1.24 1.20 1.19 1.16 1.15 1.07 0.87 0.72 0.63 0.61 0.61 0.65 0.67 0.68 0.61 0.50 0.52 0.54 0.45 0.39 0.44 0.48 0.48 0.54 0.61 0.66 0.75 0.86 0.95 1.06 1.20 1.31
1.18 1.20 1.22 1.23 1.27 1.32 1.34 1.31 1.24 1.20 1.12 1.18 1.20 1.19 1.17 1.15 1.03 0.92 0.88 0.85 0.80 0.74 0.71 0.79 0.80 0.85 0.77 0.73 0.75 0.70 0.64 0.67 0.65 0.62 0.62 0.64 0.70 0.75 0.81 0.92 1.02 1.09 1.17
1.37 1.29 1.28 1.26 1.32 1.36 1.35 1.19 0.98 0.91 0.85 0.82 0.86 0.88 0.85 0.82 0.77 0.73 0.74 0.73 0.71 0.71 0.69 0.82 0.93 0.96 0.94 0.95 0.94 0.92 0.90 0.85 0.83 0.83 0.79 0.75 0.77 0.81 0.82 0.88 0.99 1.06 1.06
1.46 1.41 1.31 1.25 1.26 1.25 1.30 1.31 1.20 1.03 0.93 0.83 0.71 0.67 0.71 0.66 0.62 0.60 0.63 0.67 0.69 0.70 0.73 0.84 0.98 1.03 1.04 1.05 1.00 0.96 0.97 0.92 0.92 0.93 0.91 0.90 0.91 0.94 0.92 0.91 0.98 1.05 1.03
1.42 1.36 1.30 1.25 1.21 1.19 1.20 1.24 1.21 1.21 1.20 1.08 0.89 0.78 0.70 0.59 0.53 0.53 0.60 0.69 0.73 0.72 0.80 0.94 1.06 1.06 1.09 1.09 1.02 0.98 0.99 0.96 0.94 0.94 0.94 0.93 0.93 0.99 1.00 0.96 0.95 1.00 1.02
1.40 1.29 1.25 1.22 1.23 1.23 1.20 1.20 1.20 1.25 1.31 1.31 1.15 0.98 0.81 0.61 0.52 0.53 0.56 0.64 0.76 0.85 0.93 1.03 1.05 1.04 1.07 1.05 1.00 0.98 1.01 0.99 0.96 0.98 0.96 0.95 0.95 1.03 1.06 1.05 1.02 1.05 1.03
1.42 1.33 1.29 1.23 1.20 1.25 1.31 1.24 1.21 1.28 1.29 1.27 1.22 1.03 0.80 0.69 0.67 0.67 0.65 0.68 0.78 0.86 0.90 0.93 0.92 0.90 0.92 0.94 0.95 0.97 1.04 1.03 1.03 1.03 0.97 0.95 0.96 1.02 1.04 1.04 1.02 1.00 1.01
1.28 1.23 1.17 1.07 1.03 1.08 1.18 1.19 1.17 1.23 1.23 1.17 1.07 0.91 0.73 0.65 0.72 0.78 0.81 0.79 0.80 0.81 0.82 0.86 0.87 0.85 0.82 0.88 0.91 0.94 0.99 1.02 0.99 0.96 0.93 0.92 0.91 0.97 0.96 0.95 0.97 0.94 0.94
1.23 1.22 1.12 1.04 1.03 1.05 1.08 1.10 1.13 1.17 1.14 1.09 0.96 0.82 0.74 0.70 0.73 0.75 0.74 0.71 0.71 0.73 0.75 0.83 0.86 0.84 0.82 0.87 0.90 0.90 0.89 0.87 0.86 0.85 0.84 0.82 0.85 0.90 0.91 0.91 0.94 0.94 0.92
1.19 1.20 1.18 1.09 1.05 1.08 1.08 1.10 1.13 1.09 1.06 1.08 1.03 0.90 0.84 0.84 0.76 0.70 0.65 0.60 0.61 0.64 0.66 0.70 0.73 0.72 0.72 0.73 0.76 0.77 0.74 0.73 0.72 0.68 0.70 0.72 0.75 0.80 0.82 0.83 0.88 0.91 0.87
1.16 1.19 1.16 1.07 1.03 1.04 1.05 1.12 1.12 1.01 0.92 0.92 0.90 0.81 0.78 0.77 0.69 0.62 0.53 0.51 0.54 0.53 0.52 0.53 0.53 0.52 0.55 0.60 0.64 0.65 0.62 0.59 0.60 0.62 0.62 0.67 0.68 0.70 0.72 0.74 0.80 0.84 0.83
1.16 1.20 1.20 1.13 1.06 0.97 0.93 0.93 0.93 0.88 0.80 0.75 0.75 0.71 0.70 0.66 0.62 0.54 0.47 0.50 0.54 0.53 0.47 0.44 0.45 0.46 0.47 0.48 0.50 0.52 0.53 0.54 0.57 0.55 0.54 0.58 0.61 0.66 0.68 0.72 0.80 0.86 0.85
1.07 1.06 1.04 0.99 0.91 0.83 0.81 0.80 0.76 0.69 0.65 0.61 0.61 0.62 0.60 0.58 0.57 0.51 0.45 0.45 0.47 0.47 0.43 0.40 0.41 0.44 0.45 0.43 0.41 0.42 0.42 0.43 0.48 0.50 0.47 0.48 0.58 0.66 0.67 0.65 0.65 0.74 0.77